[[{"header":{"parameterUnit":"m.s-1","parameterCategory":1,"la1":30.6,"la2":29.2853,"lo1":-89.7004,"lo2":-87.6739,"dy":0.0162,"dx":0.0183,"nx":112,"ny":82,"refTime":"2026-04-11T00:00:00:Z","depth":0,"parameterNumber":2,"parameterNumberName":"U-component_of_WINDS"},"data":[0.0,0.0,0.0,0.0,0.0,0.0,0.0,0.0,0.0,0.0,0.0,0.0,0.0,0.0,0.0,0.0,0.0,0.0,0.0,0.0,0.0,0.0,0.0,0.0,0.0,0.0,0.0,0.0,0.0,0.0,0.0,0.0,0.0,0.0,0.0,0.0,0.0,0.0,0.0,0.0,0.0,0.0,0.0,0.0,0.0,0.0,0.0,0.0,0.0,0.0,0.0,0.0,0.0,0.0,0.0,0.0,0.0,0.0,0.0,0.0,0.0,0.0,0.0,0.0,0.0,0.0,0.0,0.0,0.0,0.0,0.0,0.0,0.0,0.0,0.0,0.0,0.0,0.0,0.0,0.0,0.0,0.0,0.0,0.0,0.0,0.0,0.0,0.0,0.0,0.0,-3.1676,-3.4737,-3.8348,-4.0169,-3.9361,-3.7584,-3.4808,-3.0846,0.0,0.0,0.0,0.0,0.0,0.0,0.0,0.0,0.0,0.0,0.0,0.0,0.0,0.0,0.0,0.0,0.0,0.0,0.0,0.0,0.0,0.0,0.0,0.0,0.0,0.0,0.0,0.0,0.0,0.0,0.0,0.0,0.0,0.0,0.0,0.0,0.0,0.0,0.0,0.0,0.0,0.0,0.0,0.0,0.0,0.0,0.0,0.0,0.0,0.0,0.0,0.0,0.0,0.0,0.0,0.0,0.0,0.0,0.0,0.0,0.0,0.0,0.0,0.0,0.0,0.0,0.0,0.0,0.0,0.0,0.0,0.0,0.0,0.0,0.0,0.0,0.0,0.0,0.0,0.0,0.0,0.0,0.0,0.0,0.0,0.0,0.0,0.0,0.0,0.0,0.0,0.0,0.0,0.0,0.0,0.0,0.0,0.0,0.0,0.0,0.0,0.0,0.0,0.0,-3.2499,-3.7966,-3.9715,-4.0169,-3.9361,-3.7084,-3.45,-3.1698,0.0,0.0,0.0,0.0,0.0,0.0,0.0,0.0,0.0,0.0,0.0,0.0,0.0,0.0,0.0,0.0,0.0,0.0,0.0,0.0,0.0,0.0,0.0,0.0,0.0,0.0,0.0,0.0,0.0,0.0,0.0,0.0,0.0,0.0,0.0,0.0,0.0,0.0,0.0,0.0,0.0,0.0,0.0,0.0,0.0,0.0,0.0,0.0,0.0,0.0,0.0,0.0,0.0,0.0,0.0,0.0,0.0,0.0,0.0,0.0,0.0,0.0,0.0,0.0,0.0,0.0,0.0,0.0,0.0,0.0,0.0,0.0,0.0,0.0,0.0,0.0,0.0,0.0,0.0,0.0,0.0,0.0,0.0,0.0,0.0,0.0,0.0,0.0,0.0,0.0,0.0,0.0,0.0,0.0,0.0,0.0,0.0,0.0,0.0,0.0,0.0,0.0,0.0,-3.1506,-3.4237,-3.8823,-4.0015,-3.9977,-3.87,-3.6699,-3.4192,-3.1192,-2.7808,0.0,0.0,0.0,0.0,0.0,0.0,0.0,0.0,0.0,0.0,0.0,0.0,0.0,0.0,0.0,0.0,0.0,0.0,0.0,0.0,0.0,0.0,0.0,0.0,0.0,0.0,0.0,0.0,0.0,0.0,0.0,0.0,0.0,0.0,0.0,0.0,0.0,0.0,0.0,0.0,0.0,0.0,0.0,0.0,0.0,0.0,0.0,0.0,0.0,0.0,0.0,0.0,0.0,0.0,0.0,0.0,0.0,0.0,0.0,0.0,0.0,0.0,0.0,0.0,0.0,0.0,0.0,0.0,0.0,0.0,0.0,0.0,0.0,0.0,0.0,0.0,0.0,0.0,0.0,0.0,0.0,0.0,0.0,0.0,0.0,0.0,0.0,0.0,0.0,0.0,0.0,0.0,0.0,0.0,0.0,0.0,0.0,0.0,0.0,0.0,0.0,0.0,-3.4134,-3.576,-3.875,-3.964,-3.9402,-3.7907,-3.5944,-3.351,-3.051,-2.6979,0.0,0.0,0.0,0.0,0.0,0.0,0.0,0.0,0.0,0.0,0.0,0.0,0.0,0.0,0.0,0.0,0.0,0.0,0.0,0.0,0.0,0.0,0.0,0.0,0.0,0.0,0.0,0.0,0.0,0.0,0.0,0.0,0.0,0.0,0.0,0.0,0.0,0.0,0.0,0.0,0.0,0.0,0.0,0.0,0.0,0.0,0.0,0.0,0.0,0.0,0.0,0.0,0.0,0.0,0.0,0.0,0.0,0.0,0.0,0.0,0.0,0.0,0.0,0.0,0.0,0.0,0.0,0.0,0.0,0.0,0.0,0.0,0.0,0.0,0.0,0.0,0.0,0.0,0.0,0.0,0.0,0.0,0.0,0.0,0.0,0.0,0.0,0.0,0.0,0.0,0.0,0.0,0.0,0.0,0.0,0.0,0.0,0.0,0.0,0.0,0.0,0.0,-3.3997,-3.6457,-3.8272,-3.8499,-3.8148,-3.724,-3.4431,-3.1951,-3.0136,-2.6332,0.0,0.0,0.0,0.0,0.0,0.0,0.0,0.0,0.0,0.0,0.0,0.0,0.0,0.0,0.0,0.0,0.0,0.0,0.0,0.0,0.0,0.0,0.0,0.0,0.0,0.0,0.0,0.0,0.0,0.0,0.0,0.0,0.0,0.0,0.0,0.0,0.0,0.0,0.0,0.0,0.0,0.0,0.0,0.0,0.0,0.0,0.0,0.0,0.0,0.0,0.0,0.0,0.0,0.0,0.0,0.0,0.0,0.0,0.0,0.0,0.0,0.0,0.0,0.0,0.0,0.0,0.0,0.0,0.0,0.0,0.0,0.0,0.0,0.0,0.0,0.0,0.0,0.0,0.0,0.0,0.0,0.0,0.0,0.0,0.0,0.0,0.0,0.0,0.0,0.0,0.0,0.0,0.0,0.0,0.0,0.0,0.0,0.0,0.0,0.0,0.0,0.0,-3.2625,-3.462,-3.736,-3.7673,-3.7095,-3.5725,-3.3582,-3.1206,-2.8598,0.0,0.0,0.0,0.0,0.0,0.0,0.0,0.0,0.0,0.0,0.0,0.0,0.0,0.0,0.0,0.0,0.0,0.0,0.0,0.0,0.0,0.0,0.0,0.0,0.0,0.0,0.0,0.0,0.0,0.0,0.0,0.0,0.0,0.0,0.0,0.0,0.0,0.0,0.0,0.0,0.0,0.0,0.0,0.0,0.0,0.0,0.0,0.0,0.0,0.0,0.0,0.0,0.0,0.0,0.0,0.0,0.0,0.0,0.0,0.0,0.0,0.0,0.0,0.0,0.0,0.0,0.0,0.0,0.0,0.0,0.0,0.0,0.0,0.0,0.0,0.0,0.0,0.0,0.0,0.0,0.0,0.0,0.0,0.0,0.0,0.0,0.0,0.0,0.0,0.0,0.0,0.0,0.0,0.0,0.0,0.0,0.0,0.0,0.0,0.0,0.0,0.0,-3.0157,-3.1666,-3.3398,-3.6215,-3.6515,-3.5953,-3.4517,-3.249,-3.0167,-2.7539,0.0,0.0,0.0,0.0,0.0,0.0,0.0,0.0,0.0,0.0,0.0,0.0,0.0,0.0,0.0,0.0,0.0,0.0,0.0,0.0,0.0,0.0,0.0,0.0,0.0,0.0,0.0,0.0,0.0,0.0,0.0,0.0,0.0,0.0,0.0,0.0,0.0,0.0,0.0,0.0,0.0,0.0,0.0,0.0,0.0,0.0,0.0,0.0,0.0,0.0,0.0,0.0,0.0,0.0,0.0,0.0,0.0,0.0,0.0,0.0,0.0,0.0,0.0,0.0,0.0,0.0,0.0,0.0,0.0,0.0,0.0,0.0,0.0,0.0,0.0,0.0,0.0,0.0,0.0,0.0,0.0,0.0,0.0,0.0,0.0,0.0,0.0,0.0,0.0,0.0,0.0,0.0,0.0,0.0,0.0,0.0,0.0,0.0,0.0,0.0,0.0,0.0,-2.9138,-3.135,-3.3206,-3.4821,-3.5004,-3.4674,-3.3844,-3.1023,-2.8659,0.0,0.0,0.0,0.0,0.0,0.0,0.0,0.0,0.0,0.0,0.0,0.0,0.0,0.0,0.0,0.0,0.0,0.0,0.0,0.0,0.0,0.0,0.0,0.0,0.0,0.0,0.0,0.0,0.0,0.0,0.0,0.0,0.0,0.0,0.0,0.0,0.0,0.0,0.0,0.0,0.0,0.0,0.0,0.0,0.0,0.0,0.0,0.0,0.0,0.0,0.0,0.0,0.0,0.0,0.0,0.0,0.0,0.0,0.0,0.0,0.0,0.0,0.0,0.0,0.0,0.0,0.0,0.0,0.0,0.0,0.0,0.0,0.0,0.0,0.0,0.0,0.0,0.0,0.0,0.0,0.0,0.0,0.0,0.0,0.0,0.0,0.0,0.0,0.0,0.0,0.0,0.0,0.0,0.0,0.0,0.0,0.0,0.0,0.0,0.0,0.0,0.0,0.0,-2.8892,-3.0778,-3.2375,-3.399,-3.4174,-3.3587,-3.2228,-3.0232,-2.798,-2.535,0.0,0.0,0.0,0.0,0.0,0.0,0.0,0.0,0.0,0.0,0.0,0.0,0.0,0.0,0.0,0.0,0.0,0.0,0.0,0.0,0.0,0.0,0.0,0.0,0.0,0.0,0.0,0.0,0.0,0.0,0.0,0.0,0.0,0.0,0.0,0.0,0.0,0.0,0.0,0.0,0.0,0.0,0.0,0.0,0.0,0.0,0.0,0.0,0.0,0.0,0.0,0.0,0.0,0.0,0.0,0.0,0.0,0.0,0.0,0.0,0.0,0.0,0.0,0.0,0.0,0.0,0.0,0.0,0.0,0.0,0.0,0.0,0.0,0.0,0.0,0.0,0.0,0.0,0.0,0.0,0.0,0.0,0.0,0.0,0.0,0.0,0.0,0.0,0.0,0.0,0.0,0.0,0.0,0.0,0.0,0.0,0.0,0.0,0.0,0.0,0.0,0.0,-2.8319,-3.0337,-3.2021,-3.3623,-3.3513,-3.2816,-3.1507,-2.9622,-2.7469,-2.5022,0.0,0.0,0.0,0.0,0.0,0.0,0.0,0.0,0.0,0.0,0.0,0.0,0.0,0.0,0.0,0.0,0.0,0.0,0.0,0.0,0.0,0.0,0.0,0.0,0.0,0.0,0.0,0.0,0.0,0.0,0.0,0.0,0.0,0.0,0.0,0.0,0.0,0.0,0.0,0.0,0.0,0.0,0.0,0.0,0.0,0.0,0.0,0.0,0.0,0.0,0.0,0.0,0.0,0.0,0.0,0.0,0.0,0.0,0.0,0.0,0.0,0.0,0.0,0.0,0.0,0.0,0.0,0.0,0.0,0.0,0.0,0.0,0.0,0.0,0.0,0.0,0.0,0.0,0.0,0.0,0.0,0.0,0.0,0.0,0.0,0.0,0.0,0.0,0.0,0.0,0.0,0.0,0.0,0.0,0.0,0.0,0.0,0.0,0.0,0.0,0.0,0.0,-2.762,-2.9883,-3.1801,-3.3403,-3.2926,-3.2155,-3.136,-2.9145,-2.7175,-2.569,0.0,0.0,0.0,0.0,0.0,0.0,0.0,0.0,0.0,0.0,0.0,0.0,0.0,0.0,0.0,0.0,0.0,0.0,0.0,0.0,0.0,0.0,0.0,0.0,0.0,0.0,0.0,0.0,0.0,0.0,0.0,0.0,0.0,0.0,0.0,0.0,0.0,0.0,0.0,0.0,0.0,0.0,0.0,0.0,0.0,0.0,0.0,0.0,0.0,0.0,0.0,0.0,0.0,0.0,0.0,0.0,0.0,0.0,0.0,0.0,-2.5259,-2.3597,0.0,0.0,0.0,0.0,0.0,0.0,0.0,0.0,0.0,0.0,0.0,0.0,0.0,0.0,0.0,0.0,0.0,0.0,0.0,0.0,0.0,0.0,0.0,0.0,0.0,0.0,0.0,0.0,0.0,0.0,0.0,0.0,0.0,0.0,0.0,0.0,0.0,0.0,0.0,0.0,-2.7274,-2.8849,-3.0136,-3.1727,-3.1764,-3.1311,-3.0503,-2.8815,-2.7111,-2.5544,-2.2305,0.0,0.0,0.0,0.0,0.0,0.0,0.0,0.0,0.0,0.0,0.0,0.0,0.0,0.0,0.0,0.0,0.0,0.0,0.0,0.0,0.0,0.0,0.0,0.0,0.0,0.0,0.0,0.0,0.0,0.0,0.0,0.0,0.0,0.0,0.0,0.0,0.0,0.0,0.0,0.0,0.0,0.0,0.0,0.0,0.0,0.0,0.0,0.0,0.0,0.0,0.0,0.0,0.0,0.0,0.0,0.0,0.0,0.0,0.0,-2.7402,-2.6195,0.0,0.0,0.0,0.0,0.0,0.0,0.0,0.0,0.0,0.0,0.0,0.0,0.0,0.0,0.0,0.0,0.0,0.0,0.0,0.0,0.0,0.0,0.0,0.0,0.0,0.0,0.0,0.0,0.0,0.0,0.0,0.0,0.0,0.0,0.0,0.0,0.0,0.0,0.0,0.0,-2.6431,-2.784,-2.9205,-3.0959,-3.0789,-3.0452,-3.0234,-2.8374,-2.6869,-2.6025,-2.2986,0.0,0.0,0.0,0.0,0.0,0.0,0.0,0.0,0.0,0.0,0.0,0.0,0.0,0.0,0.0,0.0,0.0,0.0,0.0,0.0,0.0,0.0,0.0,0.0,0.0,0.0,0.0,0.0,0.0,0.0,0.0,0.0,0.0,0.0,0.0,0.0,0.0,0.0,0.0,0.0,0.0,0.0,0.0,0.0,0.0,0.0,0.0,0.0,0.0,0.0,0.0,0.0,0.0,-3.136,-3.145,-3.0971,-3.148,-3.1659,-3.1478,-3.0205,-2.9674,-2.9464,-2.6934,0.0,0.0,0.0,0.0,0.0,0.0,0.0,0.0,0.0,0.0,0.0,0.0,0.0,0.0,0.0,0.0,0.0,0.0,0.0,0.0,0.0,0.0,-2.2721,-2.4425,-2.4575,-2.3651,-2.1089,0.0,0.0,0.0,0.0,0.0,0.0,0.0,0.0,0.0,0.0,0.0,-2.5613,-2.7027,-2.8435,-3.0196,-2.9742,-2.9442,-2.9844,-2.7807,-2.6512,-2.6602,-2.3712,-2.2048,0.0,0.0,0.0,0.0,0.0,0.0,0.0,0.0,0.0,0.0,0.0,0.0,0.0,0.0,0.0,0.0,0.0,0.0,0.0,0.0,0.0,0.0,0.0,0.0,0.0,0.0,0.0,0.0,0.0,0.0,0.0,0.0,-2.4156,-2.4335,0.0,0.0,0.0,0.0,0.0,0.0,0.0,0.0,0.0,0.0,0.0,0.0,0.0,-3.0972,-3.0972,-3.3484,-3.4711,-3.4741,-3.5938,-3.6447,-3.6387,-3.6447,-3.6207,-3.5701,-3.5464,0.0,-3.027,-2.8771,0.0,0.0,0.0,0.0,0.0,0.0,0.0,0.0,0.0,0.0,0.0,0.0,0.0,0.0,0.0,0.0,0.0,0.0,0.0,0.0,0.0,0.0,-2.6324,-2.4978,-2.4589,-2.4447,-2.4018,-2.3091,-2.1543,-1.8956,-1.892,-1.8935,0.0,0.0,0.0,0.0,0.0,0.0,-2.5685,-2.6511,-2.726,-2.8181,-2.8195,-2.8263,-2.8608,-2.7067,-2.6243,-2.6591,-2.4253,-2.2832,-2.285,-2.1253,0.0,0.0,0.0,0.0,0.0,0.0,0.0,0.0,0.0,0.0,0.0,0.0,0.0,0.0,0.0,0.0,0.0,0.0,0.0,0.0,0.0,0.0,0.0,0.0,0.0,0.0,0.0,0.0,0.0,-2.5173,-2.6871,-2.6871,-2.6871,-2.6452,0.0,0.0,0.0,0.0,0.0,0.0,0.0,0.0,0.0,-3.133,-3.2916,-3.3933,-3.4322,-3.5818,-3.6567,-3.6567,-3.7135,-3.7404,-3.7404,-3.7404,-3.7255,-3.7015,-3.7015,-3.5818,-3.3694,-3.1659,-3.0013,-2.8693,0.0,0.0,0.0,0.0,-2.75,-2.7653,-2.9103,-2.9103,-2.8486,-2.8425,0.0,0.0,0.0,0.0,0.0,0.0,0.0,-2.5332,-2.5901,-2.6803,-2.7443,-2.6975,-2.6871,-2.6637,-2.5884,-2.5311,-2.4081,-2.1162,-2.11,-2.1058,-1.9584,-1.9912,0.0,0.0,0.0,-2.342,-2.5768,-2.6069,-2.6472,-2.7442,-2.7577,-2.7776,-2.8337,-2.6922,-2.6149,-2.6591,-2.4777,-2.3676,-2.3676,-2.2529,-2.138,0.0,0.0,0.0,0.0,0.0,0.0,0.0,0.0,0.0,0.0,0.0,0.0,0.0,0.0,0.0,0.0,0.0,0.0,0.0,0.0,0.0,0.0,0.0,0.0,0.0,0.0,0.0,0.0,-2.729,-2.8966,-2.9295,-2.9355,-2.8876,0.0,0.0,0.0,0.0,0.0,0.0,-3.1719,-3.2557,-3.3574,-3.4711,-3.6058,-3.6985,-3.7494,-3.8123,-3.8422,-3.8422,-3.8422,-3.8332,-3.8182,-3.8182,-3.7973,-3.7674,-3.7674,-3.7315,-3.6537,-3.4233,-3.2497,-3.115,-3.0043,-2.9175,-2.8723,-2.9714,-2.9894,-2.9894,-3.1839,-3.1869,-3.0971,-3.0672,-2.9472,-2.7794,-2.6129,0.0,0.0,0.0,0.0,-2.6482,-2.7954,-2.8198,-2.8244,-2.8727,-2.8846,-2.8517,-2.735,-2.6986,-2.6038,-2.3335,-2.3095,-2.2964,-2.1847,-2.1933,0.0,-2.346,-2.3585,-2.4171,-2.5863,-2.5968,-2.6213,-2.7046,-2.7147,-2.7337,-2.7799,-2.6527,-2.5841,-2.6155,-2.4762,-2.3986,-2.4056,-2.3498,-2.2803,-2.2008,0.0,0.0,0.0,0.0,0.0,0.0,0.0,0.0,0.0,0.0,0.0,0.0,0.0,0.0,0.0,0.0,0.0,0.0,0.0,0.0,0.0,0.0,0.0,0.0,0.0,0.0,0.0,0.0,0.0,-3.1212,-3.1361,0.0,0.0,0.0,0.0,-3.1152,-3.1899,-3.3185,-3.516,-3.6447,-3.7434,-3.8123,-3.9439,-4.0157,-4.0187,-4.0846,-4.1212,-4.1212,-4.1212,-4.0846,-4.0247,-4.0247,-3.9559,-3.8332,-3.8332,-3.7973,-3.7255,-3.5908,-3.4562,-3.3275,-3.2587,-3.1869,-3.1301,-3.1391,-3.178,-3.2318,-3.2437,-3.2467,-3.2497,-3.3095,-3.1569,-2.9382,-2.8607,-2.7495,0.0,0.0,-2.746,-2.8479,-2.8543,-2.9052,-2.9502,-2.9562,-2.9562,-2.9382,-2.8637,-2.8004,-2.6956,-2.4866,-2.435,-2.418,-2.3952,0.0,-2.4264,-2.4807,-2.5478,-2.5967,-2.607,-2.6411,-2.6674,-2.6725,-2.6725,-2.6616,-2.6343,-2.5545,-2.5033,-2.4998,-2.3872,-2.3374,-2.3721,-2.3706,-2.3298,-2.2473,-2.1087,0.0,0.0,0.0,0.0,0.0,0.0,0.0,0.0,0.0,0.0,0.0,0.0,0.0,0.0,0.0,0.0,0.0,0.0,0.0,0.0,0.0,0.0,0.0,0.0,0.0,0.0,0.0,0.0,-3.3871,-3.4472,0.0,-3.3784,-3.3514,-3.3754,-3.4651,-3.531,-3.6357,-3.7943,-3.8841,-3.9439,-3.9679,-4.0546,-4.1025,-4.1025,-4.1265,-4.1422,-4.1422,-4.1422,-4.1265,-4.1025,-4.0606,-4.0127,-3.9649,-3.923,-3.8661,-3.8003,-3.7554,-3.6596,-3.54,-3.516,-3.4681,-3.4052,-3.4052,-3.4233,-3.4442,-3.4442,-3.4143,-3.3664,-3.3066,-3.2228,-3.136,-3.0673,-2.9834,-2.9205,-2.9654,-2.9804,-2.9924,-3.0345,-3.0644,-3.0703,-3.0283,-3.0163,-3.0013,-2.9355,-2.8723,-2.8038,-2.732,-2.6336,-2.5466,-2.483,-2.5017,-2.5263,-2.5363,-2.5595,-2.5936,-2.6413,-2.6605,-2.6691,-2.6691,-2.6691,-2.6568,-2.6249,-2.5452,-2.4979,-2.4904,-2.3838,-2.334,-2.37,-2.35,-2.3334,-2.3267,-2.1794,-1.9906,0.0,0.0,0.0,0.0,0.0,0.0,0.0,0.0,0.0,0.0,0.0,0.0,0.0,0.0,0.0,0.0,0.0,0.0,0.0,0.0,0.0,0.0,0.0,0.0,0.0,-3.126,-3.3097,-3.5339,-3.6384,-3.6788,-3.6503,-3.6686,-3.7105,-3.7764,-3.8182,-3.8901,-4.0038,-4.0696,-4.1055,-4.1055,-4.1683,-4.2043,-4.2043,-4.2043,-4.2043,-4.2043,-4.2043,-4.1923,-4.1722,-4.1265,-4.0816,-4.0367,-3.9948,-3.9379,-3.8751,-3.8751,-3.8093,-3.7075,-3.6656,-3.6207,-3.5818,-3.5579,-3.5519,-3.5519,-3.5519,-3.522,-3.4651,-3.3544,-3.3185,-3.3066,-3.2407,-3.1869,-3.1599,-3.2049,-3.1719,-3.13,-3.172,-3.166,-3.1391,-3.0943,-3.0851,-3.0728,-3.034,-2.9572,-2.8925,-2.8944,-2.7769,-2.6563,-2.5979,-2.6106,-2.6321,-2.6415,-2.6217,-2.6302,-2.6962,-2.686,-2.6691,-2.6691,-2.6691,-2.6417,-2.5674,-2.5241,-2.4799,-2.4359,-2.3496,-2.3224,-2.3664,-2.3362,-2.334,-2.3674,-2.2102,-2.0318,-1.8364,0.0,0.0,0.0,0.0,0.0,0.0,0.0,0.0,0.0,0.0,0.0,0.0,0.0,0.0,0.0,0.0,0.0,0.0,0.0,0.0,0.0,0.0,0.0,-3.0331,-3.1588,-3.3254,-3.5733,-3.704,-3.797,-3.8465,-3.911,-3.9738,-4.0397,-4.0457,-4.0756,-4.1414,-4.2081,-4.244,-4.244,-4.3,-4.329,-4.329,-4.329,-4.329,-4.329,-4.329,-4.3,-4.244,-4.241,-4.1692,-4.0427,-4.0397,-4.0038,-3.9373,-3.9373,-3.902,-3.8302,-3.7045,-3.6537,-3.6417,-3.5759,-3.5519,-3.5519,-3.5519,-3.5519,-3.54,-3.4711,-3.4533,-3.4414,-3.3754,-3.3544,-3.3514,-3.3514,-3.3036,-3.2527,-3.2527,-3.1989,-3.1511,-3.1511,-3.1511,-3.1501,-3.1578,-3.0529,-2.9595,-2.9583,-2.8466,-2.7511,-2.7419,-2.7343,-2.7472,-2.7997,-2.7413,0.0,-2.7702,-2.7148,-2.6725,-2.6691,-2.6691,-2.6132,-2.4643,-2.4805,-2.4468,-2.3295,-2.2873,-2.2984,-2.3631,-2.3364,-2.3317,-2.3642,-2.2092,-2.0505,-1.895,0.0,0.0,0.0,0.0,0.0,0.0,0.0,0.0,0.0,0.0,0.0,0.0,0.0,0.0,0.0,0.0,0.0,0.0,0.0,0.0,0.0,-2.8185,-2.9925,-3.1567,-3.2718,-3.4687,-3.8178,-3.8878,-3.9664,-4.1159,-4.1063,-4.1115,-4.1811,-4.1871,-4.2102,-4.2761,-4.297,-4.306,-4.306,-4.32,-4.329,-4.329,-4.329,-4.329,-4.329,-4.329,-4.32,-4.306,-4.262,-4.1931,-4.1085,-4.0606,-4.0038,-3.9373,-3.9373,-3.932,-3.905,-3.8212,-3.7285,-3.6477,-3.6267,-3.5908,-3.5519,-3.5519,-3.5519,-3.5459,-3.528,-3.522,-3.519,-3.5011,-3.4592,-3.4234,-3.4234,-3.3395,-3.2527,-3.2527,-3.1989,-3.1511,-3.1511,-3.1511,-3.1508,-3.1498,-3.0511,-2.9585,-2.9618,-2.8872,-2.8054,-2.7512,-2.7371,-2.7403,-2.7432,-2.7635,-2.7622,-2.7207,-2.734,-2.7283,-2.6759,-2.6691,-2.6319,-2.5372,-2.4905,-2.4379,-2.3737,-2.2876,-2.2581,-2.296,-2.2712,-2.2686,-2.2972,-2.1633,-2.0717,0.0,0.0,0.0,0.0,0.0,0.0,0.0,0.0,0.0,0.0,0.0,0.0,0.0,0.0,0.0,0.0,0.0,0.0,0.0,0.0,0.0,0.0,-3.008,-3.1676,-3.3106,-3.3803,-3.5294,-3.8283,-3.881,-3.9899,-4.2262,-4.2128,-4.2376,-4.3539,-4.3097,-4.296,-4.3343,-4.2815,-4.2773,-4.3301,-4.2594,-4.2478,-4.3001,-4.2257,-4.214,-4.2589,-4.2589,-4.286,-4.329,-4.294,-4.2402,-4.1782,-4.1085,-4.0427,-3.9798,-3.9529,-3.9373,-3.9313,0.0,0.0,0.0,0.0,-3.5818,-3.5519,-3.5519,-3.5519,-3.5519,-3.5519,-3.5519,-3.5519,-3.5519,-3.522,-3.4921,-3.4921,-3.4143,-3.3275,-3.3006,-3.2407,-3.1839,-3.157,-3.1511,-3.1567,-3.191,-3.0925,-3.0003,-3.0023,-2.9241,0.0,-2.7594,-2.7687,-2.7814,-2.7749,-2.7784,-2.7812,-2.7866,-2.7599,-2.7374,-2.7164,-2.6894,-2.6387,-2.5676,-2.5344,0.0,0.0,0.0,-2.2884,-2.273,-2.2678,0.0,0.0,0.0,0.0,0.0,0.0,0.0,0.0,-1.9369,-1.9685,0.0,0.0,0.0,0.0,0.0,0.0,0.0,0.0,0.0,0.0,0.0,0.0,0.0,0.0,0.0,0.0,-3.219,-3.3646,-3.4751,-3.4951,-3.5607,-3.7306,-3.7896,-3.9303,-4.2224,-4.2453,-4.3139,-4.4756,-4.3834,-4.3197,-4.3197,-4.2105,0.0,0.0,0.0,-4.1311,-4.241,-4.0768,-4.046,-4.142,-4.1545,-4.2111,-4.313,-4.325,-4.297,-4.2351,-4.1692,-4.0995,-4.0337,-3.9679,-3.9373,-3.9313,-3.8661,-3.7973,-3.7255,-3.6058,-3.5579,-3.5519,-3.5519,0.0,0.0,-3.5519,-3.5519,-3.5519,-3.5519,-3.5519,-3.5519,-3.5519,-3.5011,-3.4384,-3.3754,-3.3066,-3.2348,-3.175,-3.157,-3.1682,-3.2327,-3.1447,-3.0506,-3.0469,-2.9468,-2.8397,-2.7705,-2.8057,-2.8391,-2.8391,-2.789,-2.7893,-2.886,-2.7932,-2.734,-2.7783,0.0,0.0,-2.5897,-2.5962,-2.5473,-2.4157,-2.3998,-2.3632,-2.2816,-2.3063,-2.3187,-2.3081,-2.2797,-2.2643,-2.2643,-2.2412,-2.2313,-2.2274,-2.1005,-2.1034,0.0,0.0,0.0,0.0,0.0,0.0,0.0,0.0,0.0,0.0,0.0,0.0,0.0,0.0,0.0,-3.1712,-3.3319,-3.4801,-3.5931,-3.6433,-3.7184,-3.8451,-3.8695,-3.9513,-4.1522,-4.1713,-4.1831,-4.2239,-4.2015,-4.1879,-4.1879,-4.1653,-4.1607,-4.1879,-4.1542,-4.1239,-4.1079,-4.0719,-4.0443,-4.0232,-4.1169,0.0,-4.1947,-4.29,-4.297,-4.2351,-4.1692,-4.0995,-4.0337,-3.9679,-3.9373,-3.9313,-3.8661,-3.7973,-3.7315,-3.6567,-3.5968,-3.5519,-3.5519,-3.5519,-3.5519,-3.5519,-3.5519,-3.5519,-3.5519,-3.5519,0.0,-3.5519,-3.5011,-3.4474,-3.4354,-3.3395,-3.2467,-3.2318,-3.1899,-3.1539,-3.1682,-3.1056,-3.0368,-2.99,-2.9132,-2.8397,-2.7705,-2.7685,-2.776,-2.776,-2.8082,-2.8155,-2.7771,-2.8328,-2.8563,-2.81,-2.7776,-2.7519,-2.7384,-2.6335,-2.5569,-2.5297,-2.4701,-2.4037,-2.3289,-2.3312,-2.3081,-2.2501,-2.2398,-2.2391,-2.2391,-2.2321,-2.2313,-2.2293,-2.2228,-2.2347,0.0,0.0,0.0,0.0,0.0,0.0,0.0,0.0,0.0,0.0,0.0,-2.8875,-3.0019,0.0,-3.2717,-3.4073,-3.5002,-3.5931,-3.7061,-3.7437,-3.7832,-3.8361,-3.8457,-3.919,-4.0952,-4.1147,-4.1517,-4.2397,-4.1937,-4.1558,-4.1558,-4.0962,-4.0914,-4.1558,-4.067,-4.0219,-4.0302,-3.9389,-3.8964,-3.9006,-3.9596,-4.0161,-4.0788,-4.1365,-4.1732,-4.1938,-4.0665,-4.0108,-4.0,-3.8446,-3.7814,-3.7785,-3.744,-3.736,-3.7345,-3.6716,-3.6058,-3.5519,-3.5519,-3.5519,-3.5519,-3.5519,-3.5519,-3.5519,-3.5519,-3.5519,-3.5519,-3.5519,-3.525,-3.4921,-3.4593,-3.3754,-3.2916,-3.2587,-3.1989,-3.1511,-3.1511,-3.1241,-3.0821,-3.0163,-2.9774,-2.9235,-2.8274,-2.8124,-2.8004,-2.7645,-2.786,-2.8027,-2.7952,-2.8153,-2.8394,-2.8615,-2.7879,-2.7453,-2.7755,-2.6438,-2.5592,-2.5592,-2.4914,-2.4338,-2.3966,-2.3966,-2.3579,-2.2868,-2.2868,-2.2665,-2.2313,-2.2313,-2.2496,-2.2835,-2.2999,-2.3144,0.0,0.0,0.0,0.0,0.0,0.0,0.0,-2.7454,-2.7907,-3.0005,-3.0859,-3.1662,-3.2993,-3.3771,-3.47,-3.6179,-3.6505,-3.6958,-3.8015,-3.8065,-3.804,-3.8165,-3.8165,-3.8763,-4.0282,-4.051,-4.1187,-4.2662,-4.1789,-4.1219,-4.1219,-4.0262,-4.016,-4.1219,-3.9828,-3.9218,-3.9516,-3.8072,-3.7512,-3.7769,-3.7971,-3.8604,-3.9536,-3.9798,-4.0404,-4.1154,-3.9494,-3.8949,-3.911,-3.7051,-3.6212,-3.6212,-3.6212,-3.6505,-3.6939,-3.6291,-3.5672,-3.5082,-3.4964,-3.5067,-3.5166,-3.5001,-3.5067,-3.5166,-3.5001,-3.4935,-3.4968,-3.5166,-3.5198,-3.5112,-3.4769,-3.4173,-3.3514,-3.2856,-3.2168,-3.166,-3.154,-3.1511,-3.1301,-3.0642,-3.0492,-3.0133,-2.8996,-2.8697,-2.8368,-2.7705,-2.7585,-2.7785,-2.8247,-2.7928,-2.7995,-2.895,-2.7936,-2.7306,-2.7595,-2.6438,-2.5713,-2.5795,-2.5252,-2.4846,-2.4711,-2.4711,-2.4372,-2.3628,-2.3613,-2.3308,-2.2733,-2.2733,-2.3038,-2.3613,-2.3613,-2.374,-2.1861,-2.2425,-2.3497,-2.4824,-2.6116,-2.7871,0.0,-3.0834,-3.0633,-3.2365,-3.3144,-3.3596,-3.3771,-3.465,-3.5579,-3.6304,-3.6832,-3.7487,-3.8617,-3.8341,-3.8191,-3.8718,-3.8768,-3.8894,-3.9095,-3.955,-3.9905,-4.0109,-3.9981,-3.9929,-3.9929,-3.98,-3.98,-3.9929,-3.9725,-3.9171,-3.8187,-3.7989,-3.7484,-3.6593,-3.7632,-3.8153,-3.8334,-3.9404,-4.0,-4.0003,-3.874,-3.7882,-3.7368,-3.6528,-3.6212,-3.6212,-3.6212,-3.5914,-3.5467,-3.4854,-3.4214,-3.3592,-3.3071,-3.3463,-3.4041,-3.322,-3.3498,-3.4007,-3.3185,-3.2912,-3.3115,-3.391,-3.4177,-3.4346,-3.5175,-3.4891,-3.4234,-3.3544,-3.2886,-3.2228,-3.163,-3.1511,-3.1301,-3.0642,-3.0492,-3.0283,-2.9621,-2.8996,-2.8368,-2.7705,-2.7585,-2.761,-2.7685,-2.8088,-2.8411,-2.8553,-2.831,-2.7812,-2.709,-2.6345,-2.6145,-2.6539,-2.6505,-2.615,-2.5507,-2.5473,-2.5135,-2.4372,-2.4372,-2.4338,-2.4237,-2.4237,-2.4305,-2.4372,-2.4372,-2.4403,-2.2656,-2.4346,-2.6314,-2.6843,-2.8841,-3.111,-3.2817,-3.2842,-3.2918,-3.4248,-3.47,-3.4951,-3.5278,-3.5981,-3.6684,-3.7236,-3.7789,-3.8442,-3.9245,-3.8868,-3.8467,-3.8391,-3.8366,-3.8492,-3.8894,-3.9069,-3.9346,-3.9672,-3.9697,-3.9697,-3.9697,-3.9697,-3.9697,-3.9697,-3.9697,-3.9145,-3.8015,-3.8015,-3.7462,-3.6405,-3.6896,-3.7103,-3.715,-3.7658,-3.7861,-3.7854,-3.7374,-3.6604,-3.5626,-3.4753,-3.4402,-3.4402,-3.4402,-3.423,-3.4038,-3.4317,-3.3992,-3.3349,-3.2778,-3.2841,-3.3122,-3.2735,-3.2876,-3.3087,-3.27,-3.2593,-3.2664,-3.3052,-3.3192,-3.329,-3.3671,-3.3316,-3.2739,-3.2449,-3.2035,-3.1624,-3.1331,-3.1397,-3.1421,-3.1122,-3.1062,-3.0881,-3.0223,-2.9894,-2.9475,-2.8873,-2.8094,-2.7585,-2.7585,-2.781,-2.7954,-2.7859,-2.8113,-2.7956,-2.7126,-2.6496,-2.6325,-2.6788,-2.6478,-2.6301,-2.6235,-2.6251,-2.5879,-2.5135,-2.5135,-2.4948,-2.4508,-2.4508,-2.4711,-2.5135,-2.5135,-2.5372,-2.3315,-2.5365,-2.77,-2.8319,-3.0663,-3.3077,-3.4109,-3.4349,-3.4625,-3.5579,-3.578,-3.5881,-3.6329,-3.6732,-3.7186,-3.7889,-3.8366,-3.8868,-3.9597,-3.9069,-3.8417,-3.7839,-3.7513,-3.7563,-3.8165,-3.8467,-3.8868,-3.9421,-3.9471,-3.9521,-3.9697,-3.9697,-3.9697,-3.9697,-3.9697,-3.9145,-3.8015,-3.8015,-3.7462,-3.6405,-3.6405,-3.6405,-3.6405,-3.6405,-3.6405,-3.6402,-3.6122,-3.5524,-3.465,-3.352,-3.3111,-3.3111,-3.3111,-3.3111,-3.3156,-3.3635,-3.3407,-3.2777,-3.2223,-3.2146,-3.2164,-3.1901,-3.201,-3.2191,-3.1901,-3.1829,-3.1865,-3.2128,-3.22,-3.2272,-3.2522,-3.2226,-3.1833,-3.1633,-3.1389,-3.1176,-3.0807,-3.106,-3.1338,-3.119,-3.1336,-3.1361,-3.0881,-3.0642,-3.0342,-2.9894,-2.8873,-2.8094,-2.7914,-2.7705,-2.7555,-2.7476,-2.7673,-2.7646,-2.7283,-2.6662,-2.6381,-2.6704,-2.6311,-2.6176,-2.6504,-2.6521,-2.6337,-2.5897,-2.5913,-2.5642,-2.5117,-2.5117,-2.5388,-2.5913,-2.5913,-2.6184,-2.3887,-2.4921,-2.6719,-2.9013,-3.0765,-3.2544,-3.4906,-3.5458,-3.5608,-3.6279,-3.638,-3.638,-3.6405,-3.643,-3.6782,-3.7839,-3.8015,-3.8417,-3.9546,-3.8743,-3.7839,-3.7287,-3.6257,-3.5784,-3.643,-3.7412,-3.8266,-3.8894,-3.8944,-3.912,-3.9672,-3.9697,-3.9697,-3.9697,-3.9697,-3.9145,-3.8015,-3.8015,-3.7462,-3.6405,-3.6405,-3.6405,-3.6405,-3.6405,-3.6405,-3.6355,-3.5248,-3.4726,-3.465,-3.352,-3.3111,-3.3111,-3.3111,-3.3111,-3.3036,-3.2475,-3.1921,-3.1367,-3.0838,-3.092,-3.1082,-3.0177,-3.0495,-3.1082,-3.0139,-2.9895,-3.0062,-3.097,-3.1241,-3.1462,-3.2343,-3.2593,-3.2427,-3.1778,-3.1612,-3.1254,-3.0097,-3.0499,-3.0958,-3.0444,-3.0955,-3.1481,-3.1481,-3.0913,-3.0492,-3.0492,-2.9924,-2.9295,-2.8637,-2.8004,-2.7585,-2.758,-2.7035,-2.6831,-2.7365,-2.6793,-2.6352,-2.6222,-2.6198,-2.6134,-2.603,-2.6015,-2.6228,-2.6657,-2.6657,-2.6674,-2.6623,-2.6623,-2.6623,-2.6657,-2.6657,-2.6657,-2.4238,-2.6013,-2.8166,-2.9364,-3.1547,-3.3695,-3.492,-3.5642,-3.6031,-3.5855,-3.5805,-3.5705,-3.5353,-3.5881,-3.6656,-3.7337,-3.809,-3.8843,-3.9597,-3.9044,-3.8366,-3.7789,-3.7086,-3.6558,-3.643,-3.6757,-3.7312,-3.8216,-3.8642,-3.8994,-3.9145,-3.9496,-3.9697,-3.9697,-3.9346,-3.8793,-3.8015,-3.7638,-3.7086,-3.6405,-3.6405,-3.6405,-3.6405,-3.6405,-3.6405,-3.6355,-3.5203,-3.468,-3.465,-3.352,-3.3111,-3.3111,-3.3111,-3.3111,-3.3086,-3.2867,-3.219,-3.1311,-3.0809,-3.0466,-3.0216,-2.9895,-3.0011,-3.0216,-2.9895,-2.9804,-2.9856,-3.0177,-3.0292,-3.0343,-3.0684,-3.0733,-3.0707,-3.0462,-3.054,-3.0548,-3.0147,-3.0433,-3.0624,-3.0075,-3.0656,-3.1123,-3.0776,-3.0954,-3.1002,-3.0582,-2.9594,-2.8846,-2.8637,-2.8034,-2.7585,-2.7585,-2.7405,-2.733,-2.7527,-2.6946,-2.6665,-2.6985,-2.6592,-2.6283,-2.6147,-2.6134,-2.6005,-2.5709,-2.605,-2.6261,-2.6261,-2.6556,-2.6691,-2.6691,-2.6691,-2.6691,-2.5449,-2.7063,-2.8881,-3.0068,-3.1746,-3.3247,-3.4097,-3.4821,-3.5223,-3.4635,-3.4711,-3.4731,-3.4248,-3.47,-3.555,-3.6433,-3.7387,-3.8366,-3.927,-3.8919,-3.8341,-3.7789,-3.7236,-3.6684,-3.6132,-3.6279,-3.6782,-3.7638,-3.8241,-3.8642,-3.8919,-3.9396,-3.9697,-3.9697,-3.917,-3.8592,-3.8015,-3.7462,-3.6958,-3.6405,-3.6405,-3.6405,-3.6405,-3.6405,-3.6405,-3.6355,-3.5203,-3.468,-3.465,-3.352,-3.3111,-3.3111,-3.3111,-3.3111,-3.3111,-3.3111,-3.2491,-3.1612,-3.1085,-3.0407,-2.9804,-2.9804,-2.9804,-2.9804,-2.9804,-2.9804,-2.9804,-2.9804,-2.9804,-2.9804,-2.9804,-2.9804,-2.9804,-2.9804,-2.9935,-2.9988,-2.9781,-3.0139,-3.0315,-2.9754,-3.0183,-3.0513,-3.0179,-3.0654,-3.0925,-3.0511,-2.9788,-2.9205,-2.8996,-2.8368,-2.7974,-2.7974,-2.7735,-2.7585,-2.7585,-2.7195,-2.6982,-2.7099,-2.6695,-2.6416,-2.6293,-2.6283,-2.6039,-2.5579,-2.5907,-2.6078,-2.6078,-2.6374,-2.6652,-2.6866,-2.7099,-2.7081,-2.7324,-2.8027,-2.8897,-3.0983,-3.1291,-3.136,-3.2627,-3.3135,-3.322,-3.2676,-3.3162,-3.3446,-3.2914,-3.2889,-3.3464,-3.5065,-3.5887,-3.6937,-3.8642,-3.8417,-3.7889,-3.7337,-3.6857,-3.6282,-3.5683,-3.6132,-3.6707,-3.7186,-3.7713,-3.8266,-3.8894,-3.9396,-3.9672,-3.9647,-3.912,-3.8542,-3.7965,-3.7412,-3.6885,-3.6405,-3.6405,-3.6405,-3.6405,-3.6405,-3.638,-3.6304,-3.5177,-3.4655,-3.46,-3.352,-3.3111,-3.3111,-3.3111,-3.3111,-3.3111,-3.3111,-3.2717,-3.2139,-3.1612,-3.0733,-2.9829,-2.9804,-2.9804,-2.9804,-2.9804,-2.9804,-2.9804,-2.9804,-2.9804,-2.9804,-2.9804,-2.9804,-2.9804,-2.9804,-2.9804,-2.9654,-2.9063,-2.9597,-3.001,-2.9469,-2.9585,-2.975,-2.9816,-3.0051,-3.0238,-3.0238,-3.0396,-3.0315,-2.9714,-2.9056,-2.8637,-2.8607,-2.8034,-2.7645,-2.7585,-2.7585,-2.7315,-2.6716,-2.6632,-2.6572,-2.6425,-2.6416,-2.6318,-2.6172,-2.6213,-2.6213,-2.6213,-2.6254,-2.6573,-2.7222,-2.7798,-2.7757,-2.763,-2.8672,-2.9878,-3.0413,-3.1003,-3.1473,-3.1508,-3.1589,-3.1381,-3.0582,-3.0305,-2.9922,-2.9079,-2.9785,-3.108,-3.2886,-3.4556,-3.6431,-3.8592,-3.9094,-3.9069,-3.8517,-3.8366,-3.8015,-3.7437,-3.7513,-3.7638,-3.7789,-3.7914,-3.8266,-3.8894,-3.9396,-3.9496,-3.9094,-3.8517,-3.7965,-3.7387,-3.6883,-3.6556,-3.6405,-3.6405,-3.6405,-3.6405,-3.6405,-3.6132,-3.5705,-3.4981,-3.45,-3.4048,-3.337,-3.3111,-3.3111,-3.3111,-3.3111,-3.3111,-3.3111,-3.2717,-3.219,-3.2039,-3.1311,-3.0331,-2.993,-2.9804,-2.9804,-2.9804,-2.9804,-2.9804,-2.9804,-2.9804,-2.9804,-2.9804,-2.9804,-2.9804,-2.9804,-2.9804,-2.9754,-2.9603,-2.9745,-2.972,-2.9135,-2.8943,-2.906,-2.969,-2.9517,-2.9317,-2.9317,-2.9913,-3.0338,-3.0259,-2.9714,-2.9146,-2.8637,-2.8457,-2.8128,-2.7645,-2.7585,-2.7525,-2.7345,-2.7345,-2.712,-2.6579,-2.6548,-2.6287,-2.5758,-2.6152,-2.6371,-2.6339,-2.6746,-2.7009,-2.7201,-2.7368,-2.7347,-2.8672,-2.9629,-3.0449,-3.0254,-3.0322,-3.0282,-2.9705,-2.9542,-2.9139,-2.7981,-2.781,-2.7592,-2.6662,-2.7257,-2.858,-3.0504,-3.2604,-3.4629,-3.6429,-3.7421,-3.7746,-3.7028,-3.6924,-3.6709,-3.6108,-3.6275,-3.6395,-3.6395,-3.7639,-3.8517,-3.8894,-3.9396,-3.9546,-3.9245,-3.8442,-3.7638,-3.6883,-3.6556,-3.6405,-3.6405,-3.6405,-3.6405,-3.6405,-3.6405,-3.6056,-3.5458,-3.4906,-3.4399,-3.3847,-3.3294,-3.3111,-3.3111,-3.3111,-3.3111,-3.3111,-3.3111,-3.2867,-3.2516,-3.2014,-3.1461,-3.0859,-3.0331,-2.998,-2.9804,-2.9804,-2.9804,-2.9804,-2.9804,-2.9804,-2.9804,-2.9804,-2.9804,-2.9804,-2.9804,-2.9804,-2.9804,-2.9804,-2.9804,-2.9628,-2.9013,-2.8802,-2.8662,-2.872,-2.8725,-2.8725,-2.8454,-2.916,-2.9761,-2.981,-2.9922,-2.9834,-2.9475,-2.9205,-2.8757,-2.8094,-2.8034,-2.7914,-2.7615,-2.7585,-2.7435,-2.7046,-2.7046,-2.6722,-2.6063,-2.6334,-2.6497,-2.6497,-2.6795,-2.7077,-2.7387,-2.7659,-2.7637,-3.0,-3.0527,-3.0781,-3.0312,-2.9551,-2.8691,-2.7773,-2.74,-2.6801,-2.5381,-2.5572,-2.5706,-2.4859,-2.509,-2.6108,-2.8165,-3.0352,-3.2275,-3.363,-3.4872,-3.5364,-3.4625,-3.4531,-3.4352,-3.3874,-3.4263,-3.4531,-3.4531,-3.6968,-3.8486,-3.869,-3.8985,-3.908,-3.8931,-3.7915,-3.6874,-3.5858,-3.5858,-3.5953,-3.6121,-3.6121,-3.6216,-3.6405,-3.6405,-3.6031,-3.5357,-3.4881,-3.4374,-3.3746,-3.3269,-3.3111,-3.3068,-3.2896,-3.2939,-3.3068,-3.2896,-3.2939,-3.2943,-3.1772,-3.1389,-3.1286,-3.0708,-3.0181,-2.9804,-2.9804,-2.9804,-2.9804,-2.9804,-2.9804,-2.9804,-2.9804,-2.9804,-2.9804,-2.9804,-2.9804,-2.9804,-2.9804,-2.9804,-2.9654,-2.9113,-2.8938,-2.8587,-2.767,-2.8039,-2.8263,-2.7747,-2.8373,-2.8894,-2.8844,-2.9691,-3.03,-3.0324,-2.9876,-2.9364,-2.8786,-2.8637,-2.8338,-2.7764,-2.7645,-2.7585,-2.7585,-2.7585,-2.7315,-2.6722,-2.6722,-2.6722,-2.6722,-2.6722,-2.7046,-2.761,-2.8125,-2.8076,-3.0156,-3.0527,-3.0781,-3.0312,-2.9551,-2.8594,-2.7402,-2.5986,-2.4697,-2.3703,-2.3086,-2.2532,-2.201,-2.2832,-2.4347,-2.6532,-2.8506,-3.0668,-3.3414,-3.4381,-3.4863,-3.5109,-3.5154,-3.5131,-3.4987,-3.5109,-3.5154,-3.5154,-3.5645,-3.6479,-3.7652,-3.6657,-3.5688,-3.4841,-3.4171,-3.3599,-3.3005,-3.2982,-3.3601,-3.4727,-3.4727,-3.5331,-3.6405,-3.6405,-3.5805,-3.4806,-3.4731,-3.4148,-3.3219,-3.3162,-3.3111,-3.2982,-3.1952,-3.2196,-3.2982,-3.1909,-3.2196,-3.2914,-3.1646,-3.1314,-3.1235,-3.0256,-2.988,-2.9804,-2.9804,-2.9804,-2.9804,-2.9804,-2.9804,-2.9804,-2.9804,-2.9804,-2.9804,-2.9804,-2.9804,-2.9804,-2.9804,-2.9804,-2.9754,-2.9654,-2.9252,-2.8838,-2.8637,-2.8357,-2.7997,-2.7465,-2.8074,-2.8439,-2.7987,-2.8702,-2.9322,-2.9493,-2.9407,-2.9374,-2.9421,-2.8906,-2.8547,-2.8427,-2.7914,-2.7585,-2.7585,-2.7585,-2.7555,-2.7435,-2.7435,-2.7435,-2.7435,-2.7435,-2.7495,-2.7585,-2.771,-2.7685,-3.0488,-3.0723,-3.0723,-3.0039,-2.9062,-2.7871,-2.6348,-2.4824,-2.3413,-2.2321,-2.1795,-2.1406,-2.0977,-2.1582,-2.2712,-2.4439,-2.6222,-2.8195,-3.0307,-3.1655,-3.2459,-3.2595,-3.2895,-3.2985,-3.2985,-3.2985,-3.2985,-3.2985,-3.2985,-3.3979,-3.6217,-3.5672,-3.484,-3.3832,-3.3533,-3.3041,-3.228,-3.228,-3.2632,-3.3304,-3.3304,-3.365,-3.4289,-3.4289,-3.3837,-3.3031,-3.2817,-3.2248,-3.1468,-3.1252,-3.1178,-3.1089,-3.0485,-3.0643,-3.1089,-3.0508,-3.0643,-3.1066,-3.0138,-2.9919,-2.9763,-2.8745,-2.901,-2.9804,-2.9804,-2.9804,-2.9804,-2.9804,-2.9804,-2.9804,-2.9804,-2.9804,-2.9804,-2.9804,-2.9804,-2.9804,-2.9804,-2.9804,-2.9804,-2.9804,-2.9578,-2.9277,-2.8938,-2.8662,-2.8348,-2.7795,-2.7809,-2.7781,-2.7524,-2.7613,-2.8061,-2.9049,-2.9116,-2.9041,-2.877,-2.8911,-2.8502,-2.742,-2.783,-2.7794,-2.7049,-2.7408,-2.7585,-2.7585,-2.7585,-2.7585,-2.7585,-2.7585,-2.7585,-2.7585,-2.7585,-2.7585,-3.0644,-3.082,-3.0684,-2.9785,-2.8667,-2.7258,-2.5517,-2.4004,-2.2633,-2.1444,-2.1112,-2.0977,-2.0664,-2.0937,-2.1619,-2.2886,-2.4381,-2.5941,-2.7491,-2.8935,-2.9949,-3.0152,-3.0605,-3.0898,-3.0898,-3.0898,-3.0898,-3.0898,-3.0898,-3.1883,-3.4258,-3.4626,-3.4285,-3.3083,-3.2974,-3.2441,-3.1592,-3.1483,-3.1571,-3.1876,-3.1876,-3.2028,-3.228,-3.228,-3.2012,-3.1471,-3.1099,-3.0558,-2.9996,-2.9551,-2.9396,-2.935,-2.9143,-2.9166,-2.935,-2.9096,-2.9189,-2.9305,-2.8608,-2.8499,-2.8411,-2.737,-2.8013,-2.9199,-2.9116,-2.9091,-2.9131,-2.9365,-2.9443,-2.9482,-2.974,-2.9804,-2.9804,-2.9804,-2.9804,-2.9804,-2.9804,-2.9804,-2.9804,-2.9804,-2.9804,-2.9654,-2.9164,-2.9063,-2.8925,-2.8373,-2.7921,-2.7544,-2.7318,-2.6927,-2.7122,-2.8357,-2.862,-2.8588,-2.8247,-2.8691,-2.8331,-2.6679,-2.7622,-2.7715,-2.6485,-2.6989,-2.7321,-2.7357,-2.7357,-2.7433,-2.7585,-2.7585,-2.7585,-2.7585,-2.7585,-2.7585,-3.0254,-3.0566,-3.0684,-2.9785,-2.8667,-2.7258,-2.5517,-2.3769,-2.2324,-2.1385,-2.0918,-2.0644,-2.0605,-2.0937,-2.1619,-2.2886,-2.3585,-2.4827,-2.7356,-2.8133,-2.8913,-3.0039,-3.0605,-3.0898,-3.0898,-3.0898,-3.0898,-3.0898,-3.0898,-3.0995,-3.1286,-3.2587,-3.2452,-3.0591,-3.0194,-2.9758,-2.9228,-2.8832,-2.9303,-3.0463,-3.0463,-3.1111,-3.228,-3.228,-3.2012,-3.1471,-3.1099,-3.0558,-2.9996,-2.9551,-2.9396,-2.928,-2.8168,-2.8448,-2.928,-2.819,-2.8448,-2.9258,-2.8079,-2.8101,-2.8388,-2.7126,-2.7019,-2.7295,-2.6907,-2.6812,-2.7017,-2.7964,-2.8267,-2.8505,-2.9521,-2.9804,-2.9804,-2.9804,-2.9804,-2.9804,-2.9804,-2.9804,-2.9804,-2.9804,-2.9804,-2.9779,-2.9729,-2.9704,-2.9528,-2.8913,-2.8762,-2.8423,-2.7419,-2.7278,-2.7087,-2.6764,-2.7397,-2.8109,-2.8856,-2.8422,-2.8063,-2.7861,-2.74,-2.6879,-2.624,-2.6298,-2.6413,-2.6604,-2.6575,-2.6945,-2.7585,-2.7585,-2.7585,-2.7585,-2.7585,-2.7585,-2.998,-3.0527,-3.0684,-2.9785,-2.8418,-2.6816,-2.5078,-2.3359,-2.1894,-2.1016,-2.0723,-2.0605,-2.0605,-2.0742,-2.1172,-2.2207,-2.2519,-2.3359,-2.543,-2.6074,-2.7012,-2.8828,-2.9434,-3.0019,-3.082,-3.0898,-3.0898,-3.0898,-3.0898,-3.0898,-3.0898,-3.1441,-3.1279,-3.0215,-2.9785,-2.9355,-2.8926,-2.8496,-2.8548,-2.9112,-2.9112,-2.9355,-2.9911,-2.9911,-2.9756,-2.957,-2.9136,-2.8661,-2.8157,-2.7751,-2.7421,-2.7125,-2.6668,-2.6744,-2.7125,-2.662,-2.6744,-2.7105,-2.662,-2.6642,-2.6748,-2.5966,-2.5828,-2.6014,-2.6666,-2.6867,-2.6883,-2.7085,-2.7116,-2.7238,-2.7706,-2.7787,-2.7787,-2.7787,-2.8331,-2.8767,-2.8767,-2.9326,-2.9804,-2.9804,-2.9804,-2.9804,-2.9804,-2.9804,-2.9704,-2.9478,-2.9113,-2.8737,-2.8323,-2.7695,-2.7228,-2.7002,-2.6985,-2.7129,-2.7471,-2.7688,-2.7461,-2.6634,-2.7224,-2.696,-2.5593,-2.6276,-2.6573,-2.633,-2.6302,-2.6468,-2.6771,-2.6427,-2.6254,-2.6281,-2.6733,-2.6945,-2.9199,-2.9961,-3.0293,-2.9414,-2.8008,-2.6367,-2.4629,-2.3008,-2.1641,-2.0781,-2.0605,-2.0605,-2.0605,-2.0605,-2.086,-2.1562,-2.1797,-2.2441,-2.4004,-2.4707,-2.5771,-2.7519,-2.8105,-2.8867,-3.0176,-3.0664,-3.0898,-3.0898,-3.0898,-3.0898,-3.0898,-3.0898,-3.0742,-3.041,-2.9863,-2.9414,-2.9121,-2.8574,-2.8301,-2.8301,-2.8301,-2.8301,-2.8301,-2.8301,-2.8301,-2.8262,-2.7851,-2.7422,-2.6973,-2.6562,-2.6133,-2.5693,-2.5693,-2.5693,-2.5693,-2.5693,-2.5693,-2.5693,-2.5693,-2.5693,-2.5635,-2.5371,-2.5273,-2.5449,-2.6264,-2.6302,-2.6152,-2.6167,-2.6346,-2.6524,-2.6524,-2.6524,-2.6524,-2.6524,-2.7075,-2.7643,-2.7643,-2.8251,-2.8831,-2.8831,-2.8831,-2.8831,-2.8831,-2.9067,-2.9287,-2.9287,-2.9236,-2.9088,-2.8913,-2.8247,-2.7645,-2.7318,-2.6977,-2.6675,-2.6499,-2.7027,-2.6915,-2.5954,-2.6935,-2.687,-2.5304,-2.6114,-2.6432,-2.6133,-2.6106,-2.6224,-2.6428,-2.5907,-2.5715,-2.588,-2.6102,-2.6176,-2.7748,-2.8667,-2.9375,-2.8516,-2.7344,-2.5937,-2.4199,-2.2812,-2.1641,-2.0781,-2.0605,-2.0605,-2.0605,-2.0605,-2.0723,-2.1132,-2.1602,-2.2344,-2.3613,-2.4531,-2.5458,-2.6309,-2.6777,-2.7539,-2.8809,-3.0117,-3.0898,-3.0898,-3.0898,-3.0898,-3.0898,-3.0898,-3.0898,-3.0879,-3.0019,-2.9626,-2.957,-2.8711,-2.8301,-2.8301,-2.8301,-2.8301,-2.8301,-2.8301,-2.8301,-2.8262,-2.7851,-2.7422,-2.6973,-2.6562,-2.6133,-2.5693,-2.5693,-2.5693,-2.5693,-2.5693,-2.5693,-2.5693,-2.5693,-2.5693,-2.5693,-2.5693,-2.5674,-2.5644,-2.5243,-2.4499,-2.4038,-2.5106,-2.5936,-2.6524,-2.6524,-2.6524,-2.6524,-2.6524,-2.6524,-2.6524,-2.6524,-2.6524,-2.6524,-2.6524,-2.6524,-2.6524,-2.6524,-2.74,-2.8124,-2.8124,-2.9067,-2.9578,-2.8963,-2.8888,-2.8499,-2.7394,-2.7304,-2.7077,-2.6549,-2.6499,-2.6499,-2.6474,-2.6508,-2.6223,-2.5611,-2.5619,-2.5702,-2.5906,-2.5906,-2.6249,-2.7003,-2.6455,-2.6455,-2.6948,-2.5908,-2.5412,-2.6543,-2.7305,-2.7695,-2.7129,-2.623,-2.5165,-2.3736,-2.2598,-2.1641,-2.0781,-2.0605,-2.0605,-2.0605,-2.0605,-2.0938,-2.1934,-2.1992,-2.2324,-2.3613,-2.4277,-2.5176,-2.6641,-2.8496,-2.9824,-3.0234,-3.0644,-3.0898,-3.0898,-3.0898,-3.0898,-3.0898,-3.0898,-3.0742,-3.043,-2.9863,-2.9434,-2.9121,-2.8574,-2.8301,-2.8301,-2.8301,-2.8301,-2.8301,-2.8301,-2.8301,-2.8281,-2.8144,-2.7851,-2.7441,-2.7324,-2.6836,-2.6191,-2.6191,-2.5996,-2.5693,-2.5693,-2.5693,-2.5693,-2.5693,-2.5693,-2.5693,-2.5693,-2.5693,-2.5654,-2.5566,-2.4922,-2.4147,-2.3894,-2.4008,-2.4188,-2.4188,-2.4188,-2.4188,-2.4188,-2.4766,-2.5336,-2.5336,-2.5922,-2.6524,-2.6524,-2.6524,-2.6524,-2.6524,-2.6771,-2.6994,-2.6994,-2.7302,-2.7498,-2.7272,-2.6906,-2.6519,-2.6194,-2.6514,-2.6688,-2.6506,-2.6499,-2.6499,-2.6499,-2.6499,-2.6223,-2.5611,-2.6021,-2.6047,-2.5702,-2.5702,-2.5832,-2.6033,-2.549,-2.5589,-2.6249,-2.5902,-2.6013,-2.5254,-2.6074,-2.6426,-2.5996,-2.5234,-2.4343,-2.3184,-2.2246,-2.1445,-2.0742,-2.0605,-2.0605,-2.0605,-2.0294,-2.0267,-2.1047,-2.0843,-2.1014,-2.2258,-2.3195,-2.4459,-2.6532,-2.8769,-2.9909,-2.9317,-2.9696,-2.9962,-2.9962,-2.9962,-3.0216,-3.0879,-3.0898,-3.0684,-3.0215,-2.9785,-2.9434,-2.916,-2.8594,-2.8301,-2.8301,-2.8301,-2.8301,-2.8301,-2.8301,-2.8301,-2.8301,-2.8301,-2.8047,0.0,-2.7728,-2.7297,-2.6602,-2.6445,-2.623,-2.5957,-2.5752,-2.5693,-2.5693,-2.5693,-2.5693,-2.5693,-2.5693,-2.5693,-2.5654,-2.5527,-2.5098,-2.4492,-2.3633,-2.3335,-2.3296,-2.314,-2.3101,-2.3101,-2.3101,-2.3627,-2.4168,-2.4168,-2.4723,-2.5231,-2.5231,-2.5231,-2.5231,-2.5231,-2.5546,-2.5839,-2.5839,-2.6213,-2.6524,-2.6524,-2.6151,-2.5842,-2.5623,-2.5926,-2.6074,-2.5877,-2.6445,-2.6725,-2.6499,-2.6499,-2.6323,-2.5971,-2.6298,-2.6323,-2.5971,-2.5912,-2.5912,-2.5912,-2.5586,-2.547,-2.549,-2.5696,-2.5897,0.0,-2.4683,-2.5304,-2.4847,-2.4147,-2.3349,-2.2574,-2.1714,0.0,-2.0566,-2.0566,-2.0566,-2.0449,-1.9627,-1.8993,-1.8985,-1.8665,-1.8827,-2.0007,-2.1617,-2.3565,-2.5994,-2.7728,-2.8086,-2.6616,-2.7544,-2.823,-2.823,-2.823,-2.892,-3.045,-3.0528,-3.0316,-2.9891,-2.9503,-2.9383,-2.9531,-2.873,-2.832,-2.8301,-2.8301,-2.8301,-2.8301,-2.8301,-2.8301,-2.8301,-2.8301,-2.8066,-2.7767,-2.7767,-2.7461,-2.7012,-2.6602,-2.6426,-2.6328,-2.5849,-2.5693,-2.5693,-2.5693,-2.5693,-2.5693,-2.5693,-2.5693,-2.5615,-2.5234,-2.5145,-2.4949,-2.4062,-2.3809,-2.3691,-2.3257,-2.312,-2.3101,-2.3101,-2.3101,-2.3101,-2.3101,-2.3101,-2.3101,-2.3101,-2.3101,-2.3101,-2.3101,-2.3973,-2.466,-2.466,-2.5588,-2.6276,-2.6276,-2.6276,-2.6057,-2.5488,-2.5484,-2.5325,-2.4797,-2.6208,-2.6916,-2.6367,-2.6342,-2.6317,-2.6267,-2.6267,-2.6302,-2.6396,-2.6465,-2.6465,-2.6396,-2.6465,-2.5971,-2.4926,-2.5435,-2.541,-1.9844,0.0,-2.2582,-2.1609,-2.1207,-2.1118,0.0,-2.0699,-1.985,-1.9445,-2.004,-2.0175,-1.8743,-1.8753,-1.9021,-1.9085,-1.8705,-1.8792,-1.9985,-2.1828,-2.36,-2.5108,-2.611,-2.6559,-2.6142,-2.6378,-2.6591,-2.6591,-2.6591,-2.6712,-2.7134,-2.7134,-2.7099,-2.6996,-2.6358,-2.696,-2.9027,-2.8867,-2.8613,-2.8301,-2.8301,-2.8301,-2.8301,-2.8301,-2.8301,-2.8301,-2.8301,-2.8242,-2.8144,-2.8144,-2.7891,-2.748,-2.7031,-2.668,-2.6328,-2.5849,-2.5693,-2.5693,-2.5693,-2.5693,-2.5693,-2.5693,-2.5693,-2.5674,-2.5557,-2.5332,-2.5008,-2.4414,-2.4043,-2.3769,-2.3672,-2.3379,-2.3101,-2.3101,-2.3101,-2.3101,-2.3101,-2.3101,-2.3101,-2.3101,-2.3101,-2.3101,-2.3101,-2.3299,-2.3517,-2.3517,-2.3714,-2.3887,-2.3887,-2.3887,-2.3846,-2.3702,-2.4471,-2.4785,-2.4216,-2.4937,-2.521,-2.4765,-2.4719,-2.4595,-2.424,-2.4217,-2.4564,-2.5335,-2.6094,-2.6129,-2.5335,-2.6129,-2.6373,-2.6122,-2.6223,-2.6223,-1.7504,-1.8931,-2.0461,-1.9842,-1.9531,-1.9466,-1.9835,-1.9206,-1.8481,-1.8273,-1.8678,-1.8772,-1.7763,-1.7639,-1.768,-1.7711,-1.7441,-1.7949,-2.0059,-2.2014,-2.3645,-2.4935,-2.5638,-2.568,-2.4962,-2.4901,-2.4901,-2.4901,-2.4901,-2.5192,-2.5984,-2.5984,-2.5984,-2.5984,-2.5499,-2.5792,-2.7024,-2.6717,-2.6427,-2.6227,-2.6227,-2.6227,-2.6227,-2.6227,-2.6227,-2.6282,-2.7006,-2.7276,-2.733,-2.8014,-2.8164,-2.791,-2.748,-2.7051,-2.6621,-2.6191,-2.5849,-2.5693,-2.5693,-2.5693,-2.5693,-2.5693,-2.5693,-2.5693,-2.5693,-2.5566,-2.5273,-2.4844,-2.4551,-2.4277,-2.3887,-2.3613,-2.3379,-2.314,-2.3101,-2.3101,-2.3101,-2.3101,-2.3101,-2.3101,-2.3101,-2.3101,-2.3101,-2.3101,-2.3101,-2.3101,-2.3101,-2.3101,-2.3101,-2.3101,-2.3101,-2.3101,-2.3627,-2.3915,-2.3606,-2.3846,-2.4164,-2.4453,-2.4486,-2.4352,-2.4122,-2.3936,-2.3971,-2.4312,-2.485,-2.485,-2.4312,-2.485,-2.5134,-2.5134,-2.5134,-2.5134,-1.601,-1.7023,-1.8536,-1.8599,-1.8387,-1.8148,-1.8321,-1.7728,-1.7131,-1.7131,-1.7253,-1.727,-1.7006,-1.658,-1.6196,-1.6126,-1.61,-1.7095,-2.0003,-2.172,-2.3167,-2.4444,-2.4968,-2.4717,-2.3325,-2.3201,-2.3201,-2.3201,-2.3201,-2.3807,-2.5192,-2.5253,-2.5253,-2.5253,-2.4976,-2.4654,-2.429,-2.404,-2.3904,-2.3904,-2.3799,-2.3822,-2.3822,-2.3822,-2.3822,-2.3877,-2.5151,0.0,-2.5882,-2.733,-2.796,-2.7975,-2.7779,-2.7318,-2.6673,-2.6241,-2.5687,-2.5164,-2.5088,-2.5069,-2.5069,-2.5069,-2.5216,-2.5382,-2.5382,-2.5528,-2.5615,-2.5034,-2.4975,-2.4949,-2.418,-2.3887,-2.3691,-2.3276,-2.314,-2.3101,-2.3101,-2.3101,-2.3101,-2.3101,-2.3101,-2.3101,-2.3101,-2.3101,-2.3101,-2.3101,-2.3101,-2.3101,-2.3101,-2.3101,-2.3101,-2.3101,-2.3101,-2.3101,-2.3101,-2.3101,-2.3521,-2.4458,-2.4469,-2.4443,-2.4377,-2.4178,-2.3797,-2.3266,-2.3475,-2.3527,-2.3379,-2.3438,-2.3526,-2.3526,-2.3526,-2.3534,-1.5198,-1.5549,-1.6077,-1.6473,-1.672,-1.7106,-1.8035,-1.7243,-1.6269,-1.6269,-1.7043,-1.7223,-1.5644,-1.6195,-1.6752,-1.634,-1.6891,-1.7781,-1.8984,-1.9825,-2.0607,-2.1313,-2.1659,-2.179,-2.1475,-2.1475,-2.1475,-2.1475,-2.1475,-2.1601,-2.1839,-2.1839,-2.1839,-2.1839,-2.161,-2.143,-2.1327,-2.3372,-2.4341,-2.4227,-2.3914,-2.3822,-2.3822,-2.3822,-2.3822,-2.3822,0.0,-2.4156,-2.4267,-2.5827,-2.6445,-2.6517,-2.7391,-2.6845,-2.5534,-2.4856,-2.3783,-2.2604,-2.2367,-2.2316,-2.2316,-2.2316,-2.3067,-2.3998,-2.3998,-2.4824,-2.546,-2.427,-2.4495,-2.5086,-2.4949,-2.4336,-2.3769,-2.3711,-2.3398,-2.3101,-2.3101,-2.3101,-2.3101,-2.3101,-2.3101,-2.3101,-2.3101,-2.3101,-2.3101,-2.3101,-2.3101,-2.3101,-2.3101,-2.3101,-2.3101,-2.3101,-2.3101,-2.3101,-2.3101,-2.3101,-2.3153,-2.3361,-2.3046,-2.2687,-2.2369,-2.3039,-2.3057,-2.2149,-2.3419,-2.3661,-2.2819,-2.3282,-2.3526,-2.3526,-2.3526,-2.3713,-1.462,-1.4816,-1.5273,-1.5631,-1.5948,-1.6281,-1.6593,-1.6094,-1.5528,-1.5528,-1.5908,-1.6009,-1.516,-1.5906,-1.6836,-1.7392,-1.7809,-1.8437,-1.9479,-1.9867,-2.0254,-2.0842,-2.1029,-2.1109,-2.1109,-2.1109,-2.1109,-2.1109,-2.1109,-2.1109,-2.1109,-2.1109,-2.1109,-2.1109,-2.0828,-2.0681,-2.0681,-2.1548,-2.1919,-2.1861,-2.1593,-2.143,-2.143,-2.143,-2.143,-2.1487,0.0,-2.2589,-2.2702,-2.4267,-2.4875,-2.4913,-2.5413,-2.5056,-2.4113,-2.3358,-2.267,-2.2067,-2.1775,-2.1693,-2.1693,-2.1693,-2.2114,-2.2617,-2.2617,-2.3067,-2.3434,-2.2767,-2.395,-2.5015,-2.3335,-2.3103,-2.3121,-2.2182,-2.2162,-2.2205,-2.1536,-2.1797,-2.2138,-2.212,-2.212,-2.2359,-2.2994,-2.3101,-2.3101,-2.3101,-2.3101,-2.3101,-2.3101,-2.3101,-2.3101,-2.3101,-2.3101,-2.3101,-2.3101,-2.3101,-2.3101,-2.3101,-2.2906,-2.2656,-2.2246,-2.2647,-2.2569,-2.1936,-2.2574,-2.2608,-2.1908,-2.2402,-2.2494,-2.2244,-2.2494,-2.2743,-1.4496,-1.4713,-1.5075,-1.5324,-1.5565,-1.5738,-1.5792,-1.5471,-1.5276,-1.5477,-1.5464,-1.541,-1.541,-1.6099,-1.7101,-1.8384,-1.8704,-1.9158,-2.0187,-2.0334,-2.0535,-2.1042,-2.1109,-2.1109,-2.1109,-2.1109,-2.1109,-2.1109,-2.1109,-2.1109,-2.1109,-2.1109,-2.1109,-2.1109,-2.0895,-2.0775,-2.0775,-2.0201,-1.9867,-1.98,-1.9506,-1.943,-1.943,-1.943,-1.943,-1.9475,-2.0587,-2.1088,-2.1202,-2.2702,-2.3263,-2.3319,-2.3654,-2.3386,-2.2628,-2.167,-2.1311,-2.1202,-2.0944,-2.0818,-2.0802,-2.0759,-2.0931,-2.1186,-2.1186,-2.144,-2.1643,-2.1288,-2.2918,-2.4221,-2.181,-2.1872,-2.2223,-2.0865,-2.1009,-2.1188,-2.0135,-2.0457,-2.0933,-2.0917,-2.0881,-2.1168,-2.2094,-2.2271,-2.2359,-2.2643,-2.2687,-2.2775,-2.3057,-2.3101,-2.3101,-2.3101,-2.3101,-2.3101,-2.3101,-2.3101,-2.3101,-2.3101,-2.3101,-2.2945,-2.2676,-2.2656,-2.25,-2.2187,-2.209,-2.1875,-2.1502,-2.1777,-2.1719,-2.1346,-2.1738,-2.1934,-1.5244,-1.5182,-1.5075,-1.5324,-1.5404,-1.5712,-1.6831,-1.6366,-1.6005,-1.6871,-1.6767,-1.658,-1.658,-1.7315,-1.8075,-1.8784,-1.9345,-1.992,-2.0561,-2.0641,-2.0762,-2.1069,-2.1109,-2.1109,-2.1109,-2.1109,-2.1109,-2.1109,-2.1109,-2.1109,-2.1109,-2.1109,-2.1109,-2.1109,-2.1082,-2.1082,-2.1082,-2.0494,-2.0067,-1.98,-1.9506,-1.943,-1.943,-1.943,-1.943,-1.943,-1.9533,-1.9533,-1.9649,-2.1145,-2.1756,-2.187,-2.3263,-2.2776,-2.1148,-1.9696,-1.8957,-1.8741,-1.8374,-1.8279,-1.8225,-1.7979,-1.876,-1.9731,-1.9731,-2.0641,-2.144,-2.0128,-2.0845,-2.1946,-2.1711,-2.1412,-2.1098,-2.0966,-2.0736,-2.039,-1.9997,-1.9961,-1.9939,-1.97,-1.9633,-1.9679,-1.9724,-1.977,-2.0133,-2.1248,-2.1454,-2.1836,-2.295,-2.3101,-2.3101,-2.3101,-2.3101,-2.3101,-2.3101,-2.3101,-2.3101,-2.3101,-2.3101,-2.3081,-2.3042,-2.3042,-2.3042,-2.3003,-2.2676,-2.2441,-2.2422,-2.207,-2.1875,-2.1836,-2.1875,-2.209,-1.487,-1.5044,-1.5257,-1.5364,-1.5671,-1.6059,-1.6549,-1.6683,-1.6847,-1.7555,-1.7769,-1.7822,-1.7822,-1.809,-1.8571,-1.9345,-1.98,-2.0281,-2.0869,-2.0949,-2.0989,-2.1096,-2.1109,-2.1109,-2.1109,-2.1109,-2.1109,-2.1109,-2.1109,-2.1109,-2.1109,-2.1109,-2.1109,-2.1109,-2.1109,-2.1029,-2.0842,-2.0441,-2.0094,-1.98,-1.9506,-1.943,-1.943,-1.943,-1.943,-1.943,-1.943,-1.943,-1.943,-1.9982,-2.0256,-2.0314,-2.0873,-2.063,-2.0003,-1.9212,-1.8851,-1.8718,-1.8424,-1.8142,-1.7969,-1.7862,-1.81,-1.8356,-1.8356,-1.8708,-1.9057,-1.8499,-1.876,-1.9161,-1.9161,-1.9626,-1.9944,-1.9074,-1.9244,-1.9308,-1.8394,-1.8645,-1.8997,-1.8922,-1.8891,-1.9051,-1.9627,-1.9734,-1.9836,-2.0121,-2.0178,-2.0359,-2.0809,-2.0854,-2.0854,-2.0854,-2.0854,-2.1168,-2.1943,-2.1302,-2.1168,-2.1943,-2.2668,-2.3101,-2.3101,-2.3101,-2.3101,-2.3101,-2.2945,-2.273,-2.2519,-2.2617,-2.2539,-2.2285,-2.2539,-2.2711,-1.4736,-1.495,-1.5284,-1.5378,-1.5832,-1.6366,-1.674,-1.7141,-1.7649,-1.8382,-1.8611,-1.8624,-1.8624,-1.8624,-1.8891,-1.9666,-2.012,-2.0548,-2.1042,-2.1109,-2.1109,-2.1109,-2.1109,-2.1109,-2.1109,-2.1109,-2.1109,-2.1109,-2.1109,-2.1109,-2.1109,-2.1109,-2.1109,-2.1109,-2.1109,-2.1015,-2.0815,-2.0428,-2.0134,-1.9933,-1.9546,-1.943,-1.943,-1.943,-1.943,-1.943,-1.943,-1.943,-1.943,-1.943,-1.943,-1.943,-1.943,-1.943,-1.9345,-1.9132,-1.9065,-1.9025,-1.8731,-1.849,-1.8249,-1.8223,-1.805,-1.7849,-1.7756,-1.7729,-1.7702,-1.7609,-1.7582,-1.7582,-1.7582,-1.8304,-1.876,-1.7845,-1.8099,-1.8315,-1.7425,-1.7691,-1.8046,-1.7945,-1.7916,-1.814,-1.8776,-1.8874,-1.8987,-1.9129,-1.9095,-1.9201,-1.957,-1.9563,-1.9497,-1.9497,-1.9497,-1.9844,-2.0657,-1.998,-1.9844,-2.0657,-2.1498,-2.2315,-2.3057,-2.2731,-2.2731,-2.3101,-2.3101,-2.2945,-2.2672,-2.2964,-2.2945,-2.2715,-2.2964,-2.3101,-1.5089,-1.5008,-1.5089,-1.5337,-1.5845,-1.6593,-1.7756,-1.7982,-1.8342,-1.9573,-1.9345,-1.8945,-1.8931,-1.8931,-1.9132,-1.9706,-2.0294,-2.0775,-2.1069,-2.1109,-2.1109,-2.1109,-2.1109,-2.1109,-2.1109,-2.1109,-2.1109,-2.1109,-2.1109,-2.1109,-2.1109,-2.1109,-2.1109,-2.1109,-2.1109,-2.1109,-2.1109,-2.0521,-2.018,-2.0167,-1.9653,-1.943,-1.943,-1.943,-1.943,-1.943,-1.943,-1.943,-1.943,-1.943,-1.943,-1.943,-1.943,-1.943,-1.943,-1.943,-1.943,-1.9332,-1.9025,-1.8931,-1.8878,-1.8584,-1.849,-1.8437,-1.8089,-1.7995,-1.7929,-1.7675,-1.7582,-1.7582,-1.7582,-1.7582,-1.7582,-1.7582,-1.7582,-1.7554,-1.7259,-1.7206,-1.7125,-1.6767,-1.6714,-1.6714,-1.6714,-1.6714,-1.71,-1.8311,-1.8241,-1.8497,-1.9696,-1.9619,-1.9497,-1.9497,-1.9497,-1.9497,-1.9497,-1.9497,-1.9497,-1.9497,-1.9497,-2.0539,-2.295,-2.1943,-2.1854,-2.3057,-2.3101,-2.3101,-2.3101,-2.3101,-2.3101,-2.3101,-2.3101,-2.3101,-1.5035,-1.5156,-1.5391,-1.5885,-1.6767,-1.7716,-1.8477,-1.8824,-1.9305,-2.0481,-2.0414,-2.0094,-1.988,-1.978,-1.9847,-2.008,-2.0428,-2.0775,-2.1069,-2.1109,-2.1109,-2.1109,-2.1109,-2.1109,-2.1109,-2.1109,-2.1109,-2.1109,-2.1109,-2.1109,-2.1109,-2.1109,-2.1109,-2.1109,-2.1109,-2.1109,-2.1109,-2.0735,-2.0441,-2.0227,-1.9853,-1.9559,-1.943,-1.943,-1.943,-1.943,-1.943,-1.943,-1.943,-1.943,-1.943,-1.943,-1.943,-1.943,-1.943,-1.943,-1.943,-1.9417,-1.9265,-1.9092,-1.8905,-1.8824,-1.8651,-1.8477,-1.8384,-1.8357,-1.829,-1.7996,-1.7849,-1.7862,-1.7635,-1.7582,-1.7582,-1.7582,-1.7582,-1.7555,-1.7475,-1.7501,-1.7422,-1.7341,-1.7328,-1.7261,-1.7099,-1.7072,-1.7093,-1.7227,-1.7167,-1.7176,-1.7341,-1.7075,-1.725,-1.8133,-1.7436,-1.725,-1.8133,-1.739,-1.7296,-1.818,-1.739,-1.7979,-2.0449,-2.0223,-2.0223,-2.0539,-2.1391,-2.1836,-2.1854,-2.2687,-2.3101,-2.3101,-2.3101,-2.3101,-1.3869,-1.4244,-1.4881,-1.498,-1.563,-1.6522,-1.7373,-1.8784,-2.012,-2.0935,-2.0788,-2.0481,-2.0414,-2.0307,-2.0267,-2.0388,-2.0655,-2.0909,-2.1082,-2.1109,-2.1109,-2.1109,-2.1109,-2.1109,-2.1109,-2.1109,-2.1109,-2.1109,-2.1109,-2.1109,-2.1109,-2.1109,-2.1109,-2.1109,-2.1109,-2.1109,-2.1109,-2.0815,-2.0535,-2.0227,-1.9933,-1.9653,-1.943,-1.943,-1.943,-1.943,-1.943,-1.943,-1.943,-1.943,-1.943,-1.943,-1.943,-1.943,-1.943,-1.943,-1.943,-1.943,-1.943,-1.9252,-1.9105,-1.9105,-1.8985,-1.8811,-1.8691,-1.8664,-1.8597,-1.8303,-1.8223,-1.8156,-1.7849,-1.7769,-1.7729,-1.7609,-1.7582,-1.7582,-1.7582,-1.7582,-1.7582,-1.7582,-1.7582,-1.7528,-1.7407,-1.738,-1.7313,-1.7088,-1.6954,-1.674,-1.6375,-1.6112,-1.6239,-1.6871,-1.6244,-1.6103,-1.6904,-1.6244,-1.6103,-1.6904,-1.6197,-1.6466,-1.7979,-1.8534,-1.8993,-1.9497,-2.0206,-2.0567,-2.0567,-2.1302,-2.1676,-2.1676,-2.1676,-2.1676,-1.2162,-1.2657,-1.3758,-1.3207,-1.3476,-1.4161,-1.5252,-1.7971,-2.0401,-2.079,-2.0557,-2.0401,-2.0668,-2.0494,-2.0401,-2.0668,-2.0935,-2.1109,-2.1109,-2.1109,-2.1109,-2.1109,-2.1109,-2.1109,-2.1109,-2.1109,-2.1109,-2.1109,-2.1109,-2.1109,-2.1109,-2.1109,-2.1109,-2.1109,-2.1109,-2.1046,-2.0843,-2.0628,-2.0213,-1.9728,-1.9501,-1.9227,-1.8952,-1.9243,-1.943,-1.943,-1.943,-1.943,-1.943,-1.943,-1.943,-1.943,-1.943,-1.943,-1.943,-1.943,-1.943,-1.943,-1.943,-1.943,-1.943,-1.943,-1.943,-1.9319,-1.9052,-1.8958,-1.8905,-1.8611,-1.8531,-1.8464,-1.8115,-1.8009,-1.7916,-1.7689,-1.7609,-1.7582,-1.7582,-1.7582,-1.7582,-1.7582,-1.7582,-1.7582,-1.7582,-1.7582,-1.7582,-1.7582,-1.7393,-1.7005,-1.6469,-1.6375,-1.6192,-1.5899,-1.5872,-1.5811,-1.5784,-1.5784,-1.5784,-1.5784,-1.5784,-1.5784,-1.5784,-1.6904,-1.8041,-1.9131,-1.9268,-1.936,-1.936,-1.9451,-1.9497,-1.9497,-1.9497,-1.9497,-1.1603,-1.193,-1.2567,-1.3362,-1.4331,-1.5212,-1.5687,-1.6358,-1.7343,-1.8756,-2.003,-2.0935,-2.1002,-2.0962,-2.0935,-2.1002,-2.1069,-2.1109,-2.1109,-2.1109,-2.1109,-2.1109,-2.1109,-2.1109,-2.1109,-2.1109,-2.1109,-2.1109,-2.1109,-2.1109,-2.1109,-2.1109,-2.1109,-2.1109,-2.1109,-2.0462,-1.9088,-1.8884,-1.7984,-1.636,-1.6132,-1.5905,-1.5736,-1.8227,-1.943,-1.943,-1.943,-1.943,-1.943,-1.943,-1.943,-1.943,-1.943,-1.943,-1.943,-1.943,-1.943,-1.943,-1.943,-1.943,-1.943,-1.943,-1.943,-1.9417,-1.9292,-1.9265,-1.9212,-1.8918,-1.8824,-1.8771,-1.8477,-1.8223,-1.7969,-1.7902,-1.7756,-1.7582,-1.7582,-1.7582,-1.7582,-1.7582,-1.7582,-1.7582,-1.7582,-1.7582,-1.7582,-1.7582,-1.7393,-1.7152,-1.7032,-1.6754,-1.65,-1.6206,-1.6179,-1.6086,-1.5798,-1.5784,-1.5784,-1.5784,-1.5784,-1.5784,-1.5784,-1.6055,-1.6339,-1.6608,-1.7591,-1.8102,-1.8102,-1.9039,-1.9497,-1.9497,-1.9497,-1.9497,-1.0075,-1.058,-1.1415,-1.1852,-1.2561,-1.3271,-1.3365,-1.4036,-1.4884,-1.5848,-1.7409,-1.864,-1.864,-1.9291,-1.9877,-1.9877,-2.0589,-2.1109,-2.1109,-2.1109,-2.1109,-2.1109,-2.0386,-2.0195,-2.1046,-2.0322,-2.0195,-2.1046,-2.0322,-1.9877,-1.9877,-1.9088,-1.864,-1.864,-1.864,-1.818,-1.7269,-1.7092,-1.6474,-1.5308,-1.5095,-1.4872,-1.4658,-1.6326,-1.7103,-1.7103,-1.7103,-1.7103,-1.7103,-1.7103,-1.7103,-1.7103,-1.7103,-1.7103,-1.722,-1.7981,-1.8227,-1.8344,-1.9127,-1.943,-1.943,-1.943,-1.943,-1.943,-1.943,-1.943,-1.9332,-1.9185,-1.9132,-1.9065,-1.8771,-1.8584,-1.8382,-1.829,-1.7916,-1.7582,-1.7582,-1.7582,-1.7582,-1.7582,-1.7582,-1.7582,-1.7582,-1.7582,-1.7582,-1.7582,-1.7501,-1.7367,-1.7219,-1.7058,-1.6804,-1.6375,-1.6321,-1.6152,-1.5811,-1.5784,-1.5784,-1.5784,-1.5784,-1.5784,-1.5784,-1.5784,-1.5784,-1.5784,-1.6433,-1.681,-1.681,-1.7436,-1.7701,-1.7701,-1.7701,-1.7701,-0.8302,-0.9064,-1.0327,-1.0072,-1.0365,-1.069,-1.0717,-1.1828,-1.2865,-1.2865,-1.4493,-1.5913,-1.5913,-1.7076,-1.8052,-1.8052,-1.9291,-2.0195,-2.0195,-2.0195,-2.0195,-2.0195,-1.896,-1.864,-2.0068,-1.8896,-1.864,-2.0068,-1.8896,-1.8052,-1.8052,-1.6689,-1.5913,-1.5913,-1.5913,-1.5764,-1.541,-1.5248,-1.4905,-1.439,-1.4179,-1.3997,-1.3765,-1.3765,-1.4063,-1.4599,-1.4599,-1.4599,-1.4599,-1.4599,-1.4599,-1.4599,-1.4599,-1.4599,-1.4777,-1.6079,-1.6609,-1.6786,-1.811,-1.859,-1.859,-1.859,-1.859,-1.859,-1.859,-1.859,-1.8648,-1.8894,-1.8765,-1.8597,-1.8594,-1.8319,-1.8045,-1.7815,-1.7354,-1.7011,-1.7238,-1.7239,-1.7147,-1.6882,-1.7041,-1.7199,-1.7199,-1.7424,-1.7582,-1.7582,-1.7582,-1.7502,-1.73,-1.7273,-1.7072,-1.6536,-1.6469,-1.6286,-1.5939,-1.5912,-1.5838,-1.5784,-1.5784,-1.5784,-1.5784,-1.5784,-1.5784,-1.5784,-1.5784,-1.5784,-1.5784,-1.5784,-1.5784,-1.5784,-1.5784,-1.5784,-0.7289,-0.8165,-0.9314,-0.9917,-1.029,-1.0555,-1.069,-1.085,-1.1049,-1.1049,-1.3643,-1.5913,-1.5913,-1.6108,-1.6237,-1.6237,-1.6431,-1.656,-1.656,-1.656,-1.656,-1.656,-1.6366,-1.6366,-1.656,-1.6366,-1.6366,-1.656,-1.6366,-1.6237,-1.6237,-1.6043,-1.5913,-1.5913,-1.5913,-1.5113,-1.3456,-1.3337,-1.2403,-1.0688,-1.0591,-1.0497,-1.0422,-1.0422,-1.1976,-1.4599,-1.4599,-1.4599,-1.4599,-1.4599,-1.4599,-1.4599,-1.4599,-1.4599,-1.4599,-1.4837,-1.4896,-1.4955,-1.5203,-1.5262,-1.5262,-1.5262,-1.5262,-1.5262,-1.5262,-1.5262,-1.5548,-1.6915,-1.6315,-1.5548,-1.6926,-1.6042,-1.4824,-1.4793,-1.4468,-1.4564,-1.5853,-1.5899,-1.5304,-1.4126,-1.4877,-1.5689,-1.5689,-1.6764,-1.7582,-1.7582,-1.7582,-1.7569,-1.7528,-1.7528,-1.7447,-1.7125,-1.7085,-1.6857,-1.6259,-1.6219,-1.6099,-1.5798,-1.5784,-1.5784,-1.5784,-1.5784,-1.5784,-1.5784,-1.5784,-1.5784,-1.5784,-1.5784,-1.5784,-1.5784,-1.5784,-1.5784,-0.7611,-0.8343,-0.904,-0.9761,-1.0148,-1.0412,-1.0561,-1.0656,-1.0717,-1.0717,-1.1894,-1.2997,-1.2997,-1.3774,-1.4428,-1.4428,-1.5265,-1.5913,-1.5913,-1.5913,-1.5913,-1.5913,-1.5005,-1.4819,-1.5784,-1.5005,-1.4874,-1.5848,-1.5005,-1.4428,-1.4428,-1.3521,-1.2997,-1.2997,-1.2898,-1.2483,-1.1637,-1.1389,-1.0805,-0.9862,-0.9849,-0.9822,-0.9822,-0.9822,-1.0543,-1.1916,-1.1916,-1.1916,-1.1916,-1.1916,-1.1916,-1.1916,-1.1916,-1.1916,-1.2037,-1.2928,-1.3228,-1.3407,-1.4302,-1.4599,-1.4599,-1.4599,-1.4599,-1.4599,-1.4599,-1.4599,-1.4718,-1.5488,-1.5133,-1.4777,-1.5488,-1.5049,-1.4565,-1.52,-1.4613,-1.4056,-1.4202,-1.4389,-1.4261,-1.3532,-1.3894,-1.4288,-1.4256,-1.5423,-1.6393,-1.6393,-1.7094,-1.7582,-1.7582,-1.7582,-1.7527,-1.7233,-1.7206,-1.7032,-1.6553,-1.6513,-1.646,-1.6326,-1.6166,-1.6072,-1.6072,-1.5912,-1.5784,-1.5784,-1.5784,-1.5784,-1.5784,-1.5784,-1.5784,-1.5784,-1.5784,-1.5784,-0.7822,-0.8316,-0.8703,-0.9429,-0.9856,-1.0154,-1.0337,-1.0527,-1.0663,-1.0663,-1.0697,-1.0717,-1.0717,-1.1762,-1.261,-1.261,-1.3709,-1.4558,-1.4558,-1.4558,-1.4558,-1.4558,-1.3456,-1.3128,-1.4428,-1.339,-1.3193,-1.4493,-1.339,-1.261,-1.261,-1.1439,-1.0704,-1.0663,-1.0555,-1.046,-1.0378,-1.012,-0.9869,-0.9822,-0.9822,-0.9842,-0.9876,-0.9836,-0.9842,-0.9876,-0.9836,-0.9822,-0.9822,-0.9822,-0.9822,-0.9822,-0.9822,-0.9822,-0.9937,-1.114,-1.1615,-1.1736,-1.2928,-1.3407,-1.3407,-1.3407,-1.3407,-1.3407,-1.3407,-1.3407,-1.3467,-1.3885,-1.3706,-1.3467,-1.3885,-1.3706,-1.3586,-1.4411,-1.3809,-1.3008,-1.2708,-1.2601,-1.2577,-1.2487,-1.2739,-1.2952,-1.2785,-1.3942,-1.4903,-1.4888,-1.5796,-1.6499,-1.6499,-1.6499,-1.6424,-1.6223,-1.6197,-1.6084,-1.5757,-1.5732,-1.5695,-1.5632,-1.5743,-1.58,-1.5722,-1.5866,-1.5912,-1.5784,-1.5784,-1.5784,-1.5784,-1.5784,-1.5784,-1.5784,-1.5784,-1.5784,-0.7255,-0.7543,-0.7882,-0.871,-0.9313,-0.972,-0.9943,-1.0297,-1.0507,-1.0507,-1.0616,-1.0717,-1.0717,-1.0784,-1.085,-1.085,-1.0916,-1.0982,-1.0982,-1.0982,-1.0982,-1.0982,-1.0916,-1.085,-1.0982,-1.0916,-1.085,-1.0982,-1.0916,-1.085,-1.085,-1.0717,-1.0656,-1.0507,-1.0493,-1.0358,-1.0011,-0.991,-0.9829,-0.9822,-0.9822,-0.9897,-0.997,-0.989,-0.9835,-0.997,-0.9883,-0.9822,-0.9822,-0.9822,-0.9822,-0.9822,-0.9822,-0.9822,-0.9822,-0.9883,-0.9943,-0.9943,-0.9997,-1.0058,-1.0058,-1.0058,-1.0058,-1.0058,-1.0058,-1.0058,-1.0361,-1.1916,-1.1261,-1.0422,-1.1916,-1.1201,-1.0058,-1.0119,-1.0051,-1.0328,-1.1355,-1.0532,-0.9606,-0.9599,-1.0674,-1.1574,-1.1444,-1.2636,-1.3572,-1.3403,-1.348,-1.3534,-1.3534,-1.3534,-1.3534,-1.3524,-1.3524,-1.3367,-1.3036,-1.3026,-1.2882,-1.2617,-1.3874,-1.4468,-1.4222,-1.555,-1.6112,-1.5832,-1.5784,-1.5784,-1.5784,-1.5784,-1.5784,-1.5784,-1.5784,-1.5784,-0.6987,-0.7339,-0.7746,-0.8357,-0.8913,-0.9395,-0.97,-1.0073,-1.0385,-1.0473,-1.0534,-1.0602,-1.0704,-1.0717,-1.0717,-1.0717,-1.0717,-1.0717,-1.0717,-1.0717,-1.0717,-1.0717,-1.0717,-1.0717,-1.0717,-1.0717,-1.0717,-1.0717,-1.0717,-1.0717,-1.0717,-1.0629,-1.0548,-1.0493,-1.031,-1.0107,-0.9842,-0.9849,-0.9822,-0.9822,-0.9822,-0.9849,-0.9903,-0.9883,-0.9936,-0.999,-1.0093,-1.0005,-0.9829,-0.9862,-0.991,-0.9829,-0.9869,-0.9903,-0.9903,-0.9903,-1.0032,-1.0114,-1.0114,-1.0053,-0.9923,-1.0086,-1.0046,-0.9923,-1.0086,-1.0114,-1.0239,-1.0794,-1.0551,-1.0218,-1.0663,-1.0334,-0.9883,-0.9842,-0.9822,-0.9909,-1.033,-1.0017,-0.9639,-0.9544,-0.9936,-1.0222,-1.0119,-1.1273,-1.2212,-1.214,-1.2904,-1.3432,-1.3432,-1.3355,-1.3318,-1.3318,-1.3318,-1.3234,-1.3153,-1.3143,-1.3059,-1.2979,-1.3257,-1.335,-1.3266,-1.3638,-1.3758,-1.3629,-1.3512,-1.4243,-1.5784,-1.5784,-1.5784,-1.5784,-1.5784,-1.5784,-0.6749,-0.7068,-0.7509,-0.8058,-0.8452,-0.8852,-0.9408,-0.9761,-1.0032,-1.0229,-1.0385,-1.0521,-1.0622,-1.0683,-1.0717,-1.0717,-1.0717,-1.0717,-1.0717,-1.0717,-1.0717,-1.0717,-1.0717,-1.0717,-1.0717,-1.0717,-1.0717,-1.0717,-1.0717,-1.0697,-1.0649,-1.0548,-1.0446,-1.0344,-1.0038,-0.9862,-0.9822,-0.9822,-0.9822,-0.9822,-0.9822,-0.9876,-0.9978,-0.9963,-1.0044,-1.0202,-1.0256,-1.0161,-0.9985,-1.0086,-1.0066,-0.9985,-1.0086,-1.0127,-1.0127,-1.0127,-1.0188,-1.0283,-1.0283,-1.0215,-1.0141,-1.0249,-1.0209,-1.0148,-1.0249,-1.0283,-1.0283,-1.0283,-1.0283,-1.0256,-1.0154,-1.0127,-1.0086,-0.993,-0.9835,-0.9883,-0.9829,-0.9822,-0.9795,-0.97,-0.968,-0.9632,-0.9483,-1.0259,-1.0867,-1.0813,-1.1558,-1.2093,-1.2093,-1.2033,-1.1981,-1.1909,-1.1909,-1.1882,-1.1819,-1.181,-1.181,-1.181,-1.2061,-1.2162,-1.2096,-1.2382,-1.2471,-1.2402,-1.2303,-1.3054,-1.4643,-1.499,-1.5391,-1.5784,-1.5784,-1.5784,0.0,0.0,0.0,-0.7779,-0.7853,-0.8072,-0.9103,-0.9347,-0.9435,-0.9747,-1.0161,-1.0466,-1.048,-1.0609,-1.0711,-1.0711,-1.0717,-1.0717,-1.0717,-1.0717,-1.0717,-1.0717,-1.0717,-1.0717,-1.0717,-1.0717,-1.0717,-1.0717,-1.0717,-1.0649,-1.05,-1.048,-1.0344,-0.999,-0.9897,-0.9822,-0.9822,-0.9822,-0.9822,-0.9829,-0.9829,-0.9985,-1.0276,-1.0127,-1.0222,-1.0487,-1.0351,-1.029,-1.029,-1.029,-1.0283,-1.0283,-1.0283,-1.029,-1.029,-1.029,-1.029,-1.029,-1.029,-1.029,-1.029,-1.029,-1.029,-1.029,-1.029,-1.029,-1.029,-1.029,-1.029,-1.029,-1.029,-1.0283,-1.0243,-1.0031,-0.9997,-0.9957,-0.9869,-0.9836,-0.9829,-0.9822,-0.9822,-0.9774,-0.9639,-0.9618,-0.9564,-0.9415,-0.9388,-0.9388,-0.9388,-0.9388,-0.932,-0.9228,-0.9207,-0.9096,-0.8898,-0.8885,-0.8885,-0.8885,-1.0241,-1.0916,-1.0634,-1.1947,-1.2578,-1.2319,-1.2309,-1.2309,-1.236,-1.3358,-1.4484,-1.5716,-1.5703,-1.5703,-0.6545,0.0,0.0,0.0,0.0,0.0,-0.8269,-0.8499,-0.8784,-0.9517,-0.968,-0.9822,-1.0256,-1.0371,-1.0399,-1.0399,-1.0582,-1.0717,-1.0717,-1.0717,-1.0717,-1.0717,-1.0717,-1.0717,-1.0717,-1.0717,-1.0717,-1.0717,-1.0616,-1.0534,-1.0493,-1.029,-1.0017,-0.989,-0.9842,-0.9822,-0.9822,-0.9822,-0.9876,-0.9923,-0.9923,-1.0086,-1.0283,-1.0344,-1.0412,-1.0493,-1.0568,-1.0602,-1.0588,-1.048,-1.0371,-1.029,-1.0392,-1.0432,-1.0432,-1.0432,-1.0507,-1.0602,-1.0602,-1.0527,-1.0453,-1.0561,-1.0521,-1.0453,-1.0568,-1.0602,-1.0602,-1.0602,-1.0602,-1.0575,-1.046,-1.0358,-1.027,-1.0229,-1.0215,-1.0202,-1.0161,-1.0154,-1.0086,-0.9863,-0.9822,-0.9808,-0.9768,-0.9761,-0.9747,-0.9707,-0.9612,-0.9544,-0.9544,-0.9449,-0.932,-0.9228,-0.9207,-0.9096,-0.8898,-0.8885,-0.8885,-0.8885,-0.9265,-0.9464,-0.9421,-0.9796,-0.993,-0.9884,-0.9762,-1.0171,-1.1177,-1.2301,-1.3021,-1.3323,-1.3248,-1.321,-0.6722,-0.6885,-0.7143,-0.7265,0.0,0.0,-0.8065,-0.8147,-0.8316,-0.9157,-0.9361,-0.951,-0.9924,-1.01,-1.0181,-1.0181,-1.0385,-1.0555,-1.0616,-1.0677,-1.0717,-1.0717,-1.0717,-1.0717,-1.0717,-1.0717,-1.0717,-1.0717,-1.0575,-1.0439,-1.031,-1.0017,-0.9849,-0.9822,-0.9822,-0.9849,-0.9856,-0.9856,-0.9992,-1.0148,-1.0148,-1.0222,-1.0371,-1.0453,-1.0527,-1.0595,-1.0683,-1.0717,-1.0711,-1.0622,-1.0541,-1.0473,-1.0555,-1.0588,-1.0588,-1.0588,-1.0643,-1.0717,-1.0717,-1.0663,-1.0602,-1.069,-1.0663,-1.0602,-1.0697,-1.0717,-1.0717,-1.0717,-1.0717,-1.0697,-1.0609,-1.0527,-1.0446,-1.0385,-1.0371,-1.0351,-1.029,-1.0283,-1.0209,-0.9964,-0.9856,-0.9897,-0.9829,-0.9822,-0.9822,-0.9822,-0.9747,-0.97,-0.97,-0.9618,-0.951,-0.9361,-0.934,-0.9286,-0.9137,-0.9123,-0.9096,-0.9028,-0.9028,-0.9001,-0.8885,-0.8885,-0.8885,-0.8885,-0.8797,-0.9186,-0.9931,-1.1046,-1.1836,-1.2402,-1.2313,-1.2254,-0.6836,-0.6853,0.0,-0.7244,-0.6891,0.0,-0.7848,-0.7826,-0.776,-0.8615,-0.9035,-0.9286,-0.9476,-0.968,-0.9862,-0.9862,-1.0086,-1.027,-1.0446,-1.0582,-1.067,-1.067,-1.0683,-1.0697,-1.0697,-1.0711,-1.0711,-1.0697,-1.0541,-1.0317,-0.9977,-0.9897,-0.9822,-0.9822,-0.9836,-0.9849,-0.9984,-1.0004,-1.0154,-1.0304,-1.0304,-1.0378,-1.0514,-1.0514,-1.0595,-1.0717,-1.0717,-1.0717,-1.0717,-1.0717,-1.0717,-1.0717,-1.0717,-1.0717,-1.0717,-1.0717,-1.0717,-1.0717,-1.0717,-1.0717,-1.0717,-1.0717,-1.0717,-1.0717,-1.0717,-1.0717,-1.0717,-1.0717,-1.0717,-1.0717,-1.0717,-1.0717,-1.0683,-1.0548,-1.0514,-1.048,-1.0358,-1.0331,-1.0283,-1.0065,-1.0011,-0.9943,-0.9869,-0.9829,-0.9822,-0.9822,-0.9822,-0.9822,-0.9822,-0.9822,-0.9768,-0.9625,-0.9612,-0.9551,-0.9395,-0.9381,-0.932,-0.9241,-0.9221,-0.9096,-0.8967,-0.8892,-0.8885,-0.8885,-0.8885,-0.8885,-0.8885,-0.977,-1.0871,-1.2006,-1.1987,-1.1977,-0.5729,-0.4895,-0.4131,-0.4237,-0.4051,0.0,-0.5465,-0.5689,-0.6098,-0.7704,-0.8174,-0.8418,-0.8811,-0.9035,-0.9101,-0.9101,-0.9483,-0.9876,-1.0263,-1.0344,-1.0365,-1.0365,-1.0466,-1.0534,-1.0534,-1.0649,-1.067,-1.0548,-1.029,-0.9997,-0.9876,-0.9836,-0.9822,-0.9822,-0.9876,-0.9957,-0.9984,-1.0175,-1.031,-1.0453,-1.0453,-1.0527,-1.0677,-1.0677,-1.069,-1.0717,-1.0717,-1.0717,-1.0717,-1.0717,-1.0717,-1.0717,-1.0717,-1.0717,-1.0717,-1.0717,-1.0717,-1.0717,-1.0717,-1.0717,-1.0717,-1.0717,-1.0717,-1.0717,-1.0717,-1.0717,-1.0717,-1.0717,-1.0717,-1.0717,-1.0717,-1.0717,-1.0711,-1.0683,-1.0677,-1.067,-1.0643,-1.0636,-1.0588,-1.0432,-1.0145,-0.9977,-0.995,-0.9903,-0.9822,-0.9822,-0.9822,-0.9822,-0.9822,-0.9822,-0.9768,-0.9625,-0.9612,-0.9551,-0.9395,-0.9381,-0.9367,-0.934,-0.9275,-0.92,-0.9166,-0.9001,-0.8885,-0.8885,-0.8885,-0.8885,-0.8885,-0.9092,-0.9337,-0.9603,-0.947,-0.9404,-0.4654,-0.4157,-0.3649,-0.3616,-0.3462,0.0,0.0,-0.4385,-0.4656,-0.5771,-0.6485,-0.7008,-0.7455,-0.8123,-0.8628,-0.8703,-0.9089,-0.9435,-0.9591,-0.9998,-1.0283,-1.0283,-1.0344,-1.0385,-1.0385,-1.046,-1.0439,-1.0283,-1.0071,-0.9923,-0.9829,-0.9822,-0.9856,-0.9869,-0.995,-1.0058,-1.027,-1.0344,-1.046,-1.0609,-1.0609,-1.0643,-1.0717,-1.0717,-1.0717,-1.0717,-1.0717,-1.0717,-1.0717,-1.0717,-1.0717,-1.0717,-1.0717,-1.0717,-1.0717,-1.0717,-1.0717,-1.0717,-1.0717,-1.0717,-1.0717,-1.0717,-1.0717,-1.0717,-1.0717,-1.0717,-1.0717,-1.0717,-1.0717,-1.0717,-1.0717,-1.0717,-1.0717,-1.0717,-1.0717,-1.0717,-1.0717,-1.0717,-1.0697,-1.0622,-1.0426,-1.0222,-1.0011,-0.9862,-0.9822,-0.9822,-0.9822,-0.9822,-0.9822,-0.9822,-0.9795,-0.972,-0.9713,-0.9686,-0.9605,-0.9598,-0.9571,-0.9496,-0.9422,-0.9347,-0.933,-0.9198,-0.9123,-0.9049,-0.9049,-0.9008,-0.8885,-0.8885,-0.8885,-0.8885,-0.8804,-0.8825,-0.3478,-0.3324,-0.3205,-0.3112,-0.2971,-0.2991,0.0,0.0,0.0,-0.3936,-0.4774,-0.5489,-0.577,-0.6743,-0.7508,-0.7638,-0.8014,-0.8331,-0.842,-0.8927,-0.9454,-0.9957,-1.01,-1.0154,-1.0154,-1.0154,-1.012,-0.999,-0.9909,-0.9829,-0.9822,-0.9822,-0.989,-0.9984,-1.0017,-1.0222,-1.0487,-1.0521,-1.0595,-1.0717,-1.0717,-1.0717,-1.0717,-1.0717,-1.0717,-1.0717,-1.0717,-1.0717,-1.0717,-1.0717,-1.0717,-1.0717,-1.0717,-1.0717,-1.0717,-1.0717,-1.0717,-1.0717,-1.0717,-1.0717,-1.0717,-1.0717,-1.0717,-1.0717,-1.0717,-1.0717,-1.0717,-1.0717,-1.0717,-1.0717,-1.0717,-1.0717,-1.0717,-1.0717,-1.0717,-1.0717,-1.0717,-1.0717,-1.0717,-1.0717,-1.0595,-1.0405,-1.0141,-0.9964,-0.9856,-0.9829,-0.9822,-0.9822,-0.9822,-0.9822,-0.9822,-0.9822,-0.9822,-0.9822,-0.9822,-0.9822,-0.9774,-0.9659,-0.9625,-0.9551,-0.9429,-0.9395,-0.932,-0.9255,-0.9255,-0.9137,-0.9022,-0.8994,-0.8967,-0.8885,-0.8885,-0.8885,-0.2234,-0.1336,-0.0427,-0.0451,-0.0407,-0.0663,-0.1629,0.0,-0.2298,-0.3282,0.0,-0.4014,-0.4065,0.0,0.0,-0.4533,-0.4787,-0.5461,-0.66,-0.6028,-0.6412,-0.8745,-0.9442,-0.9686,-0.9686,-0.9686,-0.9788,-0.997,-0.968,-0.9564,-0.9808,-0.9822,-0.989,-0.9984,-1.0181,-1.0331,-1.0487,-1.0629,-1.0704,-1.0717,-1.0717,-1.0717,-1.0717,-1.0717,-1.0717,-1.0717,-1.0717,-1.0717,-1.0717,-1.0717,-1.0717,-1.0717,-1.0717,-1.0717,-1.0717,-1.0717,-1.0717,-1.0717,-1.0717,-1.0717,-1.0717,-1.0717,-1.0717,-1.0717,-1.0717,-1.0717,-1.0717,-1.0717,-1.0717,-1.0717,-1.0717,-1.0717,-1.0717,-1.0717,-1.0717,-1.0717,-1.0717,-1.0717,-1.0717,-1.0717,-1.0595,-1.0439,-1.0283,-1.0127,-0.9916,-0.9842,-0.9822,-0.9822,-0.9822,-0.9822,-0.9822,-0.9822,-0.9822,-0.9822,-0.9822,-0.9822,-0.9815,-0.9795,-0.968,-0.9605,-0.9585,-0.9456,-0.9374,-0.9354,-0.9354,-0.9347,-0.9327,-0.9255,-0.9062,-0.8885,-0.8885,-0.8885,-0.086,-0.0435,0.0,0.0,0.0,-0.0103,-0.0562,-0.0695,-0.0888,-0.1348,0.0,0.0,0.0,0.0,0.0,0.0,-0.4136,-0.4754,-0.5931,-0.5287,-0.5723,-0.8575,-0.8357,-0.838,-0.9276,-0.9422,-0.953,-0.9652,-0.949,-0.9476,-0.9686,-0.9774,-0.993,-1.0175,-1.0249,-1.0392,-1.0622,-1.069,-1.0717,-1.0717,-1.0717,-1.0717,-1.0717,-1.0717,-1.0717,-1.0651,-0.9576,-0.9709,-1.0651,-0.9576,-0.9775,-1.0717,-1.0717,-1.0717,-1.0717,-1.0717,-1.0717,-1.0717,-1.0717,-1.0717,-1.0717,-1.0717,-1.0717,-1.0717,-1.0717,-1.0717,-1.0717,-1.0717,-1.0717,-1.0452,-0.9377,-0.9105,-0.8906,-0.7836,-0.7636,-0.7636,-0.7636,-0.7636,-0.7636,-0.7636,-0.7597,-0.7468,-0.7298,-0.8863,-1.0134,-0.9916,-0.9889,-0.9862,-0.9836,-0.9822,-0.9822,-0.9822,-0.9822,-0.9822,-0.9822,-0.9822,-0.9822,-0.9822,-0.9768,-0.9734,-0.9734,-0.9673,-0.9598,-0.9517,-0.951,-0.9469,-0.9381,-0.9313,-0.9252,-0.9191,-0.9022,-0.8885,0.0,0.0,0.0,0.0,0.0,0.0,0.0,0.0,0.0,0.0,-0.0628,0.0,0.0,0.0,0.0,0.0,0.0,-0.3457,-0.4606,-0.3883,-0.4442,-0.7665,-0.7311,-0.7254,-0.8394,-0.8921,-0.9184,-0.9306,-0.9245,-0.932,-0.9598,-0.9707,-0.9924,-1.027,-1.0283,-1.0419,-1.0717,-1.0717,-1.0452,-0.9975,-0.9975,-0.9709,-0.9244,-0.9244,-0.9244,-0.9178,-0.7836,-0.8035,-0.9178,-0.7831,-0.8035,-0.9244,-0.9244,-0.9244,-0.9377,-1.0319,-1.0717,-1.0717,-1.0717,-1.0717,-1.0717,-1.0717,-1.0717,-1.0585,-1.0114,-0.9975,-0.9848,-0.9377,-0.9244,-0.8972,-0.7631,-0.7298,-0.6965,-0.5696,-0.5429,-0.5429,-0.5429,-0.5429,-0.5429,-0.5429,-0.5429,-0.5345,-0.5225,-0.7238,-0.8997,-0.9306,-0.9349,-0.9505,-0.9896,-0.991,-0.9883,-0.9883,-0.9842,-0.9822,-0.9822,-0.9822,-0.9822,-0.9822,-0.9822,-0.9822,-0.9822,-0.9822,-0.9774,-0.9673,-0.9666,-0.9612,-0.9503,-0.9462,-0.9442,-0.9435,-0.9178,-0.9035,0.0,0.0,0.0,0.0,0.0,0.0,0.0,0.0,0.0,0.0,0.0,0.0,0.0,0.0,0.0,0.0,0.0,0.0,0.0,-0.0996,-0.1599,-0.5417,-0.6277,-0.6579,-0.6748,-0.7843,-0.8689,-0.9187,-0.8893,-0.8988,-0.9578,-0.9612,-0.9822,-1.027,-1.0283,-1.0419,-1.0717,-1.0717,-0.9842,-0.8097,-0.8097,-0.7231,-0.5563,-0.5563,-0.5563,-0.5563,-0.5496,-0.5496,-0.5563,-0.5496,-0.5496,-0.5563,-0.5563,-0.5563,-0.5964,-0.9443,-1.0717,-1.0717,-1.0717,-1.0717,-1.0717,-1.0717,-1.0717,-1.0379,-0.8634,-0.8097,-0.7764,-0.603,-0.5563,-0.5563,-0.5496,-0.5496,-0.5496,-0.5429,-0.5429,-0.5429,-0.5429,-0.5429,-0.5429,-0.5429,-0.5429,-0.5429,-0.5359,-0.5297,-0.5805,-0.7454,-0.7694,-0.8336,-1.0072,-1.0134,-0.9977,-0.9977,-0.9849,-0.9822,-0.9822,-0.9822,-0.9822,-0.9822,-0.9822,-0.9822,-0.9822,-0.9822,-0.9822,-0.9815,-0.9815,-0.9815,-0.9808,-0.9673,-0.9605,-0.9598,-0.9442,-0.9286,0.0,0.0,0.0,0.0,0.0,0.0,0.0,0.0,0.0,0.0,0.0,0.0,0.0,0.0,0.0,0.0,0.0,0.0,0.0,-0.1487,-0.1719,-0.3099,-0.5183,-0.6409,-0.6246,-0.7611,-0.8547,-0.875,-0.871,-0.8886,-0.9286,-0.9496,-0.9768,-1.0114,-1.0229,-1.0419,-1.0717,-0.951,-0.8634,-0.7964,-0.6831,-0.5964,-0.5429,-0.5429,-0.5429,-0.5362,-0.4158,-0.4292,-0.5295,-0.4091,-0.4292,-0.5429,-0.5429,-0.5429,-0.5563,-0.6765,-0.7169,-0.7169,-0.7169,-0.7169,-0.7169,-0.7169,-0.7169,-0.7102,-0.6498,-0.6297,-0.6164,-0.5563,-0.5429,-0.5095,-0.389,-0.3622,-0.3287,-0.2081,-0.1814,-0.1814,-0.1814,-0.1814,-0.1814,-0.1814,-0.1814,-0.1814,-0.1814,-0.1739,-0.2653,-0.5548,-0.5927,-0.6554,-0.8289,-0.8436,-0.8856,-1.0076,-0.9073,-0.8346,-0.8346,-0.7266,-0.7007,-0.816,-0.8221,-0.8708,-0.9761,-0.9822,-0.9822,-0.9822,-0.9822,-0.9822,-0.9822,-0.9774,-0.9747,-0.9747,-0.9693,-0.9537,0.0,0.0,0.0,0.0,0.0,0.0,0.0,0.0,0.0,0.0,0.0,0.0,0.0,0.0,0.0,0.0,0.0,0.0,0.0,-0.156,-0.1891,-0.1968,-0.4157,-0.5689,-0.5972,-0.7302,-0.8235,-0.8397,-0.8445,-0.8648,-0.9055,-0.9361,-0.9686,-0.9977,-1.0202,-1.0096,-0.9775,-0.8568,-0.736,-0.6093,-0.4961,-0.4091,-0.3488,-0.3488,-0.3488,-0.3423,-0.2216,-0.2417,-0.3423,-0.2216,-0.2417,-0.3488,-0.3488,-0.3488,-0.3622,-0.4894,-0.5429,-0.5429,-0.5429,-0.5429,-0.5429,-0.5429,-0.5429,-0.5295,-0.4626,-0.4426,-0.4292,-0.3689,-0.3488,-0.3222,-0.2016,-0.1747,-0.1478,-0.0269,0.0,0.0,0.0,0.0,0.0,0.0,0.0,0.0,0.0,0.0,-0.0938,-0.3843,-0.4232,-0.4876,-0.6593,-0.6748,-0.7176,-0.8344,-0.7335,-0.6609,-0.6609,-0.5597,-0.5356,-0.6425,-0.6483,-0.6965,-0.8038,-0.8038,-0.8083,-0.8039,-0.8039,-0.8039,-0.8039,-0.8039,-0.8039,-0.8039,-0.8039,-0.8257]},{"header":{"parameterUnit":"m.s-1","parameterCategory":1,"la1":30.6,"la2":29.2853,"lo1":-89.7004,"lo2":-87.6739,"dy":0.0162,"dx":0.0183,"nx":112,"ny":82,"refTime":"2026-04-11T00:00:00:Z","depth":0,"parameterNumber":3,"parameterNumberName":"V-component_of_WINDS"},"data":[0.0,0.0,0.0,0.0,0.0,0.0,0.0,0.0,0.0,0.0,0.0,0.0,0.0,0.0,0.0,0.0,0.0,0.0,0.0,0.0,0.0,0.0,0.0,0.0,0.0,0.0,0.0,0.0,0.0,0.0,0.0,0.0,0.0,0.0,0.0,0.0,0.0,0.0,0.0,0.0,0.0,0.0,0.0,0.0,0.0,0.0,0.0,0.0,0.0,0.0,0.0,0.0,0.0,0.0,0.0,0.0,0.0,0.0,0.0,0.0,0.0,0.0,0.0,0.0,0.0,0.0,0.0,0.0,0.0,0.0,0.0,0.0,0.0,0.0,0.0,0.0,0.0,0.0,0.0,0.0,0.0,0.0,0.0,0.0,0.0,0.0,0.0,0.0,0.0,0.0,0.4487,0.5153,0.6331,0.7038,0.6896,0.6627,0.6177,0.5474,0.0,0.0,0.0,0.0,0.0,0.0,0.0,0.0,0.0,0.0,0.0,0.0,0.0,0.0,0.0,0.0,0.0,0.0,0.0,0.0,0.0,0.0,0.0,0.0,0.0,0.0,0.0,0.0,0.0,0.0,0.0,0.0,0.0,0.0,0.0,0.0,0.0,0.0,0.0,0.0,0.0,0.0,0.0,0.0,0.0,0.0,0.0,0.0,0.0,0.0,0.0,0.0,0.0,0.0,0.0,0.0,0.0,0.0,0.0,0.0,0.0,0.0,0.0,0.0,0.0,0.0,0.0,0.0,0.0,0.0,0.0,0.0,0.0,0.0,0.0,0.0,0.0,0.0,0.0,0.0,0.0,0.0,0.0,0.0,0.0,0.0,0.0,0.0,0.0,0.0,0.0,0.0,0.0,0.0,0.0,0.0,0.0,0.0,0.0,0.0,0.0,0.0,0.0,0.0,0.5548,0.6481,0.6914,0.7038,0.6896,0.6539,0.6122,0.5589,0.0,0.0,0.0,0.0,0.0,0.0,0.0,0.0,0.0,0.0,0.0,0.0,0.0,0.0,0.0,0.0,0.0,0.0,0.0,0.0,0.0,0.0,0.0,0.0,0.0,0.0,0.0,0.0,0.0,0.0,0.0,0.0,0.0,0.0,0.0,0.0,0.0,0.0,0.0,0.0,0.0,0.0,0.0,0.0,0.0,0.0,0.0,0.0,0.0,0.0,0.0,0.0,0.0,0.0,0.0,0.0,0.0,0.0,0.0,0.0,0.0,0.0,0.0,0.0,0.0,0.0,0.0,0.0,0.0,0.0,0.0,0.0,0.0,0.0,0.0,0.0,0.0,0.0,0.0,0.0,0.0,0.0,0.0,0.0,0.0,0.0,0.0,0.0,0.0,0.0,0.0,0.0,0.0,0.0,0.0,0.0,0.0,0.0,0.0,0.0,0.0,0.0,0.0,0.5555,0.6037,0.6802,0.7011,0.7004,0.6824,0.6471,0.6067,0.5535,0.4935,0.0,0.0,0.0,0.0,0.0,0.0,0.0,0.0,0.0,0.0,0.0,0.0,0.0,0.0,0.0,0.0,0.0,0.0,0.0,0.0,0.0,0.0,0.0,0.0,0.0,0.0,0.0,0.0,0.0,0.0,0.0,0.0,0.0,0.0,0.0,0.0,0.0,0.0,0.0,0.0,0.0,0.0,0.0,0.0,0.0,0.0,0.0,0.0,0.0,0.0,0.0,0.0,0.0,0.0,0.0,0.0,0.0,0.0,0.0,0.0,0.0,0.0,0.0,0.0,0.0,0.0,0.0,0.0,0.0,0.0,0.0,0.0,0.0,0.0,0.0,0.0,0.0,0.0,0.0,0.0,0.0,0.0,0.0,0.0,0.0,0.0,0.0,0.0,0.0,0.0,0.0,0.0,0.0,0.0,0.0,0.0,0.0,0.0,0.0,0.0,0.0,0.0,0.6596,0.7032,0.762,0.775,0.7748,0.7454,0.6905,0.6324,0.5792,0.4909,0.0,0.0,0.0,0.0,0.0,0.0,0.0,0.0,0.0,0.0,0.0,0.0,0.0,0.0,0.0,0.0,0.0,0.0,0.0,0.0,0.0,0.0,0.0,0.0,0.0,0.0,0.0,0.0,0.0,0.0,0.0,0.0,0.0,0.0,0.0,0.0,0.0,0.0,0.0,0.0,0.0,0.0,0.0,0.0,0.0,0.0,0.0,0.0,0.0,0.0,0.0,0.0,0.0,0.0,0.0,0.0,0.0,0.0,0.0,0.0,0.0,0.0,0.0,0.0,0.0,0.0,0.0,0.0,0.0,0.0,0.0,0.0,0.0,0.0,0.0,0.0,0.0,0.0,0.0,0.0,0.0,0.0,0.0,0.0,0.0,0.0,0.0,0.0,0.0,0.0,0.0,0.0,0.0,0.0,0.0,0.0,0.0,0.0,0.0,0.0,0.0,0.0,0.8319,0.9428,0.9898,0.9956,0.991,0.9674,0.8187,0.712,0.6819,0.5178,0.0,0.0,0.0,0.0,0.0,0.0,0.0,0.0,0.0,0.0,0.0,0.0,0.0,0.0,0.0,0.0,0.0,0.0,0.0,0.0,0.0,0.0,0.0,0.0,0.0,0.0,0.0,0.0,0.0,0.0,0.0,0.0,0.0,0.0,0.0,0.0,0.0,0.0,0.0,0.0,0.0,0.0,0.0,0.0,0.0,0.0,0.0,0.0,0.0,0.0,0.0,0.0,0.0,0.0,0.0,0.0,0.0,0.0,0.0,0.0,0.0,0.0,0.0,0.0,0.0,0.0,0.0,0.0,0.0,0.0,0.0,0.0,0.0,0.0,0.0,0.0,0.0,0.0,0.0,0.0,0.0,0.0,0.0,0.0,0.0,0.0,0.0,0.0,0.0,0.0,0.0,0.0,0.0,0.0,0.0,0.0,0.0,0.0,0.0,0.0,0.0,0.0,0.8172,0.9195,0.9836,0.9874,0.9766,0.9447,0.8529,0.7564,0.6537,0.0,0.0,0.0,0.0,0.0,0.0,0.0,0.0,0.0,0.0,0.0,0.0,0.0,0.0,0.0,0.0,0.0,0.0,0.0,0.0,0.0,0.0,0.0,0.0,0.0,0.0,0.0,0.0,0.0,0.0,0.0,0.0,0.0,0.0,0.0,0.0,0.0,0.0,0.0,0.0,0.0,0.0,0.0,0.0,0.0,0.0,0.0,0.0,0.0,0.0,0.0,0.0,0.0,0.0,0.0,0.0,0.0,0.0,0.0,0.0,0.0,0.0,0.0,0.0,0.0,0.0,0.0,0.0,0.0,0.0,0.0,0.0,0.0,0.0,0.0,0.0,0.0,0.0,0.0,0.0,0.0,0.0,0.0,0.0,0.0,0.0,0.0,0.0,0.0,0.0,0.0,0.0,0.0,0.0,0.0,0.0,0.0,0.0,0.0,0.0,0.0,0.0,0.7414,0.8745,0.9933,1.0599,1.0686,1.0522,1.0143,0.9278,0.8154,0.6771,0.0,0.0,0.0,0.0,0.0,0.0,0.0,0.0,0.0,0.0,0.0,0.0,0.0,0.0,0.0,0.0,0.0,0.0,0.0,0.0,0.0,0.0,0.0,0.0,0.0,0.0,0.0,0.0,0.0,0.0,0.0,0.0,0.0,0.0,0.0,0.0,0.0,0.0,0.0,0.0,0.0,0.0,0.0,0.0,0.0,0.0,0.0,0.0,0.0,0.0,0.0,0.0,0.0,0.0,0.0,0.0,0.0,0.0,0.0,0.0,0.0,0.0,0.0,0.0,0.0,0.0,0.0,0.0,0.0,0.0,0.0,0.0,0.0,0.0,0.0,0.0,0.0,0.0,0.0,0.0,0.0,0.0,0.0,0.0,0.0,0.0,0.0,0.0,0.0,0.0,0.0,0.0,0.0,0.0,0.0,0.0,0.0,0.0,0.0,0.0,0.0,0.0,0.8355,1.0452,1.2127,1.2717,1.2784,1.2663,1.2318,1.0568,0.9002,0.0,0.0,0.0,0.0,0.0,0.0,0.0,0.0,0.0,0.0,0.0,0.0,0.0,0.0,0.0,0.0,0.0,0.0,0.0,0.0,0.0,0.0,0.0,0.0,0.0,0.0,0.0,0.0,0.0,0.0,0.0,0.0,0.0,0.0,0.0,0.0,0.0,0.0,0.0,0.0,0.0,0.0,0.0,0.0,0.0,0.0,0.0,0.0,0.0,0.0,0.0,0.0,0.0,0.0,0.0,0.0,0.0,0.0,0.0,0.0,0.0,0.0,0.0,0.0,0.0,0.0,0.0,0.0,0.0,0.0,0.0,0.0,0.0,0.0,0.0,0.0,0.0,0.0,0.0,0.0,0.0,0.0,0.0,0.0,0.0,0.0,0.0,0.0,0.0,0.0,0.0,0.0,0.0,0.0,0.0,0.0,0.0,0.0,0.0,0.0,0.0,0.0,0.0,0.904,1.056,1.1784,1.2371,1.2438,1.2225,1.173,1.0817,0.9566,0.7932,0.0,0.0,0.0,0.0,0.0,0.0,0.0,0.0,0.0,0.0,0.0,0.0,0.0,0.0,0.0,0.0,0.0,0.0,0.0,0.0,0.0,0.0,0.0,0.0,0.0,0.0,0.0,0.0,0.0,0.0,0.0,0.0,0.0,0.0,0.0,0.0,0.0,0.0,0.0,0.0,0.0,0.0,0.0,0.0,0.0,0.0,0.0,0.0,0.0,0.0,0.0,0.0,0.0,0.0,0.0,0.0,0.0,0.0,0.0,0.0,0.0,0.0,0.0,0.0,0.0,0.0,0.0,0.0,0.0,0.0,0.0,0.0,0.0,0.0,0.0,0.0,0.0,0.0,0.0,0.0,0.0,0.0,0.0,0.0,0.0,0.0,0.0,0.0,0.0,0.0,0.0,0.0,0.0,0.0,0.0,0.0,0.0,0.0,0.0,0.0,0.0,0.0,0.9167,1.052,1.1615,1.2238,1.2198,1.1944,1.1429,1.0782,0.9727,0.819,0.0,0.0,0.0,0.0,0.0,0.0,0.0,0.0,0.0,0.0,0.0,0.0,0.0,0.0,0.0,0.0,0.0,0.0,0.0,0.0,0.0,0.0,0.0,0.0,0.0,0.0,0.0,0.0,0.0,0.0,0.0,0.0,0.0,0.0,0.0,0.0,0.0,0.0,0.0,0.0,0.0,0.0,0.0,0.0,0.0,0.0,0.0,0.0,0.0,0.0,0.0,0.0,0.0,0.0,0.0,0.0,0.0,0.0,0.0,0.0,0.0,0.0,0.0,0.0,0.0,0.0,0.0,0.0,0.0,0.0,0.0,0.0,0.0,0.0,0.0,0.0,0.0,0.0,0.0,0.0,0.0,0.0,0.0,0.0,0.0,0.0,0.0,0.0,0.0,0.0,0.0,0.0,0.0,0.0,0.0,0.0,0.0,0.0,0.0,0.0,0.0,0.0,0.9041,1.0399,1.1535,1.2158,1.1984,1.1703,1.1375,1.0608,0.9623,0.8533,0.0,0.0,0.0,0.0,0.0,0.0,0.0,0.0,0.0,0.0,0.0,0.0,0.0,0.0,0.0,0.0,0.0,0.0,0.0,0.0,0.0,0.0,0.0,0.0,0.0,0.0,0.0,0.0,0.0,0.0,0.0,0.0,0.0,0.0,0.0,0.0,0.0,0.0,0.0,0.0,0.0,0.0,0.0,0.0,0.0,0.0,0.0,0.0,0.0,0.0,0.0,0.0,0.0,0.0,0.0,0.0,0.0,0.0,0.0,0.0,1.7728,1.6561,0.0,0.0,0.0,0.0,0.0,0.0,0.0,0.0,0.0,0.0,0.0,0.0,0.0,0.0,0.0,0.0,0.0,0.0,0.0,0.0,0.0,0.0,0.0,0.0,0.0,0.0,0.0,0.0,0.0,0.0,0.0,0.0,0.0,0.0,0.0,0.0,0.0,0.0,0.0,0.0,0.9692,1.0393,1.0969,1.1509,1.1522,1.1396,1.1102,1.0488,0.9801,0.9077,0.7571,0.0,0.0,0.0,0.0,0.0,0.0,0.0,0.0,0.0,0.0,0.0,0.0,0.0,0.0,0.0,0.0,0.0,0.0,0.0,0.0,0.0,0.0,0.0,0.0,0.0,0.0,0.0,0.0,0.0,0.0,0.0,0.0,0.0,0.0,0.0,0.0,0.0,0.0,0.0,0.0,0.0,0.0,0.0,0.0,0.0,0.0,0.0,0.0,0.0,0.0,0.0,0.0,0.0,0.0,0.0,0.0,0.0,0.0,0.0,2.0884,1.9695,0.0,0.0,0.0,0.0,0.0,0.0,0.0,0.0,0.0,0.0,0.0,0.0,0.0,0.0,0.0,0.0,0.0,0.0,0.0,0.0,0.0,0.0,0.0,0.0,0.0,0.0,0.0,0.0,0.0,0.0,0.0,0.0,0.0,0.0,0.0,0.0,0.0,0.0,0.0,0.0,1.0278,1.1177,1.1762,1.2,1.1896,1.1575,1.1042,1.0327,0.978,0.9472,0.8111,0.0,0.0,0.0,0.0,0.0,0.0,0.0,0.0,0.0,0.0,0.0,0.0,0.0,0.0,0.0,0.0,0.0,0.0,0.0,0.0,0.0,0.0,0.0,0.0,0.0,0.0,0.0,0.0,0.0,0.0,0.0,0.0,0.0,0.0,0.0,0.0,0.0,0.0,0.0,0.0,0.0,0.0,0.0,0.0,0.0,0.0,0.0,0.0,0.0,0.0,0.0,0.0,0.0,2.6314,2.6389,2.5988,2.6414,2.6565,2.6355,2.446,2.3498,2.3071,2.1233,0.0,0.0,0.0,0.0,0.0,0.0,0.0,0.0,0.0,0.0,0.0,0.0,0.0,0.0,0.0,0.0,0.0,0.0,0.0,0.0,0.0,0.0,1.7553,1.828,1.8857,1.852,1.5892,0.0,0.0,0.0,0.0,0.0,0.0,0.0,0.0,0.0,0.0,0.0,1.074,1.1998,1.2772,1.274,1.251,1.2008,1.1195,1.0397,0.9846,0.9715,0.8631,0.7835,0.0,0.0,0.0,0.0,0.0,0.0,0.0,0.0,0.0,0.0,0.0,0.0,0.0,0.0,0.0,0.0,0.0,0.0,0.0,0.0,0.0,0.0,0.0,0.0,0.0,0.0,0.0,0.0,0.0,0.0,0.0,0.0,2.0314,2.0465,0.0,0.0,0.0,0.0,0.0,0.0,0.0,0.0,0.0,0.0,0.0,0.0,0.0,2.6047,2.6047,2.8097,2.9126,2.9151,3.0156,3.0583,3.0532,3.0583,3.0382,2.9891,2.9626,0.0,2.512,2.3929,0.0,0.0,0.0,0.0,0.0,0.0,0.0,0.0,0.0,0.0,0.0,0.0,0.0,0.0,0.0,0.0,0.0,0.0,0.0,0.0,0.0,0.0,2.0428,2.0363,2.0405,2.0332,1.9931,1.7839,1.5473,1.3584,1.2464,1.149,0.0,0.0,0.0,0.0,0.0,0.0,1.077,1.1908,1.2712,1.2954,1.2923,1.2583,1.1777,1.1108,1.0437,0.9744,0.8858,0.831,0.826,0.7736,0.0,0.0,0.0,0.0,0.0,0.0,0.0,0.0,0.0,0.0,0.0,0.0,0.0,0.0,0.0,0.0,0.0,0.0,0.0,0.0,0.0,0.0,0.0,0.0,0.0,0.0,0.0,0.0,0.0,2.1169,2.2548,2.2548,2.2548,2.2196,0.0,0.0,0.0,0.0,0.0,0.0,0.0,0.0,0.0,2.6289,2.762,2.8473,2.88,3.0055,3.0683,3.0683,3.116,3.1386,3.1386,3.1386,3.126,3.106,3.106,3.0055,2.8273,2.6565,2.5184,2.4023,0.0,0.0,0.0,0.0,2.1777,2.1898,2.315,2.315,2.2608,2.2559,0.0,0.0,0.0,0.0,0.0,0.0,0.0,1.9089,2.0145,2.1272,2.2223,2.2485,2.2548,2.2401,2.1719,2.0634,1.8984,1.6312,1.5085,1.3905,1.2001,1.0727,0.0,0.0,0.0,1.1328,1.2394,1.3283,1.378,1.3682,1.3674,1.3174,1.1919,1.1255,1.0565,0.9744,0.9018,0.8617,0.8617,0.8228,0.7729,0.0,0.0,0.0,0.0,0.0,0.0,0.0,0.0,0.0,0.0,0.0,0.0,0.0,0.0,0.0,0.0,0.0,0.0,0.0,0.0,0.0,0.0,0.0,0.0,0.0,0.0,0.0,0.0,2.2899,2.4305,2.4582,2.4632,2.423,0.0,0.0,0.0,0.0,0.0,0.0,2.6615,2.7379,2.8172,2.9126,3.0256,3.1035,3.1461,3.1989,3.224,3.224,3.224,3.2164,3.2039,3.2039,3.1863,3.1612,3.1612,3.1311,3.0658,2.8725,2.7268,2.6138,2.5209,2.4481,2.4048,2.4933,2.5084,2.5084,2.6716,2.6741,2.5988,2.5737,2.4675,2.3271,2.1974,0.0,0.0,0.0,0.0,2.1112,2.2335,2.309,2.3647,2.4104,2.4205,2.3929,2.2949,2.2594,2.1656,1.8854,1.7642,1.6305,1.4053,1.2791,0.0,1.1601,1.2049,1.2784,1.3679,1.4468,1.483,1.4532,1.451,1.3891,1.2377,1.1776,1.1002,0.9909,0.9505,0.9237,0.9054,0.8873,0.8611,0.8283,0.0,0.0,0.0,0.0,0.0,0.0,0.0,0.0,0.0,0.0,0.0,0.0,0.0,0.0,0.0,0.0,0.0,0.0,0.0,0.0,0.0,0.0,0.0,0.0,0.0,0.0,0.0,0.0,0.0,2.6248,2.6373,0.0,0.0,0.0,0.0,2.6197,2.6826,2.7846,2.9503,3.0583,3.1411,3.1989,3.3093,3.3696,3.3721,3.4274,3.4505,3.4505,3.4505,3.4274,3.3771,3.3771,3.3194,3.2164,3.2164,3.1863,3.126,3.0131,2.9001,2.7921,2.7344,2.6801,2.6323,2.6399,2.6725,2.7178,2.7278,2.7243,2.7268,2.777,2.649,2.46,2.4004,2.302,0.0,0.0,2.294,2.3791,2.3898,2.4324,2.47,2.475,2.475,2.46,2.4029,2.3446,2.2569,2.0865,1.9587,1.8345,1.7006,0.0,1.3833,1.3086,1.3405,1.3734,1.3789,1.4716,1.5362,1.5352,1.5352,1.483,1.3604,1.3192,1.2209,1.0387,1.0535,1.0407,0.9795,0.9729,0.9591,0.9337,0.8068,0.0,0.0,0.0,0.0,0.0,0.0,0.0,0.0,0.0,0.0,0.0,0.0,0.0,0.0,0.0,0.0,0.0,0.0,0.0,0.0,0.0,0.0,0.0,0.0,0.0,0.0,0.0,0.0,2.8547,2.8925,0.0,2.8348,2.8122,2.8323,2.9076,2.9628,3.0507,3.1838,3.2591,3.3093,3.3294,3.4022,3.4424,3.4424,3.4625,3.468,3.468,3.468,3.4625,3.4424,3.4073,3.3671,3.3269,3.2918,3.2441,3.1888,3.1512,3.0708,2.9704,2.9503,2.9101,2.8636,2.8636,2.8725,2.89,2.89,2.8649,2.8247,2.7745,2.7042,2.6314,2.5795,2.5034,2.4506,2.4883,2.5008,2.5109,2.5519,2.577,2.582,2.541,2.531,2.5184,2.4632,2.4048,2.3527,2.2924,2.1231,1.9365,1.7793,1.6558,1.5443,1.4349,1.4334,1.4525,1.4792,1.5168,1.541,1.541,1.541,1.4917,1.3701,1.3285,1.2318,1.0411,1.0613,1.0483,0.9847,1.0218,1.0207,0.9667,0.8833,0.7766,0.0,0.0,0.0,0.0,0.0,0.0,0.0,0.0,0.0,0.0,0.0,0.0,0.0,0.0,0.0,0.0,0.0,0.0,0.0,0.0,0.0,0.0,0.0,0.0,0.0,2.9023,3.0662,3.0855,3.1559,3.1629,3.0698,3.0783,3.1135,3.1687,3.2039,3.2641,3.3596,3.4148,3.4449,3.4449,3.4977,3.5278,3.5278,3.5278,3.5278,3.5278,3.5278,3.5177,3.4931,3.4625,3.4248,3.3872,3.352,3.3043,3.2516,3.2516,3.1964,3.111,3.0758,3.0382,3.0055,2.9854,2.9804,2.9804,2.9804,2.9553,2.9076,2.8147,2.7846,2.7745,2.7193,2.6741,2.6515,2.6952,2.6615,2.6264,2.6675,2.6625,2.6399,2.6021,2.5887,2.567,2.4789,2.4432,2.411,2.3596,2.194,2.0245,1.9136,1.8153,1.7134,1.6029,1.5753,1.5687,1.5645,1.5508,1.541,1.541,1.541,1.4946,1.3867,1.3351,1.2331,1.0592,1.0894,1.0737,0.9832,1.0432,1.0483,0.9806,0.9212,0.8313,0.7095,0.0,0.0,0.0,0.0,0.0,0.0,0.0,0.0,0.0,0.0,0.0,0.0,0.0,0.0,0.0,0.0,0.0,0.0,0.0,0.0,0.0,0.0,0.0,3.1203,3.2214,3.3037,3.3104,3.4165,3.4188,3.2491,3.2817,3.3345,3.3897,3.3947,3.4198,3.4751,3.5232,3.5533,3.5533,3.6081,3.6405,3.6405,3.6405,3.6405,3.6405,3.6405,3.6081,3.5533,3.5508,3.4906,3.3922,3.3897,3.3596,3.3111,3.3111,3.2742,3.2139,3.1085,3.0658,3.0557,3.0005,2.9804,2.9804,2.9804,2.9804,2.9704,2.9126,2.8913,2.8813,2.8323,2.8147,2.8122,2.8122,2.772,2.7293,2.7293,2.6901,2.6499,2.6499,2.6499,2.6083,2.4616,2.4557,2.4342,2.2854,2.1744,2.1063,2.1182,2.0049,1.8925,1.8138,1.7675,0.0,1.6236,1.5713,1.543,1.541,1.541,1.505,1.4192,1.3503,1.2467,1.0955,1.1466,1.1241,0.9909,1.0525,1.0534,0.9884,0.9236,0.8677,0.8142,0.0,0.0,0.0,0.0,0.0,0.0,0.0,0.0,0.0,0.0,0.0,0.0,0.0,0.0,0.0,0.0,0.0,0.0,0.0,0.0,0.0,3.3,3.3973,3.2617,3.4327,3.5685,3.5523,3.586,3.5635,3.469,3.4379,3.45,3.5006,3.5056,3.5328,3.5881,3.6056,3.6132,3.6132,3.6329,3.6405,3.6405,3.6405,3.6405,3.6405,3.6405,3.6329,3.6132,3.5683,3.5107,3.4474,3.4073,3.3596,3.3111,3.3111,3.2993,3.2767,3.2064,3.1286,3.0608,3.0432,3.0131,2.9804,2.9804,2.9804,2.9754,2.9603,2.9553,2.9528,2.9377,2.9026,2.8662,2.8662,2.8021,2.7293,2.7293,2.6901,2.6499,2.6499,2.6499,2.638,2.5965,2.5319,2.4661,2.4253,2.2812,2.1575,2.1254,2.086,2.0231,1.9119,1.8335,1.7639,1.7125,1.6387,1.5791,1.5449,1.541,1.5195,1.4648,1.4127,1.3306,1.2095,1.2389,1.2197,1.1291,1.195,1.1999,1.1266,1.0174,0.9551,0.0,0.0,0.0,0.0,0.0,0.0,0.0,0.0,0.0,0.0,0.0,0.0,0.0,0.0,0.0,0.0,0.0,0.0,0.0,0.0,0.0,0.0,3.5848,3.7005,3.6526,3.7791,3.8601,3.8283,3.8473,3.8195,3.7062,3.6621,3.6514,3.6533,3.7053,3.751,3.7844,3.8382,3.8428,3.7891,3.81,3.7996,3.7463,3.7716,3.7612,3.7103,3.7103,3.6849,3.6405,3.6031,3.5579,3.4981,3.4474,3.3922,3.3395,3.3169,3.3111,3.3061,0.0,0.0,0.0,0.0,3.0055,2.9804,2.9804,2.9804,2.9804,2.9804,2.9804,2.9804,2.9804,2.9553,2.9302,2.9302,2.8649,2.7921,2.7695,2.7253,2.6776,2.6549,2.6499,2.6371,2.5955,2.5493,2.4953,2.4312,2.3416,0.0,2.2097,2.1729,2.1246,2.0486,1.9773,1.8981,1.8053,1.7162,1.6407,1.5762,1.5527,1.5234,1.4824,1.4303,0.0,0.0,0.0,1.2457,1.1832,1.1931,0.0,0.0,0.0,0.0,0.0,0.0,0.0,0.0,0.8929,0.8508,0.0,0.0,0.0,0.0,0.0,0.0,0.0,0.0,0.0,0.0,0.0,0.0,0.0,0.0,0.0,0.0,3.8362,4.0098,4.1414,4.1654,4.1507,4.0891,4.1357,4.1056,3.9375,3.9243,3.9013,3.8479,3.9468,4.0106,4.0106,4.1196,0.0,0.0,0.0,4.0331,3.9117,3.9714,3.9414,3.8289,3.8153,3.7586,3.6593,3.6452,3.6056,3.5458,3.4906,3.4399,3.3847,3.3294,3.3111,3.3061,3.2441,3.1863,3.126,3.0256,2.9854,2.9804,2.9804,0.0,0.0,2.9804,2.9804,2.9804,2.9804,2.9804,2.9804,2.9804,2.9377,2.8787,2.8323,2.7745,2.7203,2.67,2.6549,2.6233,2.537,2.5409,2.5203,2.3751,2.3756,2.3828,2.3195,2.2519,2.2032,2.2032,2.1595,2.0687,1.9102,1.8096,1.7208,1.6406,0.0,0.0,1.4989,1.4317,1.358,1.2811,1.2693,1.2466,1.2004,1.1436,1.1091,1.104,1.1616,1.1913,1.1913,1.2584,1.2915,1.2827,1.0131,0.942,0.0,0.0,0.0,0.0,0.0,0.0,0.0,0.0,0.0,0.0,0.0,0.0,0.0,0.0,0.0,3.7793,3.9709,4.1474,4.2821,4.3419,4.3345,4.2331,4.232,4.2095,4.1341,4.126,4.1197,4.1058,4.1288,4.1425,4.1425,4.1653,4.1698,4.1425,4.1542,4.1239,4.0457,4.0542,4.0267,3.9536,3.8559,0.0,3.7769,3.6803,3.6056,3.5458,3.4906,3.4399,3.3847,3.3294,3.3111,3.3061,3.2441,3.1863,3.1311,3.0683,3.0181,2.9804,2.9804,2.9804,2.9804,2.9804,2.9804,2.9804,2.9804,2.9804,0.0,2.9804,2.9377,2.8863,2.8762,2.8021,2.7243,2.7178,2.6826,2.6465,2.6233,2.5886,2.5369,2.4648,2.4229,2.3828,2.3195,2.2975,2.2884,2.2884,2.2237,2.1507,2.0785,1.9333,1.8197,1.7687,1.6648,1.5928,1.585,1.509,1.454,1.4385,1.4011,1.3599,1.3176,1.3055,1.2827,1.2505,1.2608,1.27,1.27,1.2822,1.2915,1.2871,1.1695,1.1294,0.0,0.0,0.0,0.0,0.0,0.0,0.0,0.0,0.0,0.0,0.0,3.4412,3.5696,0.0,3.899,4.0606,4.1713,4.2821,4.4167,4.4616,4.459,4.4032,4.3948,4.3716,4.3154,4.3076,4.2992,4.2676,4.3237,4.3602,4.3602,4.4215,4.426,4.3602,4.39,4.3413,4.21,4.2424,4.1966,4.0746,4.0118,3.9552,3.8961,3.8405,3.7658,3.6779,3.6857,3.6192,3.5079,3.4769,3.465,3.4624,3.4307,3.3053,3.1336,3.0809,3.0256,2.9804,2.9804,2.9804,2.9804,2.9804,2.9804,2.9804,2.9804,2.9804,2.9804,2.9804,2.9578,2.9302,2.8963,2.8323,2.762,2.7344,2.6901,2.6499,2.6499,2.6273,2.5862,2.531,2.4983,2.4531,2.3672,2.3547,2.3446,2.3145,2.2763,2.2244,2.1643,2.0596,1.9514,1.8406,1.7378,1.6577,1.6146,1.5302,1.4813,1.4813,1.4348,1.4016,1.3802,1.3802,1.3613,1.3203,1.3203,1.3086,1.2915,1.2915,1.2988,1.3184,1.2814,1.2468,0.0,0.0,0.0,0.0,0.0,0.0,0.0,3.2647,3.3185,3.5759,3.6776,3.7734,3.932,4.0247,4.1354,4.3021,4.3409,4.3947,4.5304,4.5364,4.5334,4.5484,4.5484,4.5285,4.4836,4.4893,4.4752,4.4275,4.5207,4.5779,4.5779,4.6726,4.6814,4.5779,4.6223,4.5615,4.3791,4.4282,4.363,4.1947,4.1711,4.1127,4.0232,3.9972,3.936,3.8461,3.8726,3.7942,3.6471,3.6251,3.6212,3.6212,3.6212,3.4566,3.2111,3.1547,3.1009,3.0496,3.0394,3.0216,3.0101,3.0292,3.0216,3.0101,3.0292,3.0368,3.033,3.0101,3.0062,2.9923,2.924,2.8674,2.8122,2.757,2.7052,2.6625,2.6524,2.6499,2.6323,2.5711,2.5586,2.5285,2.433,2.4079,2.3803,2.3195,2.3095,2.2854,2.2218,2.1673,2.081,1.939,1.8446,1.748,1.6417,1.5612,1.5071,1.493,1.4543,1.4309,1.4231,1.4231,1.4036,1.3607,1.3633,1.3457,1.3125,1.3125,1.3301,1.3633,1.3633,1.3329,3.758,3.5456,3.3713,3.4641,3.3578,3.3215,0.0,3.6746,3.6507,3.8571,3.9499,4.0038,4.0247,4.1294,4.2402,4.317,4.3798,4.4676,4.6022,4.5693,4.5514,4.6142,4.6202,4.6147,4.6079,4.6615,4.6929,4.6858,4.7019,4.7062,4.7062,4.7222,4.7222,4.7062,4.7133,4.6476,4.5108,4.5173,4.4474,4.313,4.207,4.1545,4.1378,4.0361,3.9826,3.9656,3.8655,3.78,3.7043,3.6448,3.6212,3.6212,3.6212,3.568,3.4854,3.4251,3.3622,3.3083,3.2499,3.1756,3.1193,3.201,3.1719,3.123,3.2046,3.2272,3.2119,3.1278,3.1044,3.0857,2.9909,2.9277,2.8662,2.8147,2.7595,2.7102,2.66,2.6499,2.6323,2.5711,2.5586,2.541,2.48,2.433,2.3803,2.3195,2.3095,2.3065,2.2975,2.2292,2.1751,2.1565,2.038,1.8981,1.7383,1.6662,1.6022,1.5361,1.5264,1.5098,1.4727,1.4707,1.4512,1.4036,1.4036,1.4016,1.3958,1.3958,1.3997,1.4036,1.4036,1.3983,3.9242,3.8216,3.732,3.7807,3.7249,3.7075,3.911,3.914,3.923,4.0816,4.1354,4.1654,4.2043,4.288,4.3718,4.4377,4.5035,4.5813,4.677,4.6322,4.5843,4.5753,4.5723,4.5873,4.6249,4.6561,4.689,4.7279,4.7309,4.7309,4.7309,4.7309,4.7309,4.7309,4.7309,4.6651,4.5304,4.5304,4.4646,4.329,4.282,4.2589,4.2548,4.2099,4.1864,4.1765,3.9817,3.9253,3.9567,3.8513,3.804,3.804,3.804,3.7933,3.7473,3.5227,3.4067,3.3495,3.285,3.2343,3.2055,3.2451,3.2307,3.2092,3.2486,3.2593,3.2522,3.2128,3.1983,3.1938,3.1536,3.1,3.053,3.0326,2.9162,2.804,2.7841,2.7114,2.6424,2.6172,2.6122,2.5912,2.536,2.5084,2.4732,2.4173,2.3521,2.3095,2.3095,2.2823,2.2335,2.1571,2.0519,1.9529,1.86,1.7998,1.7342,1.6617,1.6226,1.5764,1.5185,1.5156,1.4941,1.4512,1.4512,1.4367,1.4114,1.4114,1.4231,1.4512,1.4512,1.4648,4.0485,4.0299,4.021,4.0351,4.0233,4.0215,4.083,4.0935,4.1265,4.2402,4.2641,4.2761,4.32,4.3678,4.4317,4.5155,4.5723,4.6322,4.7189,4.6561,4.5783,4.5095,4.4706,4.4766,4.5382,4.5843,4.6322,4.698,4.704,4.71,4.7309,4.7309,4.7309,4.7309,4.7309,4.6651,4.5304,4.5304,4.4646,4.329,4.329,4.329,4.329,4.329,4.329,4.319,4.1008,4.0597,4.1294,3.9948,3.9373,3.9373,3.9373,3.9373,3.9079,3.6466,3.5127,3.454,3.3882,3.3361,3.3017,3.3325,3.322,3.3045,3.3325,3.3394,3.3359,3.3052,3.2982,3.2912,3.2664,3.2297,3.1972,3.1841,3.0644,2.9456,2.9107,2.8028,2.7062,2.6875,2.6645,2.6373,2.5912,2.5711,2.546,2.5084,2.4173,2.3521,2.3371,2.3195,2.2765,2.1807,2.1043,2.0363,1.9867,1.9326,1.8644,1.7759,1.7291,1.6636,1.5729,1.57,1.5475,1.4989,1.4961,1.4805,1.4465,1.4465,1.4621,1.4961,1.4961,1.5117,4.1373,4.117,4.1242,4.1725,4.1767,4.1842,4.225,4.2351,4.253,4.314,4.326,4.326,4.329,4.3319,4.3738,4.5095,4.5304,4.5783,4.713,4.6172,4.5095,4.4436,4.321,4.274,4.3319,4.4586,4.5603,4.6249,4.6309,4.6621,4.7279,4.7309,4.7309,4.7309,4.7309,4.6651,4.5304,4.5304,4.4646,4.329,4.329,4.329,4.329,4.329,4.329,4.323,4.1914,4.1384,4.1294,3.9948,3.9373,3.9373,3.9373,3.9373,3.9284,3.8531,3.7874,3.7216,3.6589,3.5335,3.4143,3.51,3.4773,3.4143,3.5133,3.5392,3.5198,3.4245,3.3945,3.3739,3.2841,3.2593,3.2427,3.1917,3.1751,3.1391,3.0228,2.926,2.843,2.7775,2.7027,2.6474,2.6474,2.5996,2.5586,2.5586,2.5109,2.4582,2.4029,2.3446,2.3095,2.304,2.2535,2.1922,2.1188,2.0652,1.9812,1.8532,1.843,1.7836,1.6503,1.6454,1.6112,1.5391,1.5391,1.5362,1.5371,1.5371,1.5371,1.5391,1.5391,1.5391,4.1982,4.2974,4.4212,4.4787,4.4432,4.4012,4.4595,4.3819,4.294,4.2731,4.2671,4.2551,4.2132,4.2761,4.3589,4.4496,4.5394,4.6292,4.7189,4.6531,4.5723,4.5035,4.4197,4.3569,4.3319,4.3708,4.4466,4.5544,4.6052,4.6369,4.6651,4.707,4.7309,4.7309,4.689,4.6232,4.5304,4.4855,4.4197,4.329,4.329,4.329,4.329,4.329,4.329,4.323,4.1953,4.1422,4.1294,3.9948,3.9373,3.9373,3.9373,3.9373,3.9343,3.917,3.8362,3.7315,3.6716,3.5829,3.5067,3.5392,3.5294,3.5067,3.5392,3.5519,3.5424,3.51,3.5001,3.4905,3.4606,3.4509,3.448,3.428,3.3475,3.2616,3.2188,3.1104,3.0029,2.9362,2.8525,2.784,2.7348,2.6671,2.6072,2.5661,2.4833,2.4205,2.4029,2.3471,2.3095,2.3095,2.2945,2.273,2.2491,2.1967,2.1258,2.0335,1.9948,1.9183,1.7887,1.7836,1.754,1.6856,1.6397,1.6132,1.6132,1.5642,1.541,1.541,1.541,1.541,4.4079,4.5488,4.6899,4.7539,4.6955,4.629,4.6396,4.4871,4.3304,4.2675,4.2108,4.1482,4.0816,4.1354,4.2273,4.3419,4.4556,4.5622,4.68,4.6381,4.5693,4.5035,4.4377,4.3718,4.306,4.314,4.3738,4.4855,4.5574,4.6052,4.6279,4.695,4.7309,4.7309,4.6681,4.5992,4.5304,4.4646,4.3947,4.329,4.329,4.329,4.329,4.329,4.329,4.323,4.1953,4.1422,4.1294,3.9948,3.9373,3.9373,3.9373,3.9373,3.9373,3.9373,3.8721,3.7674,3.7045,3.6237,3.5519,3.5519,3.5519,3.5519,3.5519,3.5519,3.5519,3.5519,3.5519,3.5519,3.5519,3.5519,3.5519,3.5519,3.4741,3.397,3.3735,3.2676,3.1599,3.0946,2.9921,2.9019,2.8577,2.7661,2.6824,2.6406,2.5329,2.4506,2.433,2.3803,2.3421,2.3421,2.3221,2.3095,2.3095,2.2769,2.2292,2.1653,2.1282,2.05,1.9235,1.9183,1.8788,1.7952,1.7475,1.722,1.722,1.6762,1.6614,1.6788,1.6484,1.6514,4.7327,4.8545,4.9304,4.9824,4.9354,4.8521,4.7584,4.5503,4.3588,4.2874,4.1504,4.0214,3.9487,3.9457,4.0147,4.2068,4.2959,4.4118,4.6052,4.5783,4.5155,4.4496,4.3828,4.324,4.262,4.306,4.3648,4.4317,4.4945,4.5603,4.6249,4.695,4.7279,4.7249,4.6621,4.5933,4.5244,4.4586,4.3958,4.329,4.329,4.329,4.329,4.329,4.326,4.317,4.1923,4.1392,4.1235,3.9948,3.9373,3.9373,3.9373,3.9373,3.9373,3.9373,3.899,3.8302,3.7674,3.6626,3.5549,3.5519,3.5519,3.5519,3.5519,3.5519,3.5519,3.5519,3.5519,3.5519,3.5519,3.5519,3.5519,3.5519,3.5519,3.534,3.4713,3.3897,3.3111,3.2442,3.1108,3.0077,3.0012,2.8768,2.7769,2.7769,2.6598,2.5493,2.4933,2.4381,2.4029,2.4004,2.3471,2.3145,2.3095,2.3095,2.2869,2.2368,2.2347,2.1807,2.0553,2.05,1.9922,1.8669,1.8612,1.8612,1.8612,1.8554,1.878,1.9283,1.8443,1.8503,4.7736,4.9661,5.149,5.163,5.0592,4.9284,4.8518,4.607,4.359,4.2384,4.133,4.0253,3.903,4.016,4.1338,4.1623,4.354,4.5291,4.6196,4.6591,4.6561,4.5903,4.5622,4.5304,4.4616,4.4706,4.4855,4.5035,4.5185,4.5603,4.6249,4.695,4.707,4.6591,4.5903,4.5244,4.4556,4.3858,4.3469,4.329,4.329,4.329,4.329,4.329,4.306,4.2551,4.1782,4.1115,4.0576,3.9768,3.9373,3.9373,3.9373,3.9373,3.9373,3.9373,3.899,3.8362,3.8182,3.7315,3.6148,3.5669,3.5519,3.5519,3.5519,3.5519,3.5519,3.5519,3.5519,3.5519,3.5519,3.5519,3.5519,3.5519,3.5519,3.5459,3.528,3.5058,3.472,3.4038,3.2285,3.069,3.0081,2.9261,2.8684,2.8684,2.7833,2.6723,2.556,2.4933,2.4456,2.4029,2.3879,2.3602,2.3145,2.3095,2.3045,2.2895,2.2895,2.2555,2.1861,2.1836,2.1477,2.0765,2.0203,1.9917,1.9893,1.9343,1.9177,1.9313,1.9074,1.9104,4.9661,5.1319,5.2739,5.2401,5.1094,4.9659,4.8593,4.5929,4.3201,4.1484,4.0182,3.8952,3.7552,3.8567,3.9975,4.1037,4.2683,4.4624,4.6837,4.715,4.7241,4.7608,4.7688,4.741,4.6739,4.6956,4.711,4.711,4.6273,4.5903,4.6249,4.695,4.713,4.677,4.5813,4.4855,4.3858,4.3469,4.329,4.329,4.329,4.329,4.329,4.329,4.297,4.2351,4.1692,4.0995,4.0337,3.9679,3.9373,3.9373,3.9373,3.9373,3.9373,3.9373,3.917,3.8751,3.8153,3.7494,3.6776,3.6148,3.5729,3.5519,3.5519,3.5519,3.5519,3.5519,3.5519,3.5519,3.5519,3.5519,3.5519,3.5519,3.5519,3.5519,3.5519,3.5519,3.531,3.4653,3.35,3.2326,3.1274,3.0469,2.9876,2.9594,2.8844,2.7996,2.7196,2.5953,2.5034,2.4732,2.4506,2.413,2.3521,2.3471,2.3371,2.312,2.3095,2.297,2.2644,2.2644,2.2422,2.187,2.142,2.1218,2.1218,2.084,2.073,2.0968,2.0607,2.0637,5.1961,5.2875,5.3315,5.2503,5.1183,4.9695,4.8105,4.5377,4.258,4.052,3.8818,3.7315,3.6001,3.6506,3.7987,4.0506,4.1586,4.3517,4.7695,4.7669,4.7792,4.9335,4.9544,4.9288,4.8716,4.916,4.9544,4.9544,4.7852,4.6792,4.6623,4.7292,4.7619,4.7437,4.6199,4.4931,4.3693,4.3693,4.3615,4.3527,4.3527,4.3448,4.329,4.329,4.294,4.2231,4.1662,4.0965,4.0217,3.9649,3.9373,3.9409,3.9553,3.9517,3.9409,3.9553,3.9517,3.926,3.8202,3.7657,3.7285,3.6596,3.5968,3.5519,3.5519,3.5519,3.5519,3.5519,3.5519,3.5519,3.5519,3.5519,3.5519,3.5519,3.5519,3.5519,3.5519,3.5519,3.534,3.4773,3.4563,3.4144,3.2976,3.2042,3.1321,3.0681,2.9834,2.9275,2.916,2.7326,2.5993,2.5785,2.5347,2.4803,2.4155,2.4029,2.3778,2.3246,2.3145,2.3095,2.3095,2.3095,2.2869,2.2422,2.2422,2.2422,2.2422,2.2422,2.2644,2.3065,2.2372,2.2433,5.2232,5.2875,5.3315,5.2503,5.1183,4.9526,4.7462,4.4671,4.2031,4.0441,3.89,3.7593,3.6721,3.8187,3.9827,4.0758,4.2966,4.5467,4.7942,4.8647,4.9216,5.0141,5.0205,5.0173,5.0083,5.0141,5.0205,5.0205,4.9857,4.9299,4.8409,4.9313,4.9346,4.8175,4.7357,4.6565,4.5742,4.571,4.5306,4.4548,4.4548,4.412,4.329,4.329,4.2671,4.1572,4.1482,4.0696,3.9589,3.9433,3.9373,3.9481,4.017,4.0025,3.9481,4.0205,4.0025,3.9487,3.9964,3.893,3.7225,3.6058,3.5609,3.5519,3.5519,3.5519,3.5519,3.5519,3.5519,3.5519,3.5519,3.5519,3.5519,3.5519,3.5519,3.5519,3.5519,3.5519,3.5459,3.534,3.4861,3.4444,3.4204,3.3571,3.2853,3.2228,3.1385,3.063,3.0144,2.908,2.7948,2.679,2.6594,2.6045,2.4796,2.4255,2.3954,2.3853,2.3371,2.3095,2.3095,2.3095,2.307,2.297,2.297,2.297,2.297,2.297,2.302,2.3095,2.2944,2.2975,5.2807,5.3213,5.3213,5.2029,5.0338,4.8274,4.5635,4.2997,4.0654,3.8759,3.7845,3.7077,3.6332,3.7381,3.8848,4.0274,4.1559,4.3729,4.7572,4.8282,4.9156,5.1163,5.1759,5.2026,5.2026,5.2026,5.2026,5.2026,5.2026,5.1336,4.9734,5.0126,4.9757,4.8317,4.8002,4.7297,4.6208,4.6208,4.5961,4.5525,4.5525,4.5269,4.4787,4.4787,4.4297,4.334,4.2962,4.2217,4.1289,4.0913,4.0724,4.0792,4.1198,4.1129,4.0792,4.1229,4.1129,4.0761,4.0822,4.0158,3.9052,3.7716,3.6471,3.5519,3.5519,3.5519,3.5519,3.5519,3.5519,3.5519,3.5519,3.5519,3.5519,3.5519,3.5519,3.5519,3.5519,3.5519,3.5519,3.5519,3.525,3.4891,3.4563,3.4234,3.3784,3.3125,3.2345,3.1748,3.1455,3.0802,2.97,2.8175,2.7994,2.762,2.6653,2.5918,2.5439,2.5236,2.4192,2.3634,2.3721,2.3305,2.3095,2.3095,2.3095,2.3095,2.3095,2.3095,2.3095,2.3095,2.3095,2.3095,5.3078,5.3382,5.3145,5.1589,4.9528,4.7094,4.4085,4.1576,3.93,3.7235,3.666,3.6332,3.5701,3.6265,3.754,3.974,4.0081,4.192,4.714,4.7918,4.8993,5.1963,5.301,5.3518,5.3518,5.3518,5.3518,5.3518,5.3518,5.28,5.115,5.0855,5.0236,4.9163,4.9001,4.8323,4.7059,4.6896,4.6696,4.6488,4.6488,4.6384,4.6208,4.6208,4.5824,4.5154,4.4413,4.3743,4.3039,4.2302,4.1981,4.2013,4.2205,4.2141,4.2013,4.2237,4.2173,4.1949,4.1625,4.1273,4.0859,3.9916,3.8118,3.6219,3.6035,3.6005,3.5973,3.5782,3.5718,3.5686,3.5522,3.5519,3.5519,3.5519,3.5519,3.5519,3.5519,3.5519,3.5519,3.5519,3.5519,3.534,3.4833,3.4713,3.4472,3.3814,3.3275,3.2826,3.2557,3.2019,3.1132,2.9687,2.938,2.9028,2.8432,2.7646,2.7062,2.6796,2.5478,2.4736,2.4751,2.4142,2.3646,2.3365,2.3365,2.3275,2.3095,2.3095,2.3095,2.3095,2.3095,2.3095,5.2401,5.2942,5.3145,5.1589,4.9528,4.7094,4.4085,4.117,3.8667,3.7134,3.6231,3.5667,3.56,3.6265,3.754,3.974,4.0645,4.2679,4.7263,4.8483,4.9702,5.2029,5.301,5.3518,5.3518,5.3518,5.3518,5.3518,5.3518,5.3416,5.3246,5.2277,5.1808,5.1933,5.126,5.052,4.9744,4.907,4.8289,4.7473,4.7473,4.7004,4.6208,4.6208,4.5824,4.5154,4.4413,4.3743,4.3039,4.2302,4.1981,4.2109,4.2862,4.2676,4.2109,4.2894,4.2676,4.2077,4.2827,4.2156,4.1112,4.177,4.0437,3.8444,3.7809,3.7589,3.7442,3.6691,3.6508,3.6322,3.5653,3.5519,3.5519,3.5519,3.5519,3.5519,3.5519,3.5519,3.5519,3.5519,3.5519,3.5489,3.5429,3.54,3.519,3.4533,3.4354,3.3873,3.2677,3.2437,3.2139,3.1337,3.0628,2.9815,2.8983,2.8422,2.8063,2.8044,2.74,2.6762,2.624,2.6127,2.5507,2.4218,2.4192,2.3839,2.3095,2.3095,2.3095,2.3095,2.3095,2.3095,5.1928,5.2875,5.3145,5.1589,4.9221,4.6447,4.3436,4.046,3.7922,3.64,3.5802,3.56,3.56,3.5836,3.6671,3.8464,3.9005,4.046,4.4045,4.5162,4.6786,4.9932,5.098,5.1995,5.3382,5.3518,5.3518,5.3518,5.3518,5.3518,5.3518,5.311,5.2706,5.2334,5.1589,5.0845,5.0101,4.9357,4.8829,4.845,4.845,4.8257,4.7868,4.7868,4.7735,4.7437,4.6741,4.5978,4.528,4.452,4.3989,4.3621,4.3948,4.3856,4.3621,4.3977,4.3856,4.3588,4.3977,4.3689,4.3119,4.3003,4.2355,4.1229,3.9072,3.8459,3.8304,3.7537,3.7322,3.7233,3.6935,3.6874,3.6874,3.6874,3.6508,3.6165,3.6165,3.5814,3.5519,3.5519,3.5519,3.5519,3.5519,3.5519,3.54,3.513,3.4773,3.4324,3.3754,3.3006,3.2378,3.2108,3.1456,3.0866,3.051,2.9888,2.9513,2.9581,2.8501,2.7615,2.7087,2.6973,2.6515,2.5593,2.5566,2.5393,2.5074,2.4698,2.4483,2.4454,2.4018,2.3839,5.0574,5.1894,5.2469,5.0947,4.8511,4.5669,4.2658,3.9851,3.7483,3.5904,3.56,3.56,3.56,3.56,3.6039,3.7347,3.7753,3.887,4.1576,4.2794,4.4525,4.7665,4.868,4.9999,5.2266,5.3112,5.3518,5.3518,5.3518,5.3518,5.3518,5.3518,5.3247,5.2672,5.1725,5.0947,5.0439,4.9492,4.9018,4.9018,4.9018,4.9018,4.9018,4.9018,4.9018,4.8951,4.824,4.7496,4.6718,4.6007,4.5263,4.4615,4.4615,4.4615,4.4615,4.4615,4.4615,4.4615,4.4615,4.4615,4.4513,4.3944,4.3775,4.3311,4.0931,3.9928,3.9418,3.8703,3.8155,3.7793,3.7793,3.7793,3.7793,3.7793,3.7352,3.6934,3.6934,3.6569,3.6164,3.6164,3.6164,3.6164,3.6164,3.5975,3.5846,3.5846,3.523,3.4743,3.4533,3.3664,3.2946,3.2557,3.2079,3.172,3.1511,3.0955,3.069,3.0795,2.9783,2.8941,2.8413,2.8311,2.7853,2.7003,2.6975,2.6861,2.666,2.6021,2.5771,2.5937,2.5042,2.4624,4.7939,4.9528,5.0879,4.939,4.7361,4.4925,4.1914,3.9512,3.7483,3.5904,3.56,3.56,3.56,3.56,3.5893,3.6694,3.7415,3.87,4.0899,4.2489,4.3984,4.5568,4.638,4.7699,4.9898,5.2164,5.3518,5.3518,5.3518,5.3518,5.3518,5.3518,5.3518,5.3484,5.1995,5.1185,5.1217,4.9729,4.9018,4.9018,4.9018,4.9018,4.9018,4.9018,4.9018,4.8951,4.824,4.7496,4.6718,4.6007,4.5263,4.4615,4.4615,4.4615,4.4615,4.4615,4.4615,4.4615,4.4615,4.4615,4.4615,4.4615,4.4581,4.4418,4.3612,4.2327,4.1013,4.0276,3.8999,3.7793,3.7793,3.7793,3.7793,3.7793,3.7793,3.7793,3.7793,3.7793,3.7793,3.7793,3.7793,3.7793,3.7793,3.7114,3.6569,3.6569,3.5975,3.525,3.4593,3.4503,3.3963,3.2647,3.2467,3.2198,3.157,3.1511,3.1511,3.1481,3.1452,3.1182,3.0522,3.0464,2.9829,2.8396,2.8396,2.8026,2.7299,2.6687,2.6687,2.7244,2.5965,2.5412,4.5974,4.7293,4.797,4.6989,4.5432,4.3477,4.1009,3.914,3.7483,3.5904,3.56,3.56,3.56,3.56,3.6174,3.799,3.8091,3.8667,4.0899,4.2049,4.3606,4.6143,4.9357,5.1657,5.2367,5.3078,5.3518,5.3518,5.3518,5.3518,5.3518,5.3518,5.3247,5.2706,5.1725,5.098,5.0439,4.9492,4.9018,4.9018,4.9018,4.9018,4.9018,4.9018,4.9018,4.8984,4.8748,4.824,4.753,4.7327,4.6481,4.5365,4.5365,4.5026,4.4615,4.4615,4.4615,4.4615,4.4615,4.4615,4.4615,4.4615,4.4615,4.4547,4.4282,4.3166,4.1719,4.0464,3.9759,3.9375,3.9375,3.9375,3.9375,3.9375,3.8968,3.8553,3.8553,3.8161,3.7793,3.7793,3.7793,3.7793,3.7793,3.7618,3.7411,3.7411,3.7235,3.6993,3.6772,3.6362,3.592,3.548,3.4554,3.3326,3.1658,3.1511,3.1511,3.1511,3.1511,3.1182,3.0522,3.0943,3.0768,2.9829,2.9829,2.9717,2.9489,2.8874,2.8419,2.8026,2.7655,2.7173,4.3741,4.5162,4.5771,4.5026,4.3707,4.2057,4.0155,3.8531,3.7144,3.5836,3.56,3.56,3.56,3.5778,3.6376,3.7775,3.8288,3.8906,4.0051,4.163,4.3564,4.607,4.983,5.2329,5.2618,5.3435,5.3913,5.3913,5.3913,5.3816,5.3484,5.3518,5.3145,5.2334,5.1589,5.098,5.0507,4.9526,4.9018,4.9018,4.9018,4.9018,4.9018,4.9018,4.9018,4.9018,4.9018,4.8578,0.0,4.7906,4.7162,4.6075,4.5805,4.5432,4.4959,4.4716,4.4615,4.4615,4.4615,4.4615,4.4615,4.4615,4.4615,4.4547,4.4215,4.347,4.2422,4.0933,4.0519,4.0451,4.018,4.0113,4.0113,4.0113,3.9714,3.9342,3.9342,3.8995,3.8668,3.8668,3.8668,3.8668,3.8668,3.8414,3.8218,3.8218,3.7962,3.7793,3.7793,3.7434,3.7078,3.685,3.6014,3.4839,3.327,3.2367,3.178,3.1511,3.1511,3.1301,3.0883,3.1271,3.1301,3.0883,3.0881,3.0881,3.0881,3.0492,2.9822,2.8874,2.9109,2.8825,0.0,4.3078,4.3938,4.3254,4.2035,4.0646,3.9199,3.7801,0.0,3.5802,3.5622,3.5622,3.5779,3.6148,3.6485,3.6665,3.8269,3.9362,3.8951,4.1637,4.432,4.6062,4.8761,5.0799,5.1541,5.348,5.4665,5.4665,5.4665,5.4391,5.3684,5.3685,5.3311,5.2564,5.1751,5.128,5.115,4.9763,4.9052,4.9018,4.9018,4.9018,4.9018,4.9018,4.9018,4.9018,4.9018,4.8612,4.7973,4.7973,4.7564,4.6786,4.6075,4.5771,4.5602,4.4886,4.4615,4.4615,4.4615,4.4615,4.4615,4.4615,4.4615,4.4479,4.3707,4.3443,4.3105,4.1677,4.1238,4.1035,4.0383,4.0146,4.0113,4.0113,4.0113,4.0113,4.0113,4.0113,4.0113,4.0113,4.0113,4.0113,4.0113,3.9506,3.8989,3.8989,3.8386,3.7966,3.7966,3.7966,3.7737,3.7086,3.6993,3.6676,3.5996,3.4001,3.2435,3.1773,3.1743,3.1713,3.1653,3.1653,3.1625,3.1597,3.1539,3.1539,3.1597,3.1539,3.0883,2.9771,3.0313,3.0283,3.9909,0.0,3.951,3.9695,3.9468,3.8894,0.0,3.7342,3.7137,3.6379,3.5876,3.6024,3.749,3.7004,3.713,3.9238,3.9549,4.007,4.1666,4.5634,4.9203,5.1337,5.3239,5.4454,5.4655,5.5149,5.5437,5.5437,5.5437,5.5379,5.5173,5.5173,5.5103,5.4893,5.3596,5.2067,5.0403,4.9999,4.956,4.9018,4.9018,4.9018,4.9018,4.9018,4.9018,4.9018,4.9018,4.8917,4.8748,4.8748,4.8308,4.7597,4.6819,4.621,4.5602,4.4886,4.4615,4.4615,4.4615,4.4615,4.4615,4.4615,4.4615,4.4581,4.4378,4.3876,4.3206,4.2286,4.1644,4.117,4.1001,4.0493,4.0113,4.0113,4.0113,4.0113,4.0113,4.0113,4.0113,4.0113,4.0113,4.0113,4.0113,3.9952,3.9825,3.9825,3.9662,3.9558,3.9558,3.9558,3.9492,3.935,3.8784,3.8166,3.7557,3.5947,3.4699,3.4009,3.3945,3.3698,3.3135,3.3103,3.2895,3.2355,3.1796,3.1768,3.2355,3.1768,3.1361,3.1062,3.1182,3.1182,3.8857,3.8922,3.92,3.9473,3.9279,3.8831,3.8205,3.7694,3.7271,3.6851,3.656,3.6643,3.7662,3.772,3.8132,3.9663,4.0719,4.2413,4.5587,4.8306,5.0996,5.3627,5.498,5.5865,5.6232,5.6259,5.6259,5.6259,5.6259,5.6087,5.5724,5.5724,5.5724,5.5724,5.4528,5.3176,5.1637,5.0916,5.0362,4.9982,4.9982,4.9982,4.9982,4.9982,4.9982,4.9953,4.961,4.9462,4.9432,4.9138,4.8781,4.8342,4.7597,4.6853,4.6109,4.5365,4.4886,4.4615,4.4615,4.4615,4.4615,4.4615,4.4615,4.4615,4.4615,4.4282,4.3775,4.3031,4.2523,4.2049,4.1373,4.0899,4.0493,4.018,4.0113,4.0113,4.0113,4.0113,4.0113,4.0113,4.0113,4.0113,4.0113,4.0113,4.0113,4.0113,4.0113,4.0113,4.0113,4.0113,4.0113,4.0113,3.9714,3.9313,3.8998,3.8254,3.7032,3.5332,3.5214,3.5022,3.4611,3.4264,3.3762,3.3082,3.268,3.268,3.3082,3.268,3.2461,3.2461,3.2461,3.2461,3.8651,3.9623,4.0791,4.0461,4.0,3.9593,3.9514,3.8454,3.7482,3.7482,3.7425,3.7461,3.7753,3.8708,3.9588,3.9912,4.2356,4.5571,4.951,5.0402,5.1729,5.4581,5.5588,5.634,5.7015,5.7065,5.7065,5.7065,5.7065,5.6773,5.6087,5.6059,5.6059,5.6059,5.5284,5.4572,5.3922,5.2147,5.1263,5.1263,5.1183,5.1086,5.1086,5.1086,5.1086,5.106,5.0445,0.0,5.0118,4.9432,4.9168,4.907,4.8237,4.7556,4.7024,4.6146,4.5518,4.505,4.4913,4.4879,4.4879,4.4879,4.4797,4.4748,4.4748,4.4665,4.4479,4.3912,4.3586,4.3105,4.188,4.1373,4.1035,4.0417,4.018,4.0113,4.0113,4.0113,4.0113,4.0113,4.0113,4.0113,4.0113,4.0113,4.0113,4.0113,4.0113,4.0113,4.0113,4.0113,4.0113,4.0113,4.0113,4.0113,4.0113,4.0113,3.9049,3.6604,3.6362,3.6238,3.6141,3.5427,3.4788,3.4251,3.3918,3.3835,3.3937,3.3707,3.3598,3.3598,3.3598,3.3688,4.065,4.1311,4.1611,3.977,3.9752,4.0055,3.9688,3.9187,3.8797,3.8797,3.8506,3.8683,4.0229,4.0852,4.1724,4.3559,4.5938,4.8524,5.1287,5.2849,5.4391,5.6254,5.7167,5.7703,5.7821,5.7821,5.7821,5.7821,5.7821,5.7774,5.7642,5.7642,5.7642,5.7642,5.6852,5.6377,5.6291,5.3432,5.2051,5.2104,5.1431,5.1086,5.1086,5.1086,5.1086,5.1086,0.0,5.0929,5.0876,5.0146,4.9867,4.974,4.8413,4.8182,4.8404,4.6995,4.6804,4.7125,4.6372,4.6136,4.6136,4.6136,4.5765,4.5372,4.5372,4.5015,4.4659,4.505,4.4304,4.3341,4.3105,4.2151,4.117,4.1068,4.0527,4.0113,4.0113,4.0113,4.0113,4.0113,4.0113,4.0113,4.0113,4.0113,4.0113,4.0113,4.0113,4.0113,4.0113,4.0113,4.0113,4.0113,4.0113,4.0113,4.0113,4.0113,3.9902,3.9463,3.8833,3.8228,3.7599,3.687,3.6721,3.723,3.5466,3.4833,3.5391,3.4194,3.3598,3.3598,3.3598,3.3944,4.0031,4.0708,4.1539,4.0988,4.141,4.1867,4.1198,4.0598,4.019,4.019,4.0,4.0127,4.0956,4.2262,4.4291,4.7461,4.893,5.0655,5.3518,5.4583,5.5647,5.7262,5.7776,5.7997,5.7997,5.7997,5.7997,5.7997,5.7997,5.7997,5.7997,5.7997,5.7997,5.7997,5.7226,5.6822,5.6822,5.4529,5.3412,5.3435,5.2616,5.2219,5.2219,5.2219,5.2219,5.2196,0.0,5.1643,5.1593,5.0876,5.0581,5.0519,4.9875,4.9575,4.9302,4.7758,4.7396,4.7594,4.6696,4.6389,4.6389,4.6389,4.6233,4.5989,4.5989,4.5765,4.5622,4.5915,4.5044,4.4102,4.4353,4.368,4.2918,4.284,4.2013,4.1326,4.1591,4.1101,4.0563,4.0528,4.0528,4.0441,4.0129,4.0113,4.0113,4.0113,4.0113,4.0113,4.0113,4.0113,4.0113,4.0113,4.0113,4.0113,4.0113,4.0113,4.0113,4.0113,3.9774,3.9242,3.8531,3.8161,3.7935,3.7898,3.6928,3.6356,3.6281,3.6025,3.5737,3.534,3.5737,3.6133,3.9827,4.0288,4.1279,4.2103,4.2763,4.324,4.3387,4.2506,4.1829,4.2379,4.2343,4.2196,4.2196,4.4232,4.6985,5.0508,5.1389,5.2637,5.5464,5.5868,5.6418,5.7813,5.7997,5.7997,5.7997,5.7997,5.7997,5.7997,5.7997,5.7997,5.7997,5.7997,5.7997,5.7997,5.7409,5.7079,5.7079,5.55,5.4583,5.4399,5.3592,5.3203,5.3203,5.3203,5.3203,5.3146,5.2599,5.2358,5.2312,5.1593,5.1343,5.1317,5.1164,5.0728,5.0087,4.9103,4.8578,4.8327,4.7459,4.7173,4.7137,4.69,4.6738,4.6623,4.6623,4.6507,4.6413,4.6577,4.584,4.5077,4.547,4.5093,4.4572,4.4491,4.3557,4.273,4.2935,4.2176,4.1417,4.1162,4.1093,4.099,4.0587,4.049,4.0441,4.0328,4.0303,4.0254,4.0138,4.0113,4.0113,4.0113,4.0113,4.0113,4.0113,4.0113,4.0113,4.0113,4.0113,3.9842,3.9276,3.9242,3.8971,3.843,3.8261,3.7889,3.7337,3.7719,3.7618,3.7066,3.7652,3.799,4.1882,4.1572,4.1279,4.2103,4.2323,4.3167,4.6085,4.4966,4.3975,4.6195,4.6067,4.5553,4.5553,4.7572,4.9831,5.161,5.3151,5.473,5.6492,5.6712,5.7042,5.7886,5.7997,5.7997,5.7997,5.7997,5.7997,5.7997,5.7997,5.7997,5.7997,5.7997,5.7997,5.7997,5.7923,5.7923,5.7923,5.6308,5.5133,5.4399,5.3592,5.3203,5.3203,5.3203,5.3203,5.3203,5.3124,5.3124,5.3082,5.2335,5.2042,5.1994,5.1343,5.1005,5.0898,5.1478,5.1213,5.046,4.9638,4.9382,4.9235,4.841,4.7777,4.7342,4.7342,4.691,4.6507,4.7132,4.6819,4.627,4.6295,4.5788,4.5244,4.522,4.4594,4.3851,4.3129,4.293,4.2638,4.1888,4.1746,4.1725,4.1703,4.1682,4.1508,4.1036,4.0885,4.0638,4.0154,4.0113,4.0113,4.0113,4.0113,4.0113,4.0113,4.0113,4.0113,4.0113,4.0113,4.0079,4.0011,4.0011,4.0011,3.9943,3.9276,3.887,3.8836,3.8227,3.7889,3.7821,3.7889,3.8261,4.0855,4.1332,4.1919,4.2213,4.3057,4.4121,4.5315,4.5682,4.6287,4.8233,4.882,4.8967,4.8967,4.9701,5.1022,5.3151,5.4399,5.5721,5.7336,5.7556,5.7666,5.796,5.7997,5.7997,5.7997,5.7997,5.7997,5.7997,5.7997,5.7997,5.7997,5.7997,5.7997,5.7997,5.7997,5.7776,5.7262,5.6161,5.5207,5.4399,5.3592,5.3203,5.3203,5.3203,5.3203,5.3203,5.3203,5.3203,5.3203,5.2915,5.2769,5.2747,5.2486,5.2372,5.228,5.2077,5.1793,5.1426,5.0618,5.0014,4.9537,4.9243,4.8573,4.7975,4.7975,4.7797,4.7617,4.7879,4.7777,4.7575,4.7575,4.7089,4.6701,4.7063,4.6317,4.5486,4.5526,4.4874,4.4217,4.3909,4.3837,4.3555,4.2697,4.2562,4.2298,4.16,4.1486,4.1397,4.1173,4.115,4.115,4.115,4.115,4.099,4.0625,4.092,4.099,4.0625,4.0269,4.0113,4.0113,4.0113,4.0113,4.0113,3.9842,3.9469,3.9005,3.9174,3.9039,3.8599,3.9039,3.9436,4.0487,4.1075,4.1992,4.2249,4.3497,4.4966,4.5993,4.7095,4.8489,5.0675,5.1132,5.1169,5.1169,5.1169,5.1903,5.4032,5.528,5.6455,5.7813,5.7997,5.7997,5.7997,5.7997,5.7997,5.7997,5.7997,5.7997,5.7997,5.7997,5.7997,5.7997,5.7997,5.7997,5.7997,5.7997,5.774,5.7189,5.6124,5.5317,5.4766,5.3702,5.3203,5.3203,5.3203,5.3203,5.3203,5.3203,5.3203,5.3203,5.3203,5.3203,5.3203,5.3203,5.3203,5.3151,5.2564,5.238,5.227,5.1463,5.0802,5.0308,5.0068,4.9591,4.904,4.8783,4.871,4.8636,4.8379,4.8306,4.8306,4.8306,4.7995,4.7777,4.8209,4.7614,4.6944,4.7074,4.6389,4.5665,4.5411,4.5338,4.5039,4.4099,4.393,4.3668,4.2965,4.2638,4.2376,4.2207,4.1952,4.181,4.181,4.181,4.1603,4.1206,4.1538,4.1603,4.1206,4.0861,4.0466,4.0138,4.0279,4.0279,4.0113,4.0113,3.9842,3.9368,3.9876,3.9842,3.9343,3.9876,4.0113,4.1315,4.1095,4.1315,4.2139,4.3534,4.559,4.8783,4.9574,5.0565,5.3775,5.3151,5.205,5.2013,5.2013,5.2564,5.4142,5.5757,5.7079,5.7886,5.7997,5.7997,5.7997,5.7997,5.7997,5.7997,5.7997,5.7997,5.7997,5.7997,5.7997,5.7997,5.7997,5.7997,5.7997,5.7997,5.7997,5.7997,5.6381,5.5633,5.5596,5.3995,5.3203,5.3203,5.3203,5.3203,5.3203,5.3203,5.3203,5.3203,5.3203,5.3203,5.3203,5.3203,5.3203,5.3203,5.3203,5.3203,5.3115,5.227,5.2013,5.1867,5.1059,5.0802,5.0655,4.9867,4.961,4.9427,4.8563,4.8306,4.8306,4.8306,4.8306,4.8306,4.8306,4.8306,4.8067,4.7259,4.7113,4.6892,4.6067,4.592,4.592,4.592,4.592,4.5736,4.518,4.4449,4.3708,4.3095,4.2314,4.181,4.181,4.181,4.181,4.181,4.181,4.181,4.181,4.181,4.1308,4.0154,4.0625,4.0672,4.0138,4.0113,4.0113,4.0113,4.0113,4.0113,4.0113,4.0113,4.0113,4.1168,4.1499,4.2286,4.3644,4.6067,4.8673,5.0765,5.172,5.3041,5.6271,5.6088,5.5207,5.462,5.4531,5.4715,5.517,5.6124,5.7079,5.7886,5.7997,5.7997,5.7997,5.7997,5.7997,5.7997,5.7997,5.7997,5.7997,5.7997,5.7997,5.7997,5.7997,5.7997,5.7997,5.7997,5.7997,5.7997,5.6969,5.6161,5.5574,5.4546,5.3739,5.3203,5.3203,5.3203,5.3203,5.3203,5.3203,5.3203,5.3203,5.3203,5.3203,5.3203,5.3203,5.3203,5.3203,5.3203,5.3167,5.2931,5.2454,5.194,5.172,5.1242,5.0765,5.0508,5.0435,5.0251,4.9444,4.9206,4.9077,4.8453,4.8306,4.8306,4.8306,4.8306,4.8233,4.8012,4.792,4.7865,4.7645,4.7609,4.7425,4.6819,4.6746,4.6488,4.5772,4.546,4.5039,4.4305,4.3486,4.2829,4.2462,4.2753,4.2829,4.2462,4.2772,4.281,4.2442,4.2772,4.2485,4.1353,4.1464,4.1464,4.1308,4.0874,4.0638,4.0672,4.0303,4.0113,4.0113,4.0113,4.0113,4.1905,4.2727,4.3997,4.6104,4.8644,5.123,5.3869,5.4552,5.528,5.7519,5.7116,5.6271,5.6088,5.5794,5.5684,5.6014,5.6748,5.7446,5.7923,5.7997,5.7997,5.7997,5.7997,5.7997,5.7997,5.7997,5.7997,5.7997,5.7997,5.7997,5.7997,5.7997,5.7997,5.7997,5.7997,5.7997,5.7997,5.7189,5.6418,5.5574,5.4766,5.3995,5.3203,5.3203,5.3203,5.3203,5.3203,5.3203,5.3203,5.3203,5.3203,5.3203,5.3203,5.3203,5.3203,5.3203,5.3203,5.3203,5.3203,5.2894,5.2491,5.2491,5.216,5.1683,5.1353,5.1279,5.1096,5.0288,5.0068,4.9884,4.904,4.882,4.871,4.8379,4.8306,4.8306,4.8306,4.8306,4.8306,4.8306,4.8306,4.8159,4.7663,4.759,4.7406,4.6948,4.6581,4.5993,4.4838,4.4268,4.3722,4.3105,4.3303,4.3356,4.305,4.3303,4.3356,4.305,4.3321,4.3178,4.2485,4.2246,4.2041,4.181,4.1429,4.1251,4.1251,4.092,4.0767,4.0767,4.0767,4.0767,4.3122,4.4322,4.6076,4.9074,5.1185,5.355,5.7423,5.7655,5.7214,5.7904,5.6867,5.6051,5.6785,5.6308,5.6051,5.6785,5.7519,5.7997,5.7997,5.7997,5.7997,5.7997,5.7997,5.7997,5.7997,5.7997,5.7997,5.7997,5.7997,5.7997,5.7997,5.7997,5.7997,5.7997,5.7997,5.802,5.8051,5.7257,5.6493,5.5711,5.488,5.4107,5.3334,5.323,5.3203,5.3203,5.3203,5.3203,5.3203,5.3203,5.3203,5.3203,5.3203,5.3203,5.3203,5.3203,5.3203,5.3203,5.3203,5.3203,5.3203,5.3203,5.3203,5.3078,5.2344,5.2087,5.194,5.1132,5.0912,5.0729,4.9941,4.9647,4.939,4.86,4.8379,4.8306,4.8306,4.8306,4.8306,4.8306,4.8306,4.8306,4.8306,4.8306,4.8306,4.8306,4.7626,4.6562,4.5095,4.4838,4.4488,4.3681,4.3608,4.3588,4.3515,4.3515,4.3515,4.3515,4.3515,4.3515,4.3515,4.305,4.2501,4.1979,4.1916,4.1874,4.1874,4.1832,4.181,4.181,4.181,4.181,4.3114,4.4523,4.6698,5.0529,5.4192,5.7272,5.8803,5.8985,5.8784,5.8595,5.7965,5.7519,5.7703,5.7593,5.7519,5.7703,5.7886,5.7997,5.7997,5.7997,5.7997,5.7997,5.7997,5.7997,5.7997,5.7997,5.7997,5.7997,5.7997,5.7997,5.7997,5.7997,5.7997,5.7997,5.7997,5.8186,5.8528,5.7691,5.7037,5.6589,5.5801,5.5013,5.4207,5.3504,5.3203,5.3203,5.3203,5.3203,5.3203,5.3203,5.3203,5.3203,5.3203,5.3203,5.3203,5.3203,5.3203,5.3203,5.3203,5.3203,5.3203,5.3203,5.3203,5.3167,5.3004,5.2931,5.2784,5.1977,5.172,5.1573,5.0765,5.0068,4.9537,4.9353,4.8783,4.8306,4.8306,4.8306,4.8306,4.8306,4.8306,4.8306,4.8306,4.8306,4.8306,4.8306,4.7626,4.6966,4.6636,4.603,4.5333,4.4525,4.4452,4.4195,4.3551,4.3515,4.3515,4.3515,4.3515,4.3515,4.3515,4.3374,4.3268,4.3123,4.2732,4.2518,4.2518,4.2021,4.181,4.181,4.181,4.181,4.3858,4.5826,4.8479,5.3187,5.6951,5.9555,5.9974,5.9901,5.9696,5.9407,5.9009,5.8673,5.8673,5.8503,5.8348,5.8348,5.8142,5.7997,5.7997,5.7997,5.7997,5.7997,5.8172,5.8238,5.802,5.8194,5.8238,5.802,5.8194,5.8348,5.8348,5.8528,5.8673,5.8673,5.8673,5.8776,5.9009,5.8166,5.745,5.6882,5.609,5.526,5.4468,5.4033,5.3833,5.3833,5.3833,5.3833,5.3833,5.3833,5.3833,5.3833,5.3833,5.3833,5.3795,5.3546,5.3504,5.3464,5.3272,5.3203,5.3203,5.3203,5.3203,5.3203,5.3203,5.3203,5.3115,5.2711,5.2564,5.238,5.1573,5.1059,5.0675,5.0251,4.9224,4.8306,4.8306,4.8306,4.8306,4.8306,4.8306,4.8306,4.8306,4.8306,4.8306,4.8306,4.792,4.7553,4.7149,4.6709,4.6012,4.4838,4.4691,4.4378,4.3588,4.3515,4.3515,4.3515,4.3515,4.3515,4.3515,4.3515,4.3515,4.3515,4.3232,4.3087,4.3087,4.2753,4.2602,4.2602,4.2602,4.2602,4.3989,4.6906,5.0478,5.5698,5.8781,6.0627,6.0781,6.0495,6.0203,6.0203,5.9792,5.9389,5.9389,5.9065,5.8815,5.8815,5.8503,5.8238,5.8238,5.8238,5.8238,5.8238,5.857,5.8673,5.8282,5.8591,5.8673,5.8282,5.8591,5.8815,5.8815,5.9176,5.9389,5.9389,5.9389,5.9348,5.932,5.8434,5.7635,5.692,5.6087,5.5367,5.4701,5.4701,5.4625,5.4484,5.4484,5.4484,5.4484,5.4484,5.4484,5.4484,5.4484,5.4484,5.4436,5.4066,5.3905,5.3851,5.3543,5.342,5.342,5.342,5.342,5.342,5.342,5.342,5.34,5.3355,5.3359,5.3252,5.2508,5.2274,5.2038,5.1374,5.0045,4.8882,4.8678,4.8512,4.8421,4.8514,4.8458,4.8402,4.8402,4.8363,4.8306,4.8306,4.8306,4.8086,4.7369,4.7296,4.6746,4.5278,4.5095,4.4745,4.3791,4.3718,4.3662,4.3515,4.3515,4.3515,4.3515,4.3515,4.3515,4.3515,4.3515,4.3515,4.3515,4.3515,4.3515,4.3515,4.3515,4.3515,4.1077,4.5722,5.1508,5.5885,5.8357,5.9858,6.0627,6.0757,6.0722,6.0722,5.9991,5.9389,5.9389,5.9337,5.9302,5.9302,5.9248,5.9212,5.9212,5.9212,5.9212,5.9212,5.9266,5.9266,5.9212,5.9266,5.9266,5.9212,5.9266,5.9302,5.9302,5.9354,5.9389,5.9389,5.9389,5.9235,5.8872,5.8058,5.7426,5.6975,5.6119,5.562,5.5554,5.5554,5.516,5.4484,5.4484,5.4484,5.4484,5.4484,5.4484,5.4484,5.4484,5.4484,5.4484,5.442,5.4404,5.4387,5.4359,5.4343,5.4343,5.4343,5.4343,5.4343,5.4343,5.4343,5.4221,5.3851,5.3995,5.4221,5.3684,5.3302,5.3005,5.2892,5.2171,5.1211,5.009,4.9296,4.8911,4.9265,4.9043,4.883,4.883,4.8513,4.8306,4.8306,4.8306,4.8269,4.8159,4.8159,4.7773,4.6892,4.6782,4.6159,4.4672,4.4562,4.4232,4.3551,4.3515,4.3515,4.3515,4.3515,4.3515,4.3515,4.3515,4.3515,4.3515,4.3515,4.3515,4.3515,4.3515,4.3515,4.3162,4.7317,5.1597,5.5357,5.755,5.905,5.9896,6.0435,6.0781,6.0781,6.0482,6.0175,6.0175,5.9962,5.9808,5.9808,5.9559,5.9389,5.9389,5.9389,5.9389,5.9389,5.9625,5.9712,5.9424,5.9625,5.9658,5.9407,5.9625,5.9808,5.9808,6.0059,6.0175,6.0175,5.9717,5.9366,5.9179,5.7914,5.6913,5.6291,5.5857,5.5703,5.5703,5.5703,5.5531,5.5173,5.5173,5.5173,5.5173,5.5173,5.5173,5.5173,5.5173,5.5173,5.5147,5.4905,5.4833,5.479,5.4563,5.4484,5.4484,5.4484,5.4484,5.4484,5.4484,5.4484,5.4452,5.4238,5.4338,5.4436,5.4238,5.4037,5.3887,5.367,5.3144,5.2688,5.2771,5.1666,5.0566,5.0281,5.0101,4.9828,4.9309,4.8915,4.864,4.864,4.8439,4.8306,4.8306,4.8306,4.7993,4.7186,4.7113,4.6636,4.548,4.5369,4.5223,4.4856,4.4415,4.4158,4.4158,4.3718,4.3515,4.3515,4.3515,4.3515,4.3515,4.3515,4.3515,4.3515,4.3515,4.3515,4.4077,4.7163,4.9673,5.3472,5.5895,5.7588,5.8627,5.9704,6.0473,6.0473,6.0666,6.0781,6.0781,6.0508,6.0297,6.0297,5.9977,5.9776,5.9776,5.9776,5.9776,5.9776,6.0074,6.0146,5.9808,6.0089,6.0132,5.9792,6.0089,6.0297,6.0297,6.061,6.0704,6.0473,5.9858,5.9319,5.8858,5.7396,5.6329,5.5703,5.5703,5.5818,5.6011,5.578,5.5818,5.6011,5.578,5.5703,5.5703,5.5703,5.5703,5.5703,5.5703,5.5703,5.5643,5.5375,5.5237,5.5212,5.4905,5.479,5.479,5.479,5.479,5.479,5.479,5.479,5.4775,5.4671,5.4716,5.4775,5.4671,5.4716,5.4745,5.4494,5.4125,5.3922,5.4234,5.3256,5.2137,5.1516,5.1333,5.0998,5.0113,4.9642,4.9321,4.908,4.8796,4.8604,4.8604,4.8604,4.8382,4.779,4.7716,4.7383,4.6587,4.6513,4.6402,4.6217,4.556,4.5085,4.4864,4.4191,4.3718,4.3515,4.3515,4.3515,4.3515,4.3515,4.3515,4.3515,4.3515,4.3515,4.0885,4.2777,4.4701,4.9711,5.2818,5.5126,5.6753,5.8396,5.9588,5.9588,6.0204,6.0781,6.0781,6.0769,6.0757,6.0757,6.0746,6.0734,6.0734,6.0734,6.0734,6.0734,6.0746,6.0757,6.0734,6.0746,6.0757,6.0734,6.0746,6.0757,6.0757,6.0781,6.0435,5.9588,5.9511,5.8742,5.7137,5.6203,5.5742,5.5703,5.5703,5.6126,5.6907,5.6088,5.6137,5.6907,5.6049,5.5703,5.5703,5.5703,5.5703,5.5703,5.5703,5.5703,5.5703,5.5692,5.5682,5.5682,5.5632,5.5621,5.5621,5.5621,5.5621,5.5621,5.5621,5.5621,5.5566,5.5173,5.535,5.5554,5.5173,5.5363,5.5621,5.561,5.5583,5.5055,5.3136,5.2947,5.3123,5.3084,5.2759,5.2209,5.1357,5.0916,5.0432,4.9588,4.9445,4.9431,4.9431,4.9431,4.9431,4.9393,4.9393,4.9031,4.823,4.8192,4.7867,4.7089,4.6652,4.6062,4.528,4.4841,4.4268,4.3497,4.3515,4.3515,4.3515,4.3515,4.3515,4.3515,4.3515,4.3515,3.9623,4.1623,4.3932,4.7394,5.0548,5.328,5.5011,5.7126,5.8896,5.9396,5.9742,6.0127,6.0704,6.0781,6.0781,6.0781,6.0781,6.0781,6.0781,6.0781,6.0781,6.0781,6.0781,6.0781,6.0781,6.0781,6.0781,6.0781,6.0781,6.0781,6.0781,6.0281,5.9819,5.9511,5.8473,5.7319,5.6175,5.5857,5.5703,5.5703,5.5703,5.5857,5.6165,5.6406,5.6714,5.7022,5.7242,5.6742,5.5742,5.6291,5.6203,5.5742,5.6329,5.6522,5.6522,5.6522,5.6896,5.7357,5.7357,5.7011,5.6637,5.7203,5.6973,5.6637,5.7203,5.7357,5.7335,5.7193,5.7278,5.722,5.6502,5.6444,5.6406,5.5818,5.5703,5.5489,5.4737,5.4715,5.4664,5.4126,5.3936,5.3525,5.267,5.2195,5.1863,5.1559,5.0809,5.0348,5.0348,4.9843,4.9489,4.9489,4.9489,4.939,4.9089,4.9051,4.8952,4.865,4.8008,4.7536,4.7235,4.66,4.6076,4.5829,4.5252,4.4495,4.3515,4.3515,4.3515,4.3515,4.3515,4.3515,3.8277,4.0085,4.2585,4.5701,4.7932,5.0202,5.3356,5.5357,5.6896,5.8011,5.8896,5.9665,6.0242,6.0589,6.0781,6.0781,6.0781,6.0781,6.0781,6.0781,6.0781,6.0781,6.0781,6.0781,6.0781,6.0781,6.0781,6.0781,6.0781,6.0666,6.0396,5.9819,5.9242,5.8665,5.7291,5.6291,5.5703,5.5703,5.5703,5.5703,5.5703,5.6011,5.6588,5.6868,5.733,5.7857,5.8165,5.7627,5.6626,5.7203,5.7088,5.6626,5.7203,5.7434,5.7434,5.7434,5.778,5.8319,5.8319,5.7934,5.7511,5.8127,5.7896,5.755,5.8127,5.8319,5.8319,5.8319,5.8319,5.8165,5.7588,5.7434,5.7203,5.6319,5.6137,5.6049,5.5742,5.5703,5.5549,5.5011,5.4895,5.4626,5.378,5.3398,5.3118,5.285,5.2133,5.161,5.161,5.1102,5.0633,5.0329,5.0329,5.0215,4.9949,4.9911,4.9911,4.9911,4.9288,4.878,4.8515,4.7878,4.737,4.7106,4.6526,4.5712,4.4735,4.4001,4.3614,4.3515,4.3515,4.3515,0.0,0.0,0.0,4.4402,4.4825,4.5778,5.1625,5.301,5.351,5.528,5.7627,5.9358,5.9435,6.0165,6.0742,6.0742,6.0781,6.0781,6.0781,6.0781,6.0781,6.0781,6.0781,6.0781,6.0781,6.0781,6.0781,6.0781,6.0781,6.0396,5.955,5.9435,5.8665,5.7022,5.6126,5.5703,5.5703,5.5703,5.5703,5.5742,5.5742,5.6626,5.828,5.7434,5.7973,5.9473,5.8704,5.8357,5.8357,5.8357,5.8319,5.8319,5.8319,5.8357,5.8357,5.8357,5.8357,5.8357,5.8357,5.8357,5.8357,5.8357,5.8357,5.8357,5.8357,5.8357,5.8357,5.8357,5.8357,5.8357,5.8357,5.8319,5.8088,5.7253,5.706,5.683,5.5972,5.578,5.5742,5.5703,5.5703,5.5434,5.4664,5.4549,5.4241,5.3395,5.3241,5.3241,5.3241,5.3241,5.2856,5.2,5.1885,5.1587,5.0789,5.0712,5.0712,5.0712,5.0336,4.9754,4.8976,4.8592,4.7988,4.7208,4.717,4.717,4.7157,4.5094,4.3923,4.3622,4.3586,4.3586,3.6885,0.0,0.0,0.0,0.0,0.0,4.6894,4.8202,4.9817,5.3972,5.4895,5.5703,5.8165,5.8819,5.8973,5.8973,6.0012,6.0781,6.0781,6.0781,6.0781,6.0781,6.0781,6.0781,6.0781,6.0781,6.0781,6.0781,6.0204,5.9742,5.9511,5.8357,5.7176,5.6088,5.5818,5.5703,5.5703,5.5703,5.6011,5.6637,5.6637,5.7203,5.8319,5.8665,5.905,5.9511,5.9935,6.0127,6.005,5.9435,5.8819,5.8357,5.8934,5.9165,5.9165,5.9165,5.9588,6.0127,6.0127,5.9704,5.9281,5.9896,5.9665,5.9281,5.9935,6.0127,6.0127,6.0127,6.0127,5.9973,5.9319,5.8742,5.8242,5.8011,5.7934,5.7857,5.7627,5.7588,5.7203,5.5934,5.5703,5.5626,5.5395,5.5357,5.528,5.5049,5.4511,5.4126,5.4126,5.3587,5.2856,5.2,5.1885,5.1587,5.0789,5.0712,5.0712,5.0712,5.0604,5.0448,5.0218,5.0106,4.992,4.969,4.9077,4.8635,4.8414,4.693,4.6168,4.6081,4.5452,4.5138,3.8123,3.9046,4.0508,4.12,0.0,0.0,4.574,4.6201,4.7163,5.1933,5.3087,5.3933,5.628,5.728,5.7742,5.7742,5.8896,5.9858,6.0204,6.055,6.0781,6.0781,6.0781,6.0781,6.0781,6.0781,6.0781,6.0781,5.9973,5.9204,5.8473,5.7176,5.6214,5.5703,5.5703,5.5857,5.6252,5.6252,5.6665,5.755,5.755,5.7973,5.8819,5.9281,5.9704,6.0089,6.0589,6.0781,6.0742,6.0242,5.9781,5.9396,5.9858,6.005,6.005,6.005,6.0358,6.0781,6.0781,6.0473,6.0127,6.0627,6.0473,6.0127,6.0666,6.0781,6.0781,6.0781,6.0781,6.0666,6.0165,5.9704,5.9242,5.8896,5.8819,5.8704,5.8357,5.8319,5.7896,5.6511,5.6252,5.6126,5.5742,5.5703,5.5703,5.5703,5.528,5.5011,5.5011,5.4549,5.3933,5.3087,5.2972,5.2664,5.1818,5.1741,5.1587,5.1202,5.1202,5.1048,5.0712,5.0712,5.0712,5.0712,5.0212,4.9864,4.9641,4.8083,4.7251,4.7106,4.6563,4.6337,4.0046,4.0677,0.0,4.3582,4.174,0.0,4.5975,4.5543,4.5158,4.9173,5.1241,5.2664,5.3741,5.5252,5.6291,5.6291,5.7203,5.8242,5.9242,6.0012,6.0512,6.0512,6.0589,6.0666,6.0666,6.0742,6.0742,6.0666,5.9781,5.8511,5.6945,5.6126,5.5703,5.5703,5.578,5.6214,5.6983,5.7099,5.7588,5.8434,5.8434,5.8858,5.9627,5.9627,6.0089,6.0781,6.0781,6.0781,6.0781,6.0781,6.0781,6.0781,6.0781,6.0781,6.0781,6.0781,6.0781,6.0781,6.0781,6.0781,6.0781,6.0781,6.0781,6.0781,6.0781,6.0781,6.0781,6.0781,6.0781,6.0781,6.0781,6.0781,6.0589,5.9819,5.9627,5.9435,5.8742,5.8588,5.8319,5.7445,5.7137,5.6753,5.5972,5.5742,5.5703,5.5703,5.5703,5.5703,5.5703,5.5703,5.5395,5.4587,5.4511,5.4164,5.328,5.3203,5.2856,5.2077,5.1962,5.1587,5.0856,5.075,5.0712,5.0712,5.0712,5.0712,5.0712,4.8837,4.7803,4.749,4.7414,4.7377,4.1757,4.1745,4.1945,4.1621,4.16,0.0,4.1162,4.1802,4.3047,4.5128,4.6355,4.774,4.9971,5.1241,5.1943,5.1943,5.378,5.6011,5.8204,5.8665,5.8781,5.8781,5.9358,5.9742,5.9742,6.0396,6.0512,5.9819,5.8357,5.706,5.6011,5.578,5.5703,5.5703,5.6368,5.683,5.6983,5.7703,5.8473,5.9281,5.9281,5.9704,6.055,6.055,6.0627,6.0781,6.0781,6.0781,6.0781,6.0781,6.0781,6.0781,6.0781,6.0781,6.0781,6.0781,6.0781,6.0781,6.0781,6.0781,6.0781,6.0781,6.0781,6.0781,6.0781,6.0781,6.0781,6.0781,6.0781,6.0781,6.0781,6.0781,6.0742,6.0589,6.055,6.0512,6.0358,6.0319,6.005,5.9165,5.7907,5.6945,5.6791,5.6165,5.5703,5.5703,5.5703,5.5703,5.5703,5.5703,5.5395,5.4587,5.4511,5.4164,5.328,5.3203,5.3126,5.2972,5.2269,5.1846,5.1654,5.1048,5.0712,5.0712,5.0712,5.0712,5.0712,5.0278,5.0074,4.9984,4.9294,4.8948,4.3816,4.367,4.3911,4.3522,4.279,0.0,0.0,4.1723,4.2087,4.4589,4.4728,4.5202,4.7742,4.8544,4.8933,4.9356,5.1548,5.351,5.4395,5.6703,5.8319,5.8319,5.8665,5.8896,5.8896,5.9319,5.9204,5.8319,5.7484,5.6637,5.5742,5.5703,5.5895,5.6329,5.6791,5.7407,5.8242,5.8665,5.9319,6.0165,6.0165,6.0358,6.0781,6.0781,6.0781,6.0781,6.0781,6.0781,6.0781,6.0781,6.0781,6.0781,6.0781,6.0781,6.0781,6.0781,6.0781,6.0781,6.0781,6.0781,6.0781,6.0781,6.0781,6.0781,6.0781,6.0781,6.0781,6.0781,6.0781,6.0781,6.0781,6.0781,6.0781,6.0781,6.0781,6.0781,6.0781,6.0781,6.0666,6.0242,5.9127,5.7973,5.7137,5.6291,5.5703,5.5703,5.5703,5.5703,5.5703,5.5703,5.5549,5.5126,5.5088,5.4934,5.4472,5.4434,5.428,5.3857,5.3433,5.301,5.2577,5.2164,5.1741,5.1318,5.1318,5.1087,5.0712,5.0712,5.0712,5.0712,5.025,5.0048,4.6119,4.6091,4.6569,4.5949,4.4589,4.3452,0.0,0.0,0.0,4.4435,4.4039,4.3916,4.6164,4.6506,4.6744,4.7554,4.9551,5.0806,5.0316,5.4073,5.6876,5.683,5.728,5.7588,5.7588,5.7588,5.7396,5.7022,5.656,5.6099,5.5703,5.5703,5.6088,5.6983,5.7176,5.7973,5.9473,5.9665,6.0089,6.0781,6.0781,6.0781,6.0781,6.0781,6.0781,6.0781,6.0781,6.0781,6.0781,6.0781,6.0781,6.0781,6.0781,6.0781,6.0781,6.0781,6.0781,6.0781,6.0781,6.0781,6.0781,6.0781,6.0781,6.0781,6.0781,6.0781,6.0781,6.0781,6.0781,6.0781,6.0781,6.0781,6.0781,6.0781,6.0781,6.0781,6.0781,6.0781,6.0781,6.0781,6.0089,5.9011,5.7511,5.6511,5.5895,5.5742,5.5703,5.5703,5.5703,5.5703,5.5703,5.5703,5.5703,5.5703,5.5703,5.5703,5.5434,5.478,5.4587,5.4164,5.3472,5.328,5.2856,5.2154,5.2154,5.1818,5.1164,5.101,5.0856,5.0712,5.0712,5.0712,4.8738,4.8966,4.8982,4.5896,4.6639,4.6753,4.1452,0.0,4.2946,4.1707,0.0,4.3683,4.4777,0.0,0.0,4.6027,4.7023,4.7932,4.8498,5.0461,5.1753,5.1568,5.3549,5.4934,5.4934,5.4934,5.5511,5.6907,5.4895,5.4241,5.5626,5.5703,5.6088,5.6983,5.7742,5.8588,5.9473,6.0281,6.0704,6.0781,6.0781,6.0781,6.0781,6.0781,6.0781,6.0781,6.0781,6.0781,6.0781,6.0781,6.0781,6.0781,6.0781,6.0781,6.0781,6.0781,6.0781,6.0781,6.0781,6.0781,6.0781,6.0781,6.0781,6.0781,6.0781,6.0781,6.0781,6.0781,6.0781,6.0781,6.0781,6.0781,6.0781,6.0781,6.0781,6.0781,6.0781,6.0781,6.0781,6.0781,6.0089,5.9204,5.8319,5.7434,5.6599,5.5818,5.5703,5.5703,5.5703,5.5703,5.5703,5.5703,5.5703,5.5703,5.5703,5.5703,5.5665,5.5549,5.4895,5.4472,5.4357,5.3626,5.3164,5.3049,5.3049,5.301,5.2895,5.2154,5.1395,5.0712,5.0712,5.0712,4.9289,4.9842,5.0195,4.7226,4.7344,4.707,4.2965,4.2494,4.2842,4.2596,0.0,0.0,0.0,0.0,0.0,0.0,4.5555,4.6201,4.5435,4.7323,4.9278,5.0567,5.1672,5.2539,5.2943,5.3433,5.4049,5.4741,5.3818,5.3741,5.4934,5.5434,5.6319,5.7703,5.8127,5.8934,6.0242,6.0627,6.0781,6.0781,6.0781,6.0781,6.0781,6.0781,6.0781,6.0793,6.0892,6.0871,6.0793,6.0892,6.086,6.0781,6.0781,6.0781,6.0781,6.0781,6.0781,6.0781,6.0781,6.0781,6.0781,6.0781,6.0781,6.0781,6.0781,6.0781,6.0781,6.0781,6.0781,6.0827,6.0923,6.0925,6.0954,6.1062,6.1087,6.1087,6.1087,6.1087,6.1087,6.1087,6.0777,6.0281,5.9436,5.8433,5.7473,5.6599,5.6445,5.6291,5.578,5.5703,5.5703,5.5703,5.5703,5.5703,5.5703,5.5703,5.5703,5.5703,5.5395,5.5203,5.5203,5.4857,5.4434,5.3972,5.3933,5.3703,5.3203,5.2818,5.2472,5.2125,5.1164,5.0712,5.0469,5.1172,5.1641,4.8125,4.7422,4.6836,4.3984,4.3203,4.3359,4.4219,4.4253,0.0,0.0,0.0,0.0,0.0,0.0,4.518,4.3821,4.495,4.6664,4.8737,4.966,5.0418,5.1191,5.1578,5.2087,5.2779,5.2433,5.2856,5.4434,5.5049,5.628,5.8242,5.8319,5.9088,6.0781,6.0781,6.0827,6.0828,6.0828,6.0871,6.0943,6.0943,6.0943,6.0953,6.1062,6.1036,6.0953,6.1023,6.1036,6.0943,6.0943,6.0943,6.0923,6.085,6.0781,6.0781,6.0781,6.0781,6.0781,6.0781,6.0781,6.0804,6.0845,6.0828,6.0888,6.0923,6.0943,6.0945,6.1048,6.1089,6.1128,6.1259,6.1283,6.1283,6.1283,6.1283,6.1283,6.1283,6.1283,6.1095,6.0478,5.9483,5.8452,5.7533,5.7408,5.7184,5.6483,5.6203,5.6049,5.6049,5.5818,5.5703,5.5703,5.5703,5.5703,5.5703,5.5703,5.5703,5.5703,5.5703,5.5434,5.4857,5.4818,5.4511,5.3895,5.3664,5.3549,5.351,5.2049,5.1241,5.3281,0.0,5.375,4.7812,4.6992,4.668,4.3242,0.0,4.5156,0.0,0.0,0.0,0.0,0.0,0.0,0.0,0.0,0.0,0.0,4.3465,4.3095,4.4515,4.6886,4.8738,4.9582,4.8827,4.9279,5.1769,5.0433,5.0971,5.4318,5.4511,5.5703,5.8242,5.8319,5.9088,6.0781,6.0781,6.085,6.0988,6.0988,6.1097,6.1271,6.1271,6.1271,6.1271,6.1277,6.1277,6.1271,6.1277,6.1277,6.1271,6.1271,6.1271,6.1234,6.0913,6.0781,6.0781,6.0781,6.0781,6.0781,6.0781,6.0781,6.08,6.0954,6.0988,6.1031,6.1227,6.1271,6.1271,6.1277,6.1277,6.1277,6.1283,6.1283,6.1283,6.1283,6.1283,6.1283,6.1283,6.1283,6.1283,6.125,6.055,5.9601,5.859,5.8441,5.8392,5.8237,5.7473,5.6945,5.6945,5.6214,5.5703,5.5703,5.5703,5.5703,5.5703,5.5703,5.5703,5.5703,5.5703,5.5703,5.5665,5.5665,5.5665,5.5626,5.4857,5.4472,5.4434,5.3549,5.2664,0.0,0.0,5.6562,5.1055,0.0,0.0,0.0,0.0,0.0,0.0,0.0,0.0,0.0,0.0,0.0,0.0,0.0,0.0,0.0,4.1301,4.1449,4.364,4.5487,4.6711,4.7048,4.7717,4.8471,4.9308,4.9394,5.0394,5.2664,5.3857,5.5395,5.7357,5.8011,5.9088,6.0781,6.0902,6.0954,6.1006,6.1143,6.1234,6.1283,6.1283,6.1283,6.1289,6.1383,6.1373,6.1295,6.1387,6.1373,6.1283,6.1283,6.1283,6.1271,6.115,6.1143,6.1143,6.1143,6.1143,6.1143,6.1143,6.1143,6.1151,6.1179,6.12,6.1214,6.1271,6.1283,6.1312,6.14,6.1417,6.1435,6.1527,6.1575,6.1575,6.1575,6.1575,6.1575,6.1575,6.1575,6.1575,6.1575,6.1303,6.0762,5.9664,5.951,5.9248,5.8517,5.8181,5.796,5.7879,5.7689,5.7562,5.7562,5.7118,5.656,5.5852,5.5843,5.5769,5.5714,5.5703,5.5703,5.5703,5.5703,5.5703,5.5703,5.5434,5.528,5.528,5.4972,5.4087,5.7226,5.8125,0.0,5.3476,5.2734,0.0,4.7812,0.0,4.9922,0.0,0.0,0.0,0.0,0.0,0.0,0.0,0.0,0.0,0.0,4.083,4.1246,4.2924,4.418,4.5111,4.5745,4.6105,4.6701,4.7625,4.7894,4.9048,5.1356,5.3087,5.4934,5.6945,5.7857,5.9144,6.086,6.0963,6.1042,6.1182,6.1323,6.1387,6.1424,6.1424,6.1424,6.1467,6.1522,6.1515,6.1467,6.1522,6.1515,6.1424,6.1424,6.1424,6.1417,6.1328,6.1283,6.1283,6.1283,6.1283,6.1283,6.1283,6.1283,6.1295,6.1349,6.1364,6.1373,6.1413,6.1424,6.1478,6.1568,6.1577,6.1584,6.1679,6.1719,6.1719,6.1719,6.1719,6.1719,6.1719,6.1719,6.1719,6.1719,6.1719,6.1438,6.0659,6.0516,6.0272,5.9597,5.9226,5.8979,5.8904,5.8684,5.8574,5.8574,5.8129,5.7603,5.6943,5.6897,5.6722,5.6304,5.6304,5.6179,5.587,5.587,5.587,5.587,5.587,5.587,5.587,5.587,5.5246]}]]